[[{"header":{"parameterUnit":"m.s-1","parameterCategory":1,"la1":30.6,"la2":29.2853,"lo1":-89.7004,"lo2":-87.6739,"dy":0.0162,"dx":0.0183,"nx":112,"ny":82,"refTime":"2026-04-23T00:00:00:Z","depth":0,"parameterNumber":2,"parameterNumberName":"U-component_of_WINDS"},"data":[0.0,0.0,0.0,0.0,0.0,0.0,0.0,0.0,0.0,0.0,0.0,0.0,0.0,0.0,0.0,0.0,0.0,0.0,0.0,0.0,0.0,0.0,0.0,0.0,0.0,0.0,0.0,0.0,0.0,0.0,0.0,0.0,0.0,0.0,0.0,0.0,0.0,0.0,0.0,0.0,0.0,0.0,0.0,0.0,0.0,0.0,0.0,0.0,0.0,0.0,0.0,0.0,0.0,0.0,0.0,0.0,0.0,0.0,0.0,0.0,0.0,0.0,0.0,0.0,0.0,0.0,0.0,0.0,0.0,0.0,0.0,0.0,0.0,0.0,0.0,0.0,0.0,0.0,0.0,0.0,0.0,0.0,0.0,0.0,0.0,0.0,0.0,0.0,0.0,0.0,-5.8249,-6.5677,-7.349,-7.7492,-7.5872,-7.3546,-6.9585,-6.3533,0.0,0.0,0.0,0.0,0.0,0.0,0.0,0.0,0.0,0.0,0.0,0.0,0.0,0.0,0.0,0.0,0.0,0.0,0.0,0.0,0.0,0.0,0.0,0.0,0.0,0.0,0.0,0.0,0.0,0.0,0.0,0.0,0.0,0.0,0.0,0.0,0.0,0.0,0.0,0.0,0.0,0.0,0.0,0.0,0.0,0.0,0.0,0.0,0.0,0.0,0.0,0.0,0.0,0.0,0.0,0.0,0.0,0.0,0.0,0.0,0.0,0.0,0.0,0.0,0.0,0.0,0.0,0.0,0.0,0.0,0.0,0.0,0.0,0.0,0.0,0.0,0.0,0.0,0.0,0.0,0.0,0.0,0.0,0.0,0.0,0.0,0.0,0.0,0.0,0.0,0.0,0.0,0.0,0.0,0.0,0.0,0.0,0.0,0.0,0.0,0.0,0.0,0.0,0.0,-6.1801,-7.1591,-7.5832,-7.7291,-7.5683,-7.3888,-7.0259,-6.4211,0.0,0.0,0.0,0.0,0.0,0.0,0.0,0.0,0.0,0.0,0.0,0.0,0.0,0.0,0.0,0.0,0.0,0.0,0.0,0.0,0.0,0.0,0.0,0.0,0.0,0.0,0.0,0.0,0.0,0.0,0.0,0.0,0.0,0.0,0.0,0.0,0.0,0.0,0.0,0.0,0.0,0.0,0.0,0.0,0.0,0.0,0.0,0.0,0.0,0.0,0.0,0.0,0.0,0.0,0.0,0.0,0.0,0.0,0.0,0.0,0.0,0.0,0.0,0.0,0.0,0.0,0.0,0.0,0.0,0.0,0.0,0.0,0.0,0.0,0.0,0.0,0.0,0.0,0.0,0.0,0.0,0.0,0.0,0.0,0.0,0.0,0.0,0.0,0.0,0.0,0.0,0.0,0.0,0.0,0.0,0.0,0.0,0.0,0.0,0.0,0.0,0.0,0.0,-5.9029,-6.5064,-7.1223,-7.4227,-7.5124,-7.3519,-7.1427,-6.8004,-6.2897,-5.6215,0.0,0.0,0.0,0.0,0.0,0.0,0.0,0.0,0.0,0.0,0.0,0.0,0.0,0.0,0.0,0.0,0.0,0.0,0.0,0.0,0.0,0.0,0.0,0.0,0.0,0.0,0.0,0.0,0.0,0.0,0.0,0.0,0.0,0.0,0.0,0.0,0.0,0.0,0.0,0.0,0.0,0.0,0.0,0.0,0.0,0.0,0.0,0.0,0.0,0.0,0.0,0.0,0.0,0.0,0.0,0.0,0.0,0.0,0.0,0.0,0.0,0.0,0.0,0.0,0.0,0.0,0.0,0.0,0.0,0.0,0.0,0.0,0.0,0.0,0.0,0.0,0.0,0.0,0.0,0.0,0.0,0.0,0.0,0.0,0.0,0.0,0.0,0.0,0.0,0.0,0.0,0.0,0.0,0.0,0.0,0.0,0.0,0.0,0.0,0.0,0.0,0.0,-6.3129,-6.7715,-7.0117,-7.256,-7.3161,-7.1102,-6.8622,-6.5121,-6.0417,-5.4074,0.0,0.0,0.0,0.0,0.0,0.0,0.0,0.0,0.0,0.0,0.0,0.0,0.0,0.0,0.0,0.0,0.0,0.0,0.0,0.0,0.0,0.0,0.0,0.0,0.0,0.0,0.0,0.0,0.0,0.0,0.0,0.0,0.0,0.0,0.0,0.0,0.0,0.0,0.0,0.0,0.0,0.0,0.0,0.0,0.0,0.0,0.0,0.0,0.0,0.0,0.0,0.0,0.0,0.0,0.0,0.0,0.0,0.0,0.0,0.0,0.0,0.0,0.0,0.0,0.0,0.0,0.0,0.0,0.0,0.0,0.0,0.0,0.0,0.0,0.0,0.0,0.0,0.0,0.0,0.0,0.0,0.0,0.0,0.0,0.0,0.0,0.0,0.0,0.0,0.0,0.0,0.0,0.0,0.0,0.0,0.0,0.0,0.0,0.0,0.0,0.0,0.0,-6.4948,-6.928,-7.1031,-7.2811,-7.259,-6.9262,-6.6641,-6.2664,-5.6734,-5.1401,0.0,0.0,0.0,0.0,0.0,0.0,0.0,0.0,0.0,0.0,0.0,0.0,0.0,0.0,0.0,0.0,0.0,0.0,0.0,0.0,0.0,0.0,0.0,0.0,0.0,0.0,0.0,0.0,0.0,0.0,0.0,0.0,0.0,0.0,0.0,0.0,0.0,0.0,0.0,0.0,0.0,0.0,0.0,0.0,0.0,0.0,0.0,0.0,0.0,0.0,0.0,0.0,0.0,0.0,0.0,0.0,0.0,0.0,0.0,0.0,0.0,0.0,0.0,0.0,0.0,0.0,0.0,0.0,0.0,0.0,0.0,0.0,0.0,0.0,0.0,0.0,0.0,0.0,0.0,0.0,0.0,0.0,0.0,0.0,0.0,0.0,0.0,0.0,0.0,0.0,0.0,0.0,0.0,0.0,0.0,0.0,0.0,0.0,0.0,0.0,0.0,0.0,-6.34,-6.7075,0.0,-7.0015,-6.9744,-6.7384,-6.4367,-6.0692,-5.6283,0.0,0.0,0.0,0.0,0.0,0.0,0.0,0.0,0.0,0.0,0.0,0.0,0.0,0.0,0.0,0.0,0.0,0.0,0.0,0.0,0.0,0.0,0.0,0.0,0.0,0.0,0.0,0.0,0.0,0.0,0.0,0.0,0.0,0.0,0.0,0.0,0.0,0.0,0.0,0.0,0.0,0.0,0.0,0.0,0.0,0.0,0.0,0.0,0.0,0.0,0.0,0.0,0.0,0.0,0.0,0.0,0.0,0.0,0.0,0.0,0.0,0.0,0.0,0.0,0.0,0.0,0.0,0.0,0.0,0.0,0.0,0.0,0.0,0.0,0.0,0.0,0.0,0.0,0.0,0.0,0.0,0.0,0.0,0.0,0.0,0.0,0.0,0.0,0.0,0.0,0.0,0.0,0.0,0.0,0.0,0.0,0.0,0.0,0.0,0.0,0.0,0.0,-5.7056,-6.2008,-6.5528,0.0,-6.8119,-6.7887,-6.5605,-6.2511,-5.8913,-5.465,0.0,0.0,0.0,0.0,0.0,0.0,0.0,0.0,0.0,0.0,0.0,0.0,0.0,0.0,0.0,0.0,0.0,0.0,0.0,0.0,0.0,0.0,0.0,0.0,0.0,0.0,0.0,0.0,0.0,0.0,0.0,0.0,0.0,0.0,0.0,0.0,0.0,0.0,0.0,0.0,0.0,0.0,0.0,0.0,0.0,0.0,0.0,0.0,0.0,0.0,0.0,0.0,0.0,0.0,0.0,0.0,0.0,0.0,0.0,0.0,0.0,0.0,0.0,0.0,0.0,0.0,0.0,0.0,0.0,0.0,0.0,0.0,0.0,0.0,0.0,0.0,0.0,0.0,0.0,0.0,0.0,0.0,0.0,0.0,0.0,0.0,0.0,0.0,0.0,0.0,0.0,0.0,0.0,0.0,0.0,0.0,0.0,0.0,0.0,0.0,0.0,0.0,-5.5354,-6.1234,-6.5257,-6.6108,-6.7733,-6.7384,-6.399,-6.135,-5.7327,0.0,0.0,0.0,0.0,0.0,0.0,0.0,0.0,0.0,0.0,0.0,0.0,0.0,0.0,0.0,0.0,0.0,0.0,0.0,0.0,0.0,0.0,0.0,0.0,0.0,0.0,0.0,0.0,0.0,0.0,0.0,0.0,0.0,0.0,0.0,0.0,0.0,0.0,0.0,0.0,0.0,0.0,0.0,0.0,0.0,0.0,0.0,0.0,0.0,0.0,0.0,0.0,0.0,0.0,0.0,0.0,0.0,0.0,0.0,0.0,0.0,0.0,0.0,0.0,0.0,0.0,0.0,0.0,0.0,0.0,0.0,0.0,0.0,0.0,0.0,0.0,0.0,0.0,0.0,0.0,0.0,0.0,0.0,0.0,0.0,0.0,0.0,0.0,0.0,0.0,0.0,0.0,0.0,0.0,0.0,0.0,0.0,0.0,0.0,0.0,0.0,0.0,0.0,-5.5277,-6.019,-6.3478,-6.4329,-6.545,-6.5218,-6.2975,-6.046,-5.7211,-5.2995,0.0,0.0,0.0,0.0,0.0,0.0,0.0,0.0,0.0,0.0,0.0,0.0,0.0,0.0,0.0,0.0,0.0,0.0,0.0,0.0,0.0,0.0,0.0,0.0,0.0,0.0,0.0,0.0,0.0,0.0,0.0,0.0,0.0,0.0,0.0,0.0,0.0,0.0,0.0,0.0,0.0,0.0,0.0,0.0,0.0,0.0,0.0,0.0,0.0,0.0,0.0,0.0,0.0,0.0,0.0,0.0,0.0,0.0,0.0,0.0,0.0,0.0,0.0,0.0,0.0,0.0,0.0,0.0,0.0,0.0,0.0,0.0,0.0,0.0,0.0,0.0,0.0,0.0,0.0,0.0,0.0,0.0,0.0,0.0,0.0,0.0,0.0,0.0,0.0,0.0,0.0,0.0,0.0,0.0,0.0,0.0,0.0,0.0,0.0,0.0,0.0,0.0,-5.3807,-5.8797,-6.2085,-6.2588,-6.3758,-6.3787,-6.2046,-6.0171,-5.7339,-5.3249,0.0,0.0,0.0,0.0,0.0,0.0,0.0,0.0,0.0,0.0,0.0,0.0,0.0,0.0,0.0,0.0,0.0,0.0,0.0,0.0,0.0,0.0,0.0,0.0,0.0,0.0,0.0,0.0,0.0,0.0,0.0,0.0,0.0,0.0,0.0,0.0,0.0,0.0,0.0,0.0,0.0,0.0,0.0,0.0,0.0,0.0,0.0,0.0,0.0,0.0,0.0,0.0,0.0,0.0,0.0,0.0,0.0,0.0,0.0,0.0,0.0,0.0,0.0,0.0,0.0,0.0,0.0,0.0,0.0,0.0,0.0,0.0,0.0,0.0,0.0,0.0,0.0,0.0,0.0,0.0,0.0,0.0,0.0,0.0,0.0,0.0,0.0,0.0,0.0,0.0,0.0,0.0,0.0,0.0,0.0,0.0,0.0,0.0,0.0,0.0,0.0,0.0,-5.1649,-5.7327,-6.1002,-6.1002,-6.2472,-6.2781,-6.1109,-6.0104,-5.7457,-5.2511,0.0,0.0,0.0,0.0,0.0,0.0,0.0,0.0,0.0,0.0,0.0,0.0,0.0,0.0,0.0,0.0,0.0,0.0,0.0,0.0,0.0,0.0,0.0,0.0,0.0,0.0,0.0,0.0,0.0,0.0,0.0,0.0,0.0,0.0,0.0,0.0,0.0,0.0,0.0,0.0,0.0,0.0,0.0,0.0,0.0,0.0,0.0,0.0,0.0,0.0,0.0,0.0,0.0,0.0,0.0,0.0,0.0,0.0,0.0,0.0,-6.1504,-6.0257,0.0,0.0,0.0,0.0,0.0,0.0,0.0,0.0,0.0,0.0,0.0,0.0,0.0,0.0,0.0,0.0,0.0,0.0,0.0,0.0,0.0,0.0,0.0,0.0,0.0,0.0,0.0,0.0,0.0,0.0,0.0,0.0,0.0,0.0,0.0,0.0,0.0,0.0,0.0,0.0,-5.1649,-5.6863,-6.0151,-6.0151,-6.1041,-6.1215,-6.0172,-5.8655,-5.6125,-5.2343,-4.8544,0.0,0.0,0.0,0.0,0.0,0.0,0.0,0.0,0.0,0.0,0.0,0.0,0.0,0.0,0.0,0.0,0.0,0.0,0.0,0.0,0.0,0.0,0.0,0.0,0.0,0.0,0.0,0.0,0.0,0.0,0.0,0.0,0.0,0.0,0.0,0.0,0.0,0.0,0.0,0.0,0.0,0.0,0.0,0.0,0.0,0.0,0.0,0.0,0.0,0.0,0.0,0.0,0.0,0.0,0.0,0.0,0.0,0.0,0.0,-6.587,-6.3763,0.0,0.0,0.0,0.0,0.0,0.0,0.0,0.0,0.0,0.0,0.0,0.0,0.0,0.0,0.0,0.0,0.0,0.0,0.0,0.0,0.0,0.0,0.0,0.0,0.0,0.0,0.0,0.0,0.0,0.0,0.0,0.0,0.0,0.0,0.0,0.0,0.0,0.0,0.0,0.0,-5.0442,-5.5105,-5.8181,-5.8576,-5.9321,-5.9457,-5.8616,-5.7323,-5.5249,-5.2251,-4.8446,0.0,0.0,0.0,0.0,0.0,0.0,0.0,0.0,0.0,0.0,0.0,0.0,0.0,0.0,0.0,0.0,0.0,0.0,0.0,0.0,0.0,0.0,0.0,0.0,0.0,0.0,0.0,0.0,0.0,0.0,0.0,0.0,0.0,0.0,0.0,0.0,0.0,0.0,0.0,0.0,0.0,0.0,0.0,0.0,0.0,0.0,0.0,0.0,0.0,0.0,0.0,0.0,0.0,-7.1719,-7.2054,-7.2066,-7.2005,-7.2392,-7.2945,-7.1124,-6.8536,-6.5666,-6.5511,0.0,0.0,0.0,0.0,0.0,0.0,0.0,0.0,0.0,0.0,0.0,0.0,0.0,0.0,0.0,0.0,0.0,0.0,0.0,0.0,0.0,0.0,-5.3249,-5.3103,-5.2398,-5.1238,-4.932,0.0,0.0,0.0,0.0,0.0,0.0,0.0,0.0,0.0,0.0,0.0,-4.9158,-5.337,-5.6241,-5.6898,-5.7709,-5.7872,-5.7023,-5.6125,-5.4477,-5.1924,-4.8152,-4.5201,0.0,0.0,0.0,0.0,0.0,0.0,0.0,0.0,0.0,0.0,0.0,0.0,0.0,0.0,0.0,0.0,0.0,0.0,0.0,0.0,0.0,0.0,0.0,0.0,0.0,0.0,0.0,0.0,0.0,0.0,0.0,0.0,-6.3679,-6.2218,0.0,0.0,0.0,0.0,0.0,0.0,0.0,0.0,0.0,0.0,0.0,0.0,0.0,-7.0624,-7.2157,-7.4149,-7.5187,-7.5295,-7.541,-7.5476,-7.5543,-7.5529,-7.5593,-7.5722,-7.6173,0.0,-6.9075,-6.8306,0.0,0.0,0.0,0.0,0.0,0.0,0.0,0.0,0.0,0.0,0.0,0.0,0.0,0.0,0.0,0.0,0.0,0.0,0.0,0.0,0.0,0.0,-5.74,-5.6714,-5.5912,-5.5457,-5.584,-5.2871,-4.9351,-4.6883,-4.5065,0.0,0.0,0.0,0.0,0.0,0.0,0.0,-4.9273,-5.3353,-5.6,-5.6078,-5.684,-5.6975,-5.6077,-5.518,-5.3581,-5.1029,-4.8942,-4.6663,-4.4239,-4.147,0.0,0.0,0.0,0.0,0.0,0.0,0.0,0.0,0.0,0.0,0.0,0.0,0.0,0.0,0.0,0.0,0.0,0.0,0.0,0.0,0.0,0.0,0.0,0.0,0.0,0.0,0.0,0.0,0.0,-6.2836,-6.5154,-6.3941,-6.4471,-6.3699,0.0,0.0,0.0,0.0,0.0,0.0,0.0,0.0,0.0,-6.8848,-7.2756,-7.5228,-7.6084,-7.7891,-7.8683,-7.8453,-7.8541,-7.8676,-7.8853,-7.8936,-7.8951,-7.8989,-7.935,-7.741,-7.3829,-7.1583,-6.8039,-6.3809,0.0,0.0,0.0,0.0,-5.817,-5.8847,-5.8599,-5.8603,-5.8601,-5.7634,0.0,0.0,0.0,0.0,0.0,0.0,0.0,-5.2408,-5.3453,-5.5632,-5.7394,-5.6539,-5.6462,-5.6549,-5.6415,-5.4535,-5.2278,0.0,-4.7759,-4.5263,-4.3178,0.0,0.0,0.0,0.0,-4.6499,-4.8607,-5.1747,-5.3918,-5.44,-5.4756,-5.4813,-5.4359,-5.3541,-5.2569,-5.1433,-4.9317,-4.7394,-4.5817,-4.3316,-4.0123,0.0,0.0,0.0,0.0,0.0,0.0,0.0,0.0,0.0,0.0,0.0,0.0,0.0,0.0,0.0,0.0,0.0,0.0,0.0,0.0,0.0,0.0,0.0,0.0,0.0,0.0,0.0,0.0,-6.4251,-6.6518,-6.5912,-6.6215,-6.5459,0.0,0.0,0.0,0.0,0.0,0.0,-6.5489,-6.8994,-7.1419,-7.2372,-7.5901,-7.7945,-7.8284,-7.9865,-8.0514,-8.0163,-8.0316,-8.0519,-8.0788,-8.0943,-8.1029,-8.1029,-8.0799,-7.9492,-7.7354,-7.4442,-7.0654,-6.6518,-6.4642,-6.3016,-6.1673,-6.1486,-6.1691,-6.2087,-6.1952,-6.184,-6.169,-6.1235,-5.9341,-5.6804,-5.4217,0.0,0.0,0.0,0.0,-5.3522,-5.4318,-5.5798,-5.6891,-5.6264,-5.6467,-5.6582,-5.5953,-5.4983,-5.3772,0.0,-4.9637,-4.7067,-4.5324,0.0,0.0,0.0,0.0,-4.6676,-4.8373,-5.0574,-5.2242,-5.2878,-5.3107,-5.3115,-5.2874,-5.2067,-5.1441,-5.1239,-4.9058,-4.7491,-4.6905,-4.4654,-4.17,-3.8077,0.0,0.0,0.0,0.0,0.0,0.0,0.0,0.0,0.0,0.0,0.0,0.0,0.0,0.0,0.0,0.0,0.0,0.0,0.0,0.0,0.0,0.0,0.0,0.0,0.0,0.0,0.0,0.0,0.0,-6.8413,-6.9816,0.0,0.0,0.0,0.0,-6.5131,-6.6762,-6.8077,-6.8903,-7.1246,-7.3007,-7.3949,-7.5737,-7.7123,-7.7994,-7.9001,-7.9585,-7.973,-7.9999,-8.022,-8.041,-8.0685,-8.0809,-8.0771,-7.9927,-7.9084,-7.8141,-7.6494,-7.3293,-6.9212,-6.7208,-6.5939,-6.5126,-6.424,-6.502,-6.6336,-6.542,-6.5474,-6.5762,-6.4407,-6.1065,-5.7029,-5.4538,-5.3126,0.0,0.0,-5.3988,-5.5416,-5.5659,-5.6494,-5.7256,-5.7232,-5.6692,-5.6136,-5.6168,-5.4832,-5.3314,0.0,-5.0481,-4.874,-4.6991,0.0,-4.476,-4.6408,-4.6797,-4.7546,-4.9208,-5.0932,-5.1992,-5.1972,-5.2702,-5.2836,-5.1938,-5.1132,-5.0276,-4.937,-4.7799,-4.6858,-4.682,-4.5136,-4.3393,-4.1577,-3.9046,0.0,0.0,0.0,0.0,0.0,0.0,0.0,0.0,0.0,0.0,0.0,0.0,0.0,0.0,0.0,0.0,0.0,0.0,0.0,0.0,0.0,0.0,0.0,0.0,0.0,0.0,0.0,0.0,-7.1711,-7.2848,0.0,-7.0604,-6.9257,-6.9042,-7.0251,-7.1816,-7.3288,-7.4544,-7.6331,-7.7427,-7.77,-7.8704,-7.9162,-7.8954,-7.9306,-7.9313,-7.9066,-7.9293,-7.9524,-7.973,-7.9411,-7.9283,-7.9207,-7.8369,-7.7551,-7.6751,-7.5606,-7.3531,-7.0892,-6.9543,-6.825,-6.6988,-6.6667,-6.6529,-6.6488,-6.6058,-6.5559,-6.4785,-6.2905,-6.0485,-5.8029,-5.6617,-5.5243,-5.4259,-5.4913,-5.5641,-5.6122,-5.5758,-5.6434,-5.6884,-5.5835,-5.5722,-5.5775,-5.5276,-5.4262,-5.3141,-5.2202,-5.0736,-4.9337,-4.8273,-4.7214,-4.6771,-4.7444,-4.8115,-4.8748,-4.9345,-5.0462,-5.1154,-5.1125,-5.0894,-5.0606,-5.021,-4.9311,-4.8635,-4.8388,-4.672,-4.5821,-4.5889,-4.435,-4.2701,-4.1008,-3.9546,-3.7322,0.0,0.0,0.0,0.0,0.0,0.0,0.0,0.0,0.0,0.0,0.0,0.0,0.0,0.0,0.0,0.0,0.0,0.0,0.0,0.0,0.0,0.0,0.0,0.0,0.0,-6.8811,-7.2241,-7.4212,-7.5463,-7.5666,-7.4384,-7.3123,-7.2859,-7.4056,-7.5041,-7.6181,-7.7529,-7.8746,-7.9386,-7.9278,-7.9661,-7.9614,-7.9094,-7.9094,-7.8935,-7.8629,-7.8578,-7.8639,-7.8855,-7.8201,-7.7933,-7.7879,-7.7046,-7.6251,-7.5418,-7.4568,-7.3079,-7.1377,-7.0823,-6.9756,-6.8519,-6.8519,-6.7901,-6.6947,-6.6215,-6.5162,-6.3821,-6.1885,-6.0471,-5.9329,-5.8252,-5.7138,-5.6357,-5.6995,-5.7019,-5.6799,-5.6351,-5.6329,-5.6099,-5.501,-5.4934,-5.4972,-5.4446,-5.3641,-5.2853,-5.2027,-5.0915,-4.9924,-4.9263,-4.854,-4.8213,-4.8619,-4.9064,-4.9461,-4.973,-5.0268,-5.0499,-5.024,-4.9692,-4.9201,-4.8802,-4.7832,-4.7144,-4.6915,-4.553,-4.4656,-4.4489,-4.3576,-4.2376,-4.0915,-3.9269,-3.6892,-3.3744,0.0,0.0,0.0,0.0,0.0,0.0,0.0,0.0,0.0,0.0,0.0,0.0,0.0,0.0,0.0,0.0,0.0,0.0,0.0,0.0,0.0,0.0,0.0,-6.5766,-6.9758,-7.3378,-7.588,-7.7661,-7.8598,-7.8376,-7.6783,-7.5958,-7.6443,-7.6331,-7.6628,-7.7487,-7.8128,-7.8495,-7.8495,-7.8359,-7.8276,-7.8239,-7.8239,-7.8322,-7.8383,-7.7826,-7.7617,-7.7727,-7.716,-7.6897,-7.6859,-7.5991,-7.5123,-7.4331,-7.3463,-7.2121,-7.0671,-7.0913,-7.046,-6.9683,-6.9645,-6.9058,-6.8015,-6.5957,-6.4545,-6.3342,-6.1707,-6.1187,-6.089,-5.9218,-5.8698,-5.8698,-5.8698,-5.8141,-5.7509,-5.7472,-5.6246,-5.4983,-5.4983,-5.4388,-5.3794,-5.3794,-5.3162,-5.2345,-5.1528,-5.105,-5.0583,-4.9877,-4.9237,-4.9137,-5.0049,-4.9641,0.0,-5.0374,-5.0451,-5.0106,-4.9273,-4.912,-4.8711,-4.7732,-4.6736,-4.5817,-4.49,-4.4121,-4.3373,-4.2675,-4.2804,-4.2488,-4.1643,-3.8408,-3.5507,-3.2968,0.0,0.0,0.0,0.0,0.0,0.0,0.0,0.0,0.0,0.0,0.0,0.0,0.0,0.0,0.0,0.0,0.0,0.0,0.0,0.0,0.0,-6.2805,-6.5916,-6.8299,-7.1879,-7.5122,-7.7623,-7.9405,-8.0302,-8.0052,-7.9424,-7.8766,-7.8151,-7.7851,-7.7828,-7.8079,-7.8247,-7.8359,-7.8359,-7.8304,-7.8016,-7.7449,-7.7449,-7.7115,-7.6537,-7.6367,-7.6334,-7.6323,-7.5606,-7.4922,-7.4325,-7.3504,-7.2683,-7.1824,-7.0979,-7.0382,-7.0042,-7.0567,-7.0282,-6.9488,-6.8846,-6.7555,-6.5957,-6.4668,-6.3944,-6.3342,-6.1707,-6.1187,-6.089,-5.9218,-5.8698,-5.8698,-5.8698,-5.8141,-5.736,-5.6766,-5.5837,-5.4871,-5.4277,-5.398,-5.3645,-5.3051,-5.2754,-5.2197,-5.0748,-5.0388,-5.0094,-4.9471,-4.9303,-4.9353,-4.9707,-4.9681,0.0,-4.9936,-4.9493,-4.9011,-4.8782,-4.7679,-4.6806,-4.6506,-4.4991,-4.3944,-4.3756,-4.1832,-4.0934,-4.1532,-4.0626,-4.0079,-3.9954,-3.8423,-3.6699,0.0,0.0,0.0,0.0,0.0,0.0,0.0,0.0,0.0,0.0,0.0,0.0,0.0,0.0,0.0,0.0,0.0,0.0,0.0,0.0,0.0,0.0,-6.5431,-6.8562,-7.1174,-7.372,-7.6074,-7.8214,-7.9955,-8.0998,-8.115,-8.0581,-7.9915,-7.9258,-7.8627,-7.8276,-7.8276,-7.8007,-7.7821,-7.7821,-7.7422,-7.7013,-7.653,-7.653,-7.627,-7.5787,-7.5453,-7.5304,-7.5267,-7.4115,-7.3361,-7.2878,-7.1998,-7.118,-7.0338,-6.9893,-6.9484,-6.9236,0.0,0.0,0.0,0.0,-6.6047,-6.4955,-6.4056,-6.3647,-6.3342,-6.1707,-6.1187,-6.089,-5.9218,-5.8698,-5.8624,-5.8289,-5.7621,-5.6803,-5.5986,-5.5131,-5.4388,-5.3905,-5.3534,-5.3162,-5.2717,-5.2048,-5.1268,-5.0302,-4.9819,0.0,-4.9156,-4.9225,-4.9399,-4.9499,-4.9608,-4.9594,-4.9267,-4.8826,-4.8259,-4.7553,-4.6593,-4.5836,-4.5429,-4.4339,0.0,0.0,0.0,-4.0565,-4.068,-3.9939,0.0,0.0,0.0,0.0,0.0,0.0,0.0,0.0,-3.2929,-3.3853,0.0,0.0,0.0,0.0,0.0,0.0,0.0,0.0,0.0,0.0,0.0,0.0,0.0,0.0,0.0,0.0,-6.8419,-7.1449,-7.3738,-7.5162,-7.6603,-7.8194,-7.9741,-8.0914,-8.1545,-8.0692,-7.9961,-7.9642,-7.8702,-7.809,-7.8016,-7.7338,0.0,0.0,0.0,-7.575,-7.5676,-7.5639,-7.5601,-7.5527,-7.471,-7.4301,-7.429,-7.2767,-7.2023,-7.1875,-7.1106,-7.0301,-6.9558,-6.9558,-6.9076,-6.8357,-6.8357,-6.7837,-6.6834,-6.5325,-6.473,-6.4545,-6.3862,0.0,0.0,-6.1707,-6.115,-6.0778,-5.9181,-5.8698,-5.8549,-5.7732,-5.6915,-5.6097,-5.5243,-5.4426,-5.3794,-5.3794,-5.32,-5.2568,-5.2494,-5.1231,-5.0079,-4.9968,-4.941,-4.889,-4.889,-4.9094,-4.9273,-4.9337,-4.9363,-4.9129,-4.8428,-4.8164,-4.7486,-4.5978,0.0,0.0,-4.4529,-4.4233,-4.3502,-4.1997,-4.1894,-4.1343,-4.0109,-4.0339,-4.0471,-4.0458,-3.9849,-3.9112,-3.8292,-3.8423,-3.8493,-3.8546,-3.6846,-3.7315,0.0,0.0,0.0,0.0,0.0,0.0,0.0,0.0,0.0,0.0,0.0,0.0,0.0,0.0,0.0,-6.653,-6.9939,-7.2505,-7.3701,-7.577,-7.7592,-7.879,-7.9791,-8.038,-8.0441,-8.0137,-7.9343,-7.7915,-7.7531,-7.704,-7.6307,-7.6121,-7.6047,-7.6047,-7.5899,-7.549,-7.4821,-7.4821,-7.4487,-7.3844,-7.3064,0.0,-7.2655,-7.1626,-7.0809,-7.0177,-7.0004,-6.9484,-6.8704,-6.8704,-6.8283,-6.754,-6.754,-6.6611,-6.5213,-6.4916,-6.4419,-6.3825,-6.3653,-6.3193,-6.2487,-6.1521,-6.0741,-5.9998,-5.8995,-5.8698,0.0,-5.7732,-5.6915,-5.6097,-5.5243,-5.4426,-5.3794,-5.3794,-5.32,-5.2419,-5.1788,-5.0822,-4.993,-4.9262,-4.9002,-4.889,-4.889,-4.8925,-4.8976,-4.8993,-4.8468,-4.8,-4.7868,-4.6712,-4.578,-4.5444,-4.4773,-4.4311,-4.4116,-4.3468,-4.2932,-4.262,-4.2193,-4.1356,-3.9916,-4.1393,-4.1561,-4.0205,-4.1437,-4.1628,-4.0711,-4.153,-4.2002,-4.2085,-4.0354,-4.0162,0.0,0.0,0.0,0.0,0.0,0.0,0.0,0.0,0.0,0.0,0.0,-5.7116,-6.0356,0.0,-6.5277,-6.8189,-7.1082,-7.3391,-7.4621,-7.5887,-7.7073,-7.8178,-7.8653,-7.8852,-7.8812,-7.8271,-7.7606,-7.6707,-7.6537,-7.6233,-7.5824,-7.5416,-7.5193,-7.5193,-7.4784,-7.4413,-7.4004,-7.3595,-7.3212,-7.2804,-7.1961,-7.1552,-7.1515,-7.0672,-7.0078,-6.967,-6.8853,-6.8283,-6.7874,-6.7465,-6.6834,-6.6054,-6.6054,-6.5547,-6.473,-6.4322,-6.3951,-6.3565,-6.3156,-6.2747,-6.219,-6.0964,-6.0258,-5.9754,-5.8958,-5.8438,-5.7918,-5.7138,-5.632,-5.5466,-5.4611,-5.4091,-5.372,-5.3311,-5.2568,-5.1788,-5.0933,-5.0413,-4.9968,-4.9596,-4.9522,-4.9522,-4.9522,-4.9187,-4.889,-4.889,-4.8221,-4.7553,-4.7144,-4.603,-4.5138,-4.4692,-4.4246,-4.3986,-4.3986,-4.3243,-4.2797,-4.2797,-4.2277,-4.1644,-4.1029,-4.1954,-4.2118,-4.131,-4.2197,-4.2436,-4.2008,-4.2585,-4.3127,-4.3662,-4.2816,-4.2624,0.0,0.0,0.0,0.0,0.0,0.0,0.0,0.0,-5.5399,-5.7043,-5.8984,-6.1036,-6.3251,-6.5425,-6.7574,-6.9608,-7.2023,-7.4004,-7.5156,-7.5453,-7.5857,-7.6625,-7.6987,-7.7174,-7.7174,-7.6435,-7.5909,-7.5723,-7.5644,-7.549,-7.5341,-7.471,-7.4301,-7.4115,-7.351,-7.3101,-7.2927,-7.2258,-7.1923,-7.1923,-7.1069,-7.0561,-7.0412,-6.9595,-6.915,-6.8927,-6.7651,-6.7094,-6.702,-6.6202,-6.5422,-6.4768,-6.4619,-6.4545,-6.447,-6.3862,-6.3602,-6.349,-6.2673,-6.2301,-6.193,-6.0385,-5.9812,-5.9552,-5.8921,-5.8141,-5.7323,-5.6543,-5.5689,-5.4834,-5.4017,-5.3794,-5.3608,-5.2791,-5.1974,-5.1156,-5.0302,-4.9968,-4.993,-5.0079,-4.9968,-4.993,-5.0079,-4.9447,-4.889,-4.889,-4.8073,-4.7218,-4.6587,-4.5658,-4.4766,-4.4098,-4.3986,-4.3986,-4.3986,-4.3392,-4.302,-4.302,-4.2594,-4.238,-4.2397,-4.2598,-4.2709,-4.2648,-4.2838,-4.2959,-4.3031,-4.3214,-4.3713,-4.4547,-4.4547,-4.4547,-5.3472,-5.5654,-5.8617,-5.8745,-5.9789,-6.0599,0.0,0.0,-6.006,-6.1538,-6.3095,-6.4649,-6.6176,-6.8188,-6.9934,-7.0784,-7.2929,-7.429,-7.3733,-7.429,-7.4513,-7.3907,-7.5097,-7.5989,-7.5989,-7.5915,-7.5517,-7.4811,-7.4736,-7.4413,-7.3733,-7.3584,-7.3212,-7.2506,-7.2395,-7.1961,-7.1192,-7.1081,-7.1044,-7.1044,-7.0227,-6.9447,-6.8741,-6.7948,-6.7205,-6.65,-6.6314,-6.6239,-6.6165,-6.5287,-6.4879,-6.473,-6.3988,-6.375,-6.3713,-6.3639,-6.3602,-6.349,-6.2673,-6.193,-6.1187,-6.02,-5.9441,-5.8846,-5.8735,-5.8141,-5.7323,-5.6543,-5.5689,-5.4834,-5.4017,-5.3794,-5.3608,-5.2791,-5.1974,-5.1156,-5.0302,-4.9559,-4.9262,-4.9968,-4.9522,-4.9262,-4.9968,-4.9447,-4.889,-4.889,-4.7627,-4.6587,-4.6513,-4.5138,-4.4098,-4.4023,-4.3986,-4.3986,-4.3986,-4.3912,-4.3875,-4.3875,-4.3968,-4.3755,-4.3106,-4.3901,-4.3952,-4.3147,-4.4058,-4.4562,-4.4559,-4.4876,-4.517,-4.5441,-4.5441,-4.5441,-5.778,-5.958,-6.185,-6.2836,-6.3962,-6.4755,-6.4358,-6.3949,-6.4024,-6.56,-6.6666,-6.758,-6.8564,-6.9566,-7.0278,0.0,-7.246,-7.3621,-7.2804,-7.3398,-7.3595,-7.2804,-7.2852,-7.3335,-7.4301,-7.4375,-7.4264,-7.393,-7.3892,-7.3547,-7.2767,-7.2692,-7.2295,-7.1478,-7.1441,-7.1292,-7.0895,-7.045,-7.019,-7.019,-6.889,-6.811,-6.78,-6.6982,-6.6165,-6.5325,-6.5325,-6.5088,-6.4642,-6.427,-6.4099,-6.4062,-6.375,-6.3602,-6.3602,-6.3602,-6.3305,-6.2784,-6.2004,-6.115,-6.0333,-5.9478,-5.8995,-5.8624,-5.8141,-5.7435,-5.6617,-5.58,-5.528,-5.4834,-5.4017,-5.4166,-5.4054,-5.2308,-5.1639,-5.1045,-4.9707,-4.9522,-4.9856,-5.0711,-5.019,-4.9893,-5.0711,-4.9373,-4.8184,-4.8184,-4.7218,-4.6327,-4.5844,-4.4766,-4.3986,-4.3986,-4.3986,-4.3986,-4.3986,-4.3986,-4.3986,-4.3986,-4.4147,-4.4117,-4.3849,-4.4224,-4.4224,-4.3863,-4.4363,-4.4661,-4.4739,-4.5042,-4.5319,-4.555,-4.555,-4.5568,-6.0435,-6.2204,-6.4012,-6.5513,-6.6859,-6.7744,-6.7513,-6.7205,-6.7218,-6.8112,-6.8785,-6.9234,-6.9417,-6.9814,-7.0122,-7.0007,-7.1658,-7.2609,-7.1802,-7.2149,-7.2174,-7.133,-7.0834,-7.1069,-7.2258,-7.2555,-7.2704,-7.2704,-7.2704,-7.2444,-7.1849,-7.1849,-7.1441,-7.0598,-7.0561,-7.045,-7.0227,-6.967,-6.9261,-6.9001,-6.785,-6.7057,-6.6574,-6.5794,-6.5088,-6.447,-6.447,-6.4136,-6.3602,-6.3602,-6.3602,-6.3602,-6.3602,-6.3453,-6.3267,-6.3267,-6.2896,-6.2264,-6.1224,-6.0444,-5.9754,-5.8958,-5.8698,-5.8549,-5.7732,-5.6952,-5.6134,-5.5243,-5.4834,-5.4537,-5.3943,-5.424,-5.4128,-5.1936,-5.1416,-5.0933,-4.9262,-4.9373,-5.0079,-5.1193,-5.0525,-5.0116,-5.1193,-4.9336,-4.7627,-4.7404,-4.6661,-4.5955,-4.5361,-4.4544,-4.3986,-4.3986,-4.3986,-4.3986,-4.3986,-4.3986,-4.3986,-4.3986,-4.4085,-4.4177,-4.4206,-4.4237,-4.4237,-4.4221,-4.4383,-4.4486,-4.4612,-4.4912,-4.5164,-4.5419,-4.5448,-4.5532,-6.0127,-6.2627,-6.4782,-6.5667,-6.7782,-6.9398,-6.8552,-6.9013,-6.9333,-6.8496,-6.8872,-6.9046,-6.7992,-6.8901,-6.9756,-6.9556,-7.0739,-7.1351,-7.0488,-7.0261,-6.9845,-6.8921,-6.9359,-6.9744,-6.9781,-7.0524,-7.097,-7.097,-7.097,-7.097,-7.0932,-7.0932,-7.0561,-6.9744,-6.9744,-6.9335,-6.8556,-6.8556,-6.8134,-6.7391,-6.7317,-6.6462,-6.4842,-6.4025,-6.3676,-6.3639,-6.3639,-6.3616,-6.3602,-6.3602,-6.3602,-6.3602,-6.3602,-6.3119,-6.245,-6.245,-6.2413,-6.2153,-6.0497,-5.9903,-5.9754,-5.8958,-5.8698,-5.8549,-5.7732,-5.6952,-5.6134,-5.5243,-5.4463,-5.3831,-5.3831,-5.3831,-5.3423,-5.1788,-5.1416,-5.0933,-4.9262,-4.8927,-4.941,-5.1082,-5.0079,-4.9447,-5.1119,-4.9336,-4.7441,-4.6661,-4.5844,-4.5324,-4.5287,-4.4544,-4.3986,-4.3986,-4.3986,-4.3986,-4.3986,-4.3986,-4.3986,-4.3986,-4.3986,-4.3986,-4.4002,-4.4002,-4.4002,-4.4002,-4.4207,-4.4331,-4.4397,-4.4751,-4.5019,-4.5211,-4.5361,-4.5457,-6.1781,-6.432,-6.6474,-6.7359,-6.9052,-7.0437,-7.0129,-6.986,-6.9462,-6.855,-6.7691,-6.6946,-6.6461,-6.6605,-6.714,-6.8139,-6.9436,-7.0221,-6.9875,-7.0035,-6.9911,-6.899,-6.8897,-6.889,-6.889,-7.0115,0.0,-7.0895,-7.0895,-7.0672,-7.0115,-7.0078,-6.9744,-6.8927,-6.889,-6.8518,-6.7725,-6.7725,-6.7317,-6.65,-6.5942,-6.5088,-6.401,-6.3713,-6.3602,-6.3602,-6.3602,-6.3602,-6.3602,-6.3602,-6.3305,-6.2822,-6.2822,-6.2301,-6.1521,-6.0964,-6.0741,-6.0667,-6.011,-5.9552,-5.9069,-5.8809,-5.8364,-5.7769,-5.6952,-5.6097,-5.528,-5.4463,-5.4388,-5.4463,-5.3943,-5.3794,-5.3385,-5.1788,-5.0971,-5.0228,-4.915,-4.889,-4.941,-5.1082,-5.0042,-4.9447,-5.1119,-4.889,-4.6438,-4.5064,-4.4618,-4.4432,-4.4432,-4.4172,-4.3986,-4.3986,-4.3986,-4.4246,-4.4804,-4.4321,-4.4246,-4.4841,-4.4321,-4.3986,-4.3986,-4.4085,-4.4131,-4.4192,-4.4296,-4.4426,-4.4527,-4.4764,-4.4948,-4.5148,-4.5301,-4.5467,-6.3551,-6.5859,-6.7782,-6.8667,-6.9898,-7.0821,-7.0552,-6.9821,-6.8821,-6.7359,-6.5705,-6.4423,-6.4001,-6.3981,-6.4588,-6.6208,-6.7918,-6.9149,-6.9304,-6.9808,-6.9901,-6.9219,-6.8846,-6.8589,-6.8578,-6.9434,0.0,-7.0041,-7.0041,-6.9818,-6.9298,-6.9261,-6.9038,-6.8518,-6.8221,-6.7837,-6.7317,-6.702,-6.6462,-6.5645,-6.4768,-6.4099,-6.3602,-6.3602,-6.3453,-6.3193,-6.3193,-6.3007,-6.2747,-6.2747,-6.245,-6.1967,-6.1967,-6.1484,-6.0667,-6.011,-5.9738,-5.9457,-5.9457,-5.9144,-5.8661,-5.8364,-5.7918,-5.7286,-5.6172,-5.5466,-5.4834,-5.4054,-5.4166,-5.4463,-5.3943,-5.3608,-5.3051,-5.1714,-5.0748,-4.9893,-4.9076,-4.889,-4.9299,-5.0673,-4.9819,-4.9336,-5.0711,-4.8481,-4.5918,-4.4246,-4.3986,-4.3986,-4.3986,-4.3986,-4.3986,-4.3986,-4.3986,-4.4358,-4.5212,-4.4506,-4.4358,-4.5249,-4.4469,-4.3986,-4.3986,-4.4131,-4.4289,-4.4317,-4.444,-4.4496,-4.4527,-4.47,-4.4876,-4.4988,-4.5267,-4.5429,-6.5359,-6.7282,-6.8783,-6.959,-7.0283,-7.0629,-6.9821,-6.8898,-6.7475,-6.4936,-6.3012,-6.15,0.0,0.0,-6.2117,-6.381,-6.62,-6.8117,-6.8811,-6.9433,-6.9739,0.0,0.0,0.0,0.0,0.0,0.0,-6.8481,0.0,-6.8481,-6.8481,-6.8444,-6.8444,-6.8444,-6.7688,-6.7243,-6.7168,-6.6388,-6.5571,-6.473,-6.3973,-6.3602,-6.3602,-6.3565,-6.3119,-6.2413,-6.2376,-6.193,-6.1187,-6.1187,-6.1187,-6.115,-6.115,-6.0593,-5.9828,-5.9828,-5.9367,-5.8698,-5.8661,-5.8661,-5.8512,-5.7806,-5.7472,-5.71,-5.5503,-5.4983,-5.4797,-5.4017,-5.3794,-5.3794,-5.3794,-5.3162,-5.2345,-5.1565,-5.0711,-4.9819,-4.9076,-4.889,-4.915,-4.993,-4.9485,-4.915,-4.9819,-4.8036,-4.5918,-4.4246,-4.3986,-4.3986,-4.3986,-4.3986,-4.3986,-4.3986,-4.3986,-4.4358,-4.5212,-4.4506,-4.4358,-4.5249,-4.4469,-4.3986,-4.3986,-4.4192,-4.4317,-4.4397,-4.4541,-4.4541,-4.4411,-4.4687,-4.4814,-4.4812,-4.5143,-4.54,-6.7398,-6.9475,-7.1129,-7.0706,-7.0283,-6.9783,-6.8936,-6.709,-6.4859,-6.2281,-5.9396,-5.7242,0.0,0.0,0.0,-6.217,-6.5269,0.0,-6.9144,-6.9824,0.0,-6.9947,0.0,-6.8997,-6.8923,-6.866,0.0,0.0,-6.8481,-6.8481,-6.8481,-6.7948,-6.7614,-6.7614,-6.6834,-6.6091,-6.5436,-6.4642,-6.4122,-6.3899,-6.3713,-6.3602,-6.3602,-6.297,-6.2599,-6.2376,-6.1781,-6.141,-6.1187,-6.1187,-6.0815,-6.0221,-6.0221,-5.9738,-5.9032,-5.9032,-5.8884,-5.8624,-5.8029,-5.7806,-5.7881,-5.8289,-5.7138,-5.5577,-5.5131,-5.4574,-5.4054,-5.3868,-5.3794,-5.3794,-5.3794,-5.2754,-5.1639,-5.1454,-5.0265,-4.915,-4.8927,-4.889,-4.915,-4.993,-4.993,-4.9299,-4.7701,-4.6921,-4.5918,-4.4246,-4.3986,-4.3986,-4.3986,-4.3986,-4.3986,-4.3986,-4.3986,-4.4358,-4.5212,-4.4506,-4.4358,-4.5249,-4.4469,-4.3986,-4.3986,-4.4252,-4.4416,-4.4533,-4.4687,-4.4776,-4.4777,-4.4876,-4.4948,-4.4943,-4.5256,-4.5477,-6.8859,-7.0552,-7.1898,-7.0667,-6.9744,-6.8706,-6.709,-6.4743,-6.2089,-5.9165,-5.5857,-5.3587,-5.3972,-5.4434,-5.6011,0.0,0.0,0.0,-6.8098,-6.9259,-6.9993,0.0,-6.972,0.0,-6.9251,-6.8983,-6.8777,0.0,-6.8602,-6.8333,-6.7986,-6.7577,-6.7168,-6.6797,-6.5979,-6.5125,-6.4285,-6.3802,-6.3602,-6.3602,-6.3602,-6.3416,-6.3082,-6.2636,-6.2004,-6.1298,-6.0853,-6.0444,-6.011,-6.011,-5.9812,-5.9367,-5.9367,-5.9329,-5.9255,-5.9255,-5.8995,-5.8698,-5.8586,-5.7621,-5.6469,-5.6952,-5.6134,-5.4946,-5.4574,-5.4166,-5.3794,-5.3794,-5.3794,-5.3794,-5.3794,-5.2605,-5.1416,-5.1416,-5.0116,-4.889,-4.889,-4.889,-4.9039,-4.9485,-4.9856,-4.9447,-4.7367,-4.7033,-4.6475,-4.4804,-4.4246,-4.3986,-4.3986,-4.3986,-4.3986,-4.3986,-4.3986,-4.4358,-4.5212,-4.4506,-4.4358,-4.5249,-4.4469,-4.3986,-4.3986,-4.4296,-4.4513,-4.4676,-4.4888,-4.4984,-4.5042,-4.5148,-4.5143,-4.5105,-4.5301,-4.5477,-6.9937,-7.1091,-7.1937,-7.0167,-6.8975,-6.7552,-6.4859,-6.2127,-5.9165,-5.5742,-5.2366,-5.0279,-5.1077,-5.1423,-5.2923,-5.7126,0.0,-6.3988,-6.6345,-6.8287,-6.9628,-7.0119,-6.9997,-6.9778,-6.9584,-6.9399,-6.9209,-6.91,-6.8665,-6.8095,-6.7378,-6.7094,-6.6611,-6.5794,-6.5028,-6.4285,-6.3602,-6.3602,-6.3602,-6.3602,-6.3602,-6.3193,-6.2413,-6.2301,-6.1373,-5.9865,-5.9812,-5.9367,-5.8698,-5.8698,-5.8772,-5.8884,-5.8884,-5.9367,-6.0072,-6.0072,-5.9515,-5.8772,-5.9383,-5.7583,-5.502,-5.5131,-5.502,-5.4723,-5.4017,-5.3794,-5.3794,-5.3794,-5.3794,-5.3794,-5.3794,-5.2605,-5.1416,-5.1416,-5.0116,-4.889,-4.889,-4.889,-4.889,-4.889,-4.9447,-4.9447,-4.7961,-4.7701,-4.7144,-4.5547,-4.4655,-4.4135,-4.4023,-4.3986,-4.3986,-4.3986,-4.3986,-4.4321,-4.5064,-4.4432,-4.4321,-4.5064,-4.4432,-4.3986,-4.3986,-4.4325,-4.4568,-4.4776,-4.5042,-4.5175,-4.5211,-4.5339,-4.535,-4.5232,-4.5371,-4.5466,-7.1091,-7.1975,-7.2706,-7.0321,-6.8513,-6.6474,-6.3294,-5.9435,0.0,0.0,-4.8865,-4.674,-4.7625,-4.8894,-5.101,-5.4587,-5.9165,-6.2935,-6.4757,-6.7679,-6.9662,0.0,-6.9986,-7.0171,-7.0088,-6.9796,0.0,0.0,-6.8575,-6.7838,-6.7482,-6.6063,-6.4842,-6.4085,-6.3899,-6.3728,-6.3602,-6.3602,-6.3602,-6.3602,-6.3602,-6.3193,-6.2376,-6.1707,-6.0853,-5.9865,-5.9218,0.0,-5.8698,-5.8698,-5.9107,-5.9701,-5.9701,-6.0221,-6.0964,-6.0964,-5.9998,-5.8624,-5.8103,-5.6655,-5.5131,-5.5837,-5.5131,-5.398,-5.3831,-5.3794,-5.3794,-5.3794,-5.3794,-5.3794,-5.3794,-5.2605,-5.1416,-5.1416,-5.0116,-4.889,-4.889,-4.889,-4.889,-4.889,-4.9002,-4.8816,-4.785,-4.7701,-4.7144,-4.5547,-4.5175,-4.4804,-4.4098,-4.3986,-4.3986,-4.3986,-4.3986,-4.4061,-4.4209,-4.4098,-4.4061,-4.4209,-4.4098,-4.3986,-4.3986,-4.4281,-4.4513,-4.4701,-4.4936,-4.5148,-4.535,-4.5398,-4.538,-4.5381,-4.5438,-4.5541,-7.136,-7.2168,-7.2783,-6.9783,-6.7398,-6.4897,-6.1512,0.0,0.0,0.0,-4.6663,-4.4547,-4.5393,-4.6586,0.0,-5.1972,-5.6434,-6.0358,-6.2935,-6.6205,0.0,-6.9404,-7.0118,-7.0477,0.0,-7.0175,-6.9827,-6.9264,-6.8205,-6.7416,-6.6986,-6.5188,-6.401,-6.3602,-6.3602,-6.3602,-6.3602,-6.3602,-6.3416,-6.297,-6.297,-6.2339,-6.1113,-6.0704,-6.0072,-5.9255,-5.8884,-5.8958,-5.9329,-5.9329,-5.9812,-6.0593,-6.0593,-6.1113,-6.1781,-6.1373,-6.0147,-5.8586,-5.7769,-5.6134,-5.4463,-5.4871,-5.4463,-5.3794,-5.3794,-5.3794,-5.3794,-5.3794,-5.3794,-5.3794,-5.3794,-5.2605,-5.1416,-5.1416,-5.0116,-4.889,-4.889,-4.889,-4.889,-4.889,-4.9262,-4.9262,-4.8444,-4.8333,-4.7924,-4.6735,-4.5844,-4.5138,-4.4729,-4.4283,-4.3986,-4.3986,-4.3986,-4.3986,-4.3986,-4.3986,-4.3986,-4.3986,-4.3986,-4.3986,-4.3986,-4.4222,-4.4402,-4.4533,-4.4814,-4.5053,-4.5281,-4.538,-4.5448,-4.5485,-4.555,-4.5568,-7.1321,-7.2168,-7.2692,-6.9231,-6.6474,-6.3666,-6.005,-5.5164,0.0,0.0,-4.4893,-4.2777,-4.3624,-4.447,-4.6133,0.0,-5.328,-5.7088,-6.0523,-6.4205,-6.7192,0.0,-7.0028,0.0,-7.0586,-7.0524,0.0,-6.9082,-6.7832,-6.673,-6.5977,-6.4494,-6.3624,-6.3602,-6.3602,-6.3602,-6.3602,-6.3602,-6.3193,-6.2413,-6.2413,-6.1521,-5.9903,-5.9903,-5.9478,-5.8698,-5.8698,-5.9181,-5.9903,-5.9903,-6.0518,-6.1484,-6.1484,-6.1856,-6.2339,-6.1707,-6.0184,-5.8364,-5.7732,-5.5874,-5.3794,-5.3794,-5.3794,-5.3794,-5.3794,-5.3794,-5.3794,-5.3794,-5.3794,-5.3794,-5.3794,-5.2605,-5.1305,-5.0933,-4.9856,-4.889,-4.889,-4.889,-4.889,-4.889,-4.941,-4.9633,-4.9002,-4.889,-4.863,-4.7813,-4.6624,-4.5695,-4.5324,-4.4841,-4.4469,-4.4283,-4.4098,-4.3986,-4.3986,-4.3986,-4.3986,-4.3986,-4.3986,-4.3986,-4.3986,-4.4177,-4.4325,-4.4369,-4.4687,-4.4948,-4.5169,-4.5311,-4.5534,-4.5846,-4.5846,-4.5962,-7.1168,-7.2168,-7.2692,-6.9231,-6.6474,-6.3512,-5.9358,0.0,-4.8894,-4.6364,-4.3094,-4.1016,-4.1854,-4.2739,-4.4201,-4.6817,0.0,-5.3549,-5.6983,-6.1704,-6.5436,-6.7128,0.0,0.0,-7.0871,-7.0857,-7.0483,-6.9515,-6.7544,-6.5744,-6.4224,-6.392,-6.3714,-6.3602,-6.3602,-6.3602,-6.3602,-6.3602,-6.3193,-6.2413,-6.2413,-6.1521,-5.9903,-5.9903,-5.9478,-5.8698,-5.8698,-5.9181,0.0,-5.9903,-6.0853,-6.2301,-6.2301,-6.2339,-6.2413,-6.2339,-6.0295,-5.7621,-5.7546,-5.5874,-5.3794,-5.3794,-5.3794,-5.3794,-5.3794,-5.3794,-5.3794,-5.3794,-5.3794,-5.3794,-5.3794,-5.2605,-5.1008,-4.9485,-4.9002,-4.889,-4.889,-4.889,-4.889,-4.889,-4.8964,-4.9002,-4.8927,-4.889,-4.863,-4.7813,-4.7553,-4.6958,-4.5472,-4.5881,-4.5992,-4.5249,-4.4469,-4.3986,-4.3986,-4.3986,-4.3986,-4.3986,-4.3986,-4.3986,-4.3986,-4.4116,-4.4237,-4.4322,-4.4513,-4.4802,-4.5125,-4.5192,-4.5712,-4.6704,-4.6704,-4.7117,-7.0283,-7.1437,-7.1898,-6.8475,-6.5705,-6.2704,-5.8462,0.0,-4.8048,-4.6018,-4.2863,-4.0593,-4.0931,-4.1739,-4.297,-4.5009,-4.774,-5.101,-5.4934,-5.8973,-6.2358,-6.4551,-6.6628,0.0,0.0,0.0,-6.8408,-6.7894,-6.6363,-6.5102,-6.4247,-6.4042,-6.3867,-6.3602,-6.3602,-6.3602,-6.3602,-6.3602,-6.297,-6.167,-6.167,-6.0815,-5.9181,-5.9181,-5.8995,-5.8735,-5.9218,-5.9627,0.0,-6.0481,-6.1076,-6.167,-6.167,-6.167,-6.1633,-6.1113,-5.9441,-5.7435,-5.6952,-5.5466,-5.3794,-5.3794,-5.3794,-5.3794,-5.3794,-5.3794,-5.3794,-5.3794,-5.3794,-5.3794,-5.3794,-5.2605,-5.0971,-4.9299,-4.889,-4.889,-4.889,-4.889,-4.889,-4.889,-4.889,-4.889,-4.889,-4.889,-4.8779,-4.8481,-4.7999,-4.7478,-4.681,-4.6587,-4.6364,-4.6067,-4.5695,-4.5324,-4.4804,-4.4766,-4.4544,-4.4023,-4.4506,-4.4766,-4.4766,-4.5281,-4.5366,-4.4922,-4.5073,-4.4974,-4.4688,-4.5393,-4.6035,-4.6643,-4.7202,-4.7693,-6.8783,-7.0167,-7.0706,-6.7513,-6.482,-6.182,0.0,-5.2202,-4.7548,-4.5624,-4.2709,-4.0516,-4.0516,-4.1008,-4.1893,-4.3316,-4.547,-4.8279,-5.2087,-5.5934,0.0,0.0,0.0,-6.5436,0.0,-6.6577,-6.6702,-6.6742,-6.5634,-6.4761,-6.4366,-6.4186,-6.3953,-6.3602,-6.3602,-6.3602,-6.3602,-6.3602,-6.2784,-6.1187,-6.1187,-6.0333,-5.8698,-5.8698,-5.8698,-5.8735,-5.9292,-5.968,0.0,-6.0555,-6.0964,-6.1187,-6.1187,-6.1038,-6.0741,-6.0147,-5.8735,-5.7063,-5.6506,-5.5206,-5.3794,-5.3794,-5.3794,-5.3794,-5.3794,-5.3794,-5.3794,-5.3794,-5.3794,-5.3683,-5.32,-5.2234,-5.0971,-4.9299,-4.889,-4.889,-4.889,-4.889,-4.889,-4.889,-4.889,-4.889,-4.889,-4.889,-4.889,-4.889,-4.8407,-4.7961,-4.7738,-4.7404,-4.7107,-4.6884,-4.707,-4.6773,-4.5732,-4.5658,-4.5398,-4.4766,-4.5324,-4.5658,-4.5658,-4.6178,-4.6215,-4.5658,-4.5764,-4.5582,-4.5106,-4.5957,-4.6644,-4.7182,-4.7881,-4.8419,-6.6667,-6.8398,-6.9129,-6.6551,-6.4012,-6.0985,-5.6703,-5.1741,-4.7394,-4.4855,-4.2285,-4.0516,-4.0516,-4.0516,-4.0785,-4.17,-4.3239,-4.524,-4.7817,-5.2549,0.0,0.0,0.0,-6.3666,-6.4551,-6.5333,-6.6019,-6.6552,-6.5693,0.0,-6.4249,-6.4145,-6.3953,-6.3602,-6.3602,-6.3602,-6.3602,-6.3602,-6.2784,-6.1187,-6.1187,-6.0333,-5.8698,-5.8698,-5.8698,-5.8698,-5.8735,-5.9181,0.0,-5.9924,-6.0444,-6.1187,-6.1187,-6.0667,-5.9924,-5.9903,-5.8401,-5.632,-5.632,-5.5206,-5.3794,-5.3794,-5.3794,-5.3794,-5.3794,-5.3794,-5.3794,-5.3794,-5.3794,-5.3423,-5.1825,-5.1416,-5.0971,-4.9299,-4.889,-4.889,-4.889,-4.889,-4.889,-4.889,-4.889,-4.889,-4.889,-4.889,-4.889,-4.889,-4.889,-4.8593,-4.7813,-4.8407,-4.8556,-4.7776,-4.8407,-4.8221,-4.6624,-4.6475,-4.6475,-4.6475,-4.6475,-4.6475,-4.6475,-4.6513,-4.6513,-4.6475,-4.6557,-4.6647,-4.6765,-4.6928,-4.761,-4.8795,-4.8855,-4.9476,-6.4051,-6.5359,-6.5743,-6.3782,-6.1396,-5.855,-5.4818,-5.051,-4.6701,-4.4701,-4.2285,-4.0516,-4.0516,-4.0516,-4.0977,-4.247,-4.3124,0.0,0.0,0.0,0.0,-5.7126,-6.0896,-6.3423,0.0,0.0,-6.5709,-6.5847,-6.5308,-6.4779,-6.4366,-6.4104,-6.383,-6.3602,-6.3602,-6.3602,-6.3602,-6.3602,-6.2784,-6.1187,-6.1187,-6.0333,-5.8698,-5.8698,-5.8698,-5.8735,-5.9292,-5.9346,-5.9144,-5.9664,-5.9738,-5.9478,-5.9478,-5.8995,-5.8252,-5.8252,-5.7063,-5.5429,-5.5429,-5.4723,-5.3794,-5.3794,-5.3794,-5.3794,-5.3794,-5.3794,-5.3794,-5.3794,-5.3794,-5.3423,-5.1825,-5.1416,-5.0971,-4.9299,-4.889,-4.889,-4.889,-4.889,-4.889,-4.889,-4.889,-4.889,-4.889,-4.889,-4.889,-4.889,-4.889,-4.8816,-4.8556,-4.8742,-4.8816,-4.8556,-4.8742,-4.8481,-4.7404,-4.733,-4.7107,-4.6513,-4.7033,-4.733,-4.733,-4.785,-4.7887,-4.733,-4.7363,-4.7099,-4.6605,-4.7339,-4.8332,-4.958,-4.9694,-5.0073,-6.0204,-6.155,-6.182,-6.0089,-5.8242,-5.5972,-5.2549,-4.9009,-4.5932,-4.4201,-4.2055,-4.0516,-4.0516,-4.0516,-4.0977,-4.2393,-4.2893,-4.4355,0.0,0.0,0.0,-5.8011,0.0,0.0,0.0,-6.4436,-6.5249,-6.5427,-6.5155,-6.4779,-6.4366,-6.4104,-6.3739,-6.3156,-6.3453,-6.3453,-6.3156,-6.3156,-6.2339,-6.0704,-6.0704,-5.9998,-5.8698,-5.8698,-5.8698,-5.8735,-5.9255,-5.9181,0.0,-5.9255,-5.9144,-5.8698,-5.8698,-5.8215,-5.7509,-5.7509,-5.6432,-5.502,-5.502,-5.4463,-5.3794,-5.3794,-5.3794,-5.3794,-5.3794,-5.3794,-5.3794,-5.3794,-5.3794,-5.3423,-5.1825,-5.1416,-5.0971,-4.9299,-4.889,-4.889,-4.889,-4.889,-4.889,-4.889,-4.889,-4.889,-4.889,-4.889,-4.889,-4.889,-4.889,-4.889,-4.889,-4.889,-4.889,-4.889,-4.889,-4.8704,-4.8184,-4.8147,-4.7924,-4.7441,-4.7887,-4.8147,-4.8147,-4.863,-4.8667,-4.8147,-4.8147,-4.7924,-4.7404,-4.8156,-4.8927,-4.9769,-5.0038,-5.0221,0.0,-5.7165,-5.755,-5.5934,-5.4857,-5.3356,-4.9971,-4.7278,0.0,-4.3355,-4.1662,-4.0516,-4.0516,-4.0516,-4.0823,-4.1739,-4.2624,-4.4085,0.0,-5.0818,0.0,0.0,-6.1704,0.0,-6.332,-6.4142,-6.4816,-6.5291,-6.5198,-6.4827,-6.4156,-6.4053,-6.3488,-6.2339,-6.3044,-6.3082,-6.2339,-6.2301,-6.1521,-5.9903,-5.9903,-5.9478,-5.8698,-5.8698,-5.8698,0.0,-5.8698,-5.8698,-5.8698,-5.8698,-5.8661,-5.8624,-5.8624,-5.8103,-5.7323,-5.7323,-5.632,-5.4909,-5.4909,-5.4426,-5.3794,-5.3794,-5.3794,-5.3794,-5.3794,-5.3794,-5.3794,-5.3794,-5.3794,-5.3423,-5.1825,-5.1416,-5.0971,-4.9299,-4.889,-4.889,-4.889,-4.889,-4.889,-4.889,-4.889,-4.889,-4.889,-4.889,-4.889,-4.889,-4.889,-4.889,-4.889,-4.889,-4.889,-4.889,-4.889,-4.889,-4.889,-4.889,-4.889,-4.889,-4.889,-4.889,-4.889,-4.889,-4.889,-4.889,-4.889,-4.889,-4.889,-4.9144,-4.9352,-4.9484,-4.9879,-5.0089,-5.0587,0.0,-5.4318,-5.3895,-5.2664,-5.0856,0.0,-4.6009,-4.4124,-4.247,-4.1239,-4.0516,-4.0516,-4.0516,-4.1016,-4.2547,-4.347,-4.5124,-4.8355,0.0,0.0,-6.1408,-6.3089,-6.4089,-6.4282,-6.5026,-6.5509,-6.5513,-6.5307,-6.4681,-6.3578,-6.3349,-6.2711,-6.1521,-6.167,-6.167,-6.1484,-6.1484,-6.0964,-5.9903,-5.9903,-5.9478,-5.8698,-5.8698,-5.8698,-5.8698,-5.8698,-5.8698,-5.8698,-5.8698,-5.8364,-5.7769,-5.7769,-5.6878,-5.5614,-5.5614,-5.4946,-5.4091,-5.4091,-5.398,-5.3794,-5.3794,-5.3794,-5.3794,-5.3794,-5.3794,-5.3794,-5.3794,-5.3794,-5.3423,-5.1825,-5.1416,-5.0971,-4.9299,-4.889,-4.889,-4.889,-4.889,-4.889,-4.889,-4.889,-4.889,-4.889,-4.889,-4.889,-4.889,-4.889,-4.889,-4.889,-4.889,-4.889,-4.889,-4.889,-4.889,-4.889,-4.889,-4.889,-4.889,-4.889,-4.889,-4.889,-4.889,-4.889,-4.889,-4.889,-4.889,-4.889,-4.8959,-4.9077,-4.9273,-4.9476,-4.9726,-4.8355,-5.0087,-5.1356,-5.0971,-4.9894,-4.8394,-4.6201,-4.4393,-4.2893,-4.2,0.0,-4.0516,-4.0516,-4.117,-4.2124,-4.3431,-4.5009,0.0,0.0,0.0,-6.0819,-6.2974,-6.4397,-6.5051,0.0,-6.4975,-6.5051,-6.459,-6.4336,-6.3809,-6.2834,-6.2635,-6.1953,-6.063,-6.0593,-6.0593,-6.0593,-6.0593,-6.0184,-5.9346,-5.9346,-5.9144,-5.8698,-5.8698,-5.8698,-5.8698,-5.8698,-5.8698,-5.8698,-5.8698,-5.8252,-5.7509,-5.7509,-5.6469,-5.502,-5.502,-5.45,-5.3794,-5.3794,-5.3794,-5.3794,-5.3794,-5.3794,-5.3794,-5.3794,-5.3794,-5.3794,-5.3794,-5.3534,-5.2977,-5.1714,-5.1119,-5.0525,-4.9224,-4.889,-4.889,-4.889,-4.889,-4.889,-4.889,-4.889,-4.889,-4.889,-4.889,-4.889,-4.889,-4.889,-4.889,-4.889,-4.889,-4.889,-4.889,-4.889,-4.889,-4.889,-4.889,-4.889,-4.889,-4.889,-4.889,-4.889,-4.889,-4.889,-4.889,-4.889,-4.889,-4.889,-4.889,-4.8996,-4.9148,-4.9273,-4.9679,-4.7625,-4.8625,-4.9048,-4.8471,-4.7894,-4.6971,-4.4932,0.0,0.0,0.0,0.0,0.0,0.0,-4.2277,0.0,0.0,0.0,0.0,-5.6445,-6.0023,-6.2666,-6.4205,-6.5282,0.0,-6.4666,-6.4589,-6.4243,-6.3346,-6.3194,-6.2768,-6.2041,-6.1873,-6.1168,-5.9759,-5.9738,-5.9738,-5.9738,-5.9738,-5.9367,-5.8698,-5.8698,-5.8698,-5.8698,-5.8698,-5.8698,-5.8698,-5.8698,0.0,-5.8512,-5.8512,-5.7955,-5.7138,-5.7138,-5.6172,-5.4834,-5.4834,-5.4388,-5.3794,-5.3794,-5.3794,-5.3794,-5.3794,-5.3794,-5.3794,-5.3794,-5.3794,-5.3794,-5.3794,-5.3311,-5.2605,-5.1788,-5.1082,-5.0339,-4.9485,-4.9299,-4.9299,-4.9299,-4.9299,-4.9299,-4.9299,-4.9299,-4.9299,-4.9299,-4.9299,-4.9262,-4.9113,-4.9076,-4.9039,-4.8927,-4.889,-4.889,-4.889,-4.889,-4.889,-4.889,-4.889,-4.889,-4.889,-4.889,-4.889,-4.889,-4.889,-4.889,-4.889,-4.889,-4.889,-4.889,-4.889,-4.8999,-4.9271,-4.9384,-4.9958,-4.7432,-4.8202,-4.8432,-4.9048,-4.9663,-4.9288,-4.6133,-4.521,0.0,0.0,0.0,0.0,0.0,-4.3932,-4.4855,0.0,0.0,-5.4587,0.0,0.0,-6.2435,-6.3397,0.0,-6.5551,-6.4666,-6.4589,-6.4243,-6.3346,-6.3194,-6.2538,-6.1261,-6.1059,-6.0342,-5.8942,-5.8884,-5.8884,-5.8884,-5.8884,-5.8846,-5.8698,-5.8698,-5.8698,-5.8698,-5.8698,-5.8698,-5.8698,0.0,-5.8326,-5.7695,-5.7695,-5.6803,-5.5391,-5.5391,-5.4834,-5.398,-5.398,-5.3905,-5.3794,-5.3794,-5.3794,-5.3794,-5.3794,-5.3794,-5.3794,-5.3794,-5.3794,-5.3794,-5.3794,-5.372,-5.3423,-5.2605,-5.2308,-5.2048,-5.1193,-5.1008,-5.1008,-5.1008,-5.1008,-5.1008,-5.1008,-5.1008,-5.1008,-5.1008,-5.1008,-5.0785,-5.0042,-4.993,-4.967,-4.9002,-4.889,-4.889,-4.889,-4.889,-4.889,-4.889,-4.889,-4.889,-4.889,-4.889,-4.889,-4.889,-4.889,-4.889,-4.889,-4.889,-4.889,-4.889,-4.889,-4.9262,-4.9948,-4.9983,-5.0534,-4.6894,-4.7778,-4.8317,-4.9163,-5.0048,-5.0058,-4.7509,-4.6624,-4.5932,0.0,0.0,0.0,0.0,0.0,-4.8202,-5.1664,0.0,-5.7126,-5.8704,-6.0781,-6.2255,0.0,0.0,-6.4166,-6.332,-6.3243,-6.2897,-6.2012,-6.1812,-6.1353,-6.0411,-6.0172,-5.9647,-5.8756,-5.8698,-5.8698,-5.8698,-5.8698,-5.8698,-5.8698,-5.8698,-5.8698,-5.8698,-5.8698,-5.8698,-5.8698,0.0,-5.8252,-5.7509,-5.7509,-5.6506,-5.502,-5.502,-5.45,-5.3794,-5.3794,-5.3794,-5.3794,-5.3794,-5.3794,-5.3794,-5.3794,-5.3794,-5.3794,-5.3794,-5.3794,-5.3794,-5.3794,-5.3497,-5.3088,-5.2717,-5.2271,-5.1862,-5.1491,-5.1416,-5.1416,-5.1416,-5.1416,-5.1416,-5.1416,-5.1416,-5.1416,-5.1416,-5.1416,-5.1268,-5.0859,-5.0822,-5.0673,-5.0302,-5.0265,-5.0265,-5.0265,-5.0265,-5.0265,-5.0265,-5.0265,-4.9856,-4.8964,-4.9299,-4.9559,-4.9559,-5.0005,-5.0265,-5.0265,-5.0265,-5.0265,-5.0265,-5.0265,-5.045,-5.0822,-5.0822,-5.1303,-4.6124,-4.6894,-4.7548,-4.9048,-5.0202,-5.0587,-4.9048,-4.8394,-4.7817,0.0,0.0,0.0,0.0,-4.9625,0.0,-5.5703,-5.7588,-5.8858,-5.9704,-6.1127,-6.2101,-6.2101,-6.282,-6.2974,-6.2178,-6.2101,-6.1755,-6.0858,-6.066,-6.036,-5.9842,-5.9588,-5.9271,-5.8719,-5.8698,-5.8698,-5.8698,-5.8698,-5.8698,-5.8698,-5.8698,-5.8698,-5.8698,-5.8698,-5.8698,-5.8698,-5.8698,-5.8141,-5.7212,-5.7212,-5.6246,-5.4723,-5.4723,-5.4351,-5.3794,-5.3794,-5.3794,-5.3794,-5.3794,-5.3794,-5.3794,-5.3794,-5.3794,-5.3794,-5.3794,-5.3794,-5.3794,-5.3794,-5.3348,-5.2865,-5.2865,-5.2419,-5.1974,-5.1974,-5.1974,-5.1974,-5.1974,-5.1974,-5.1974,-5.1974,-5.1974,-5.1974,-5.1974,-5.1974,-5.1899,-5.1714,-5.1676,-5.1602,-5.1416,-5.1416,-5.1416,-5.1416,-5.1416,-5.1416,-5.1416,-5.1416,-5.0859,-4.9559,-5.0079,-5.0413,-5.0413,-5.1045,-5.1416,-5.1416,-5.1416,-5.1416,-5.1416,-5.1416,-5.1491,-5.1676,-5.1676,-5.2122,-4.5248,-4.5163,-4.5355,-4.8586,-5.0625,-5.1587,-5.0702,-5.1048,-5.1308,-5.051,0.0,0.0,0.0,-5.3587,-5.5895,-5.7819,-5.8858,-5.9704,-6.0589,0.0,-6.2101,-6.2101,-6.282,-6.2974,-6.2178,-6.2101,-6.1755,-6.0858,-6.066,-6.036,-5.9842,-5.9588,-5.9271,-5.8719,-5.8698,-5.8698,-5.8698,-5.8698,-5.8698,-5.8698,-5.8698,-5.8698,-5.8698,-5.8698,-5.8698,-5.8698,-5.8698,-5.7843,-5.6395,-5.6395,-5.5391,-5.3905,-5.3905,-5.3868,-5.3794,-5.3794,-5.3794,-5.3794,-5.3794,-5.3794,-5.3794,-5.3794,-5.3794,-5.3794,-5.3794,-5.3794,-5.3794,-5.3794,-5.3757,-5.372,-5.372,-5.3683,-5.3645,-5.3645,-5.3645,-5.3645,-5.3645,-5.3645,-5.3645,-5.3645,-5.3645,-5.3645,-5.3645,-5.3645,-5.3385,-5.2642,-5.2531,-5.2234,-5.1491,-5.1416,-5.1416,-5.1416,-5.1416,-5.1416,-5.1416,-5.1416,-5.1342,-5.1231,-5.1268,-5.1305,-5.1305,-5.1379,-5.1416,-5.1416,-5.1416,-5.1416,-5.1416,-5.1416,-5.1788,-5.2531,-5.2531,-5.294,-4.447,-4.4201,-4.4124,-4.6432,-4.8702,0.0,0.0,-5.3318,-5.3741,-5.4472,-5.4626,0.0,0.0,0.0,-5.6896,-5.8088,-5.8973,-5.9819,-6.0666,-6.1089,-6.1281,-6.1281,-6.155,-6.1627,-6.132,-6.1281,-6.1127,-6.0819,-6.066,-6.036,-5.9842,-5.9588,-5.9008,-5.8013,-5.7955,-5.7732,-5.7212,-5.7212,-5.7212,-5.7212,-5.8215,-5.8698,-5.8698,-5.8698,-5.8698,-5.8661,-5.8178,-5.7323,-5.6246,-5.5726,-5.4834,-5.3794,-5.3794,-5.3794,-5.3794,-5.3794,-5.3794,-5.3794,-5.3794,-5.3794,-5.3794,-5.3794,-5.3794,-5.3794,-5.3794,-5.3794,-5.3794,-5.3794,-5.3794,-5.3794,-5.3794,-5.3794,-5.3794,-5.3794,-5.3794,-5.3794,-5.3794,-5.3794,-5.3794,-5.3794,-5.3794,-5.3794,-5.3794,-5.3794,-5.372,-5.3385,-5.3348,-5.3237,-5.294,-5.2902,-5.2902,-5.2902,-5.2902,-5.2902,-5.2902,-5.2902,-5.2902,-5.2902,-5.2419,-5.2159,-5.2159,-5.2642,-5.2902,-5.2902,-5.2902,-5.2902,-5.2902,-5.2902,-5.3051,-5.3348,-5.3348,-5.3497,-4.4239,-4.3701,-4.3624,-4.5855,0.0,0.0,-5.428,-5.5511,-5.6088,-5.7511,-5.778,-5.7434,-5.6319,0.0,0.0,0.0,-5.9204,-6.0127,-6.0704,-6.0781,-6.0781,-6.0781,-6.0781,-6.0781,-6.0781,-6.0781,-6.0781,-6.0781,-6.066,-6.036,-5.9842,-5.9588,-5.9008,-5.7901,-5.7881,-5.7509,-5.6692,-5.6692,-5.6543,-5.632,-5.7435,-5.7955,-5.7955,-5.7955,-5.7955,-5.7918,-5.736,-5.6655,-5.5837,-5.5243,-5.4537,-5.3831,-5.4091,-5.4017,-5.3794,-5.3794,-5.3794,-5.3794,-5.3794,-5.3794,-5.3794,-5.3794,-5.3794,-5.3794,-5.3794,-5.3794,-5.3794,-5.3794,-5.3794,-5.3794,-5.3794,-5.3794,-5.3794,-5.3794,-5.3794,-5.3794,-5.3794,-5.3794,-5.3794,-5.3794,-5.3794,-5.3794,-5.3794,-5.3794,-5.3794,-5.3794,-5.3794,-5.3794,-5.3794,-5.3794,-5.3794,-5.3794,-5.3794,-5.3794,-5.3794,-5.3794,-5.3794,-5.3794,-5.3274,-5.2977,-5.2977,-5.3497,-5.3794,-5.3794,-5.3794,-5.3794,-5.3794,-5.3794,-5.3794,-5.3794,-5.3794,-5.3794,-4.4509,-4.3701,-4.3893,-4.724,0.0,0.0,-5.5444,-5.7665,-5.855,-5.9358,-5.9511,-5.9011,-5.733,-5.8357,0.0,-5.8434,-5.9704,-6.0781,-6.0781,-6.0781,-6.0781,-6.0781,-6.0781,-6.0781,-6.0781,-6.0781,-6.0781,-6.0781,-6.066,-6.036,-5.9842,-5.9588,-5.9271,-5.8681,-5.8698,-5.8326,-5.7472,-5.7472,-5.7063,-5.6283,-5.6283,-5.6283,-5.632,-5.632,-5.632,-5.632,-5.6283,-5.58,-5.502,-5.502,-5.4537,-5.3868,-5.4686,-5.45,-5.3794,-5.3794,-5.3794,-5.3794,-5.3794,-5.3794,-5.3794,-5.3794,-5.3794,-5.3794,-5.3794,-5.3794,-5.3794,-5.3794,-5.3794,-5.3794,-5.3794,-5.3794,-5.3794,-5.3794,-5.3794,-5.3794,-5.3794,-5.3794,-5.3794,-5.3794,-5.3794,-5.3794,-5.3794,-5.3794,-5.3794,-5.3794,-5.3794,-5.3794,-5.3794,-5.3794,-5.3794,-5.3794,-5.3794,-5.3794,-5.3794,-5.3794,-5.3794,-5.3794,-5.3794,-5.3794,-5.3794,-5.3794,-5.3794,-5.3794,-5.3794,-5.3794,-5.3794,-5.3794,-5.3794,-5.3794,-5.3794,-5.3794,-4.3662,-4.3701,0.0,-4.6701,0.0,0.0,0.0,-5.7242,0.0,0.0,-6.0819,-6.0089,-5.8973,-5.8704,0.0,-5.9088,-5.955,-6.0089,-6.0704,-6.0781,-6.0781,-6.0781,-6.0781,-6.0781,-6.0781,-6.0781,-6.0781,-6.0781,-6.066,-6.0092,-5.8948,-5.9303,-5.8745,-5.7046,-5.7583,-5.7175,-5.5763,-5.5763,-5.5354,-5.4537,-5.4537,-5.5169,-5.632,-5.632,-5.632,-5.6283,-5.5652,-5.5243,-5.502,-5.502,-5.4537,-5.3868,-5.4686,-5.45,-5.3794,-5.3794,-5.3794,-5.3794,-5.3794,-5.3794,-5.3794,-5.3794,-5.3794,-5.3794,-5.3794,-5.3794,-5.3794,-5.3794,-5.3794,-5.3794,-5.3794,-5.3794,-5.3794,-5.3794,-5.3794,-5.3794,-5.3794,-5.3794,-5.3794,-5.3794,-5.3794,-5.3794,-5.3794,-5.3794,-5.3794,-5.3794,-5.3794,-5.3794,-5.3794,-5.3794,-5.3794,-5.3794,-5.3794,-5.3794,-5.3794,-5.3794,-5.3794,-5.3794,-5.3794,-5.3794,-5.3794,-5.3794,-5.3794,-5.3794,-5.3794,-5.3794,-5.3794,-5.3794,-5.3794,-5.3794,-5.3794,-5.3794,-4.3701,-4.4662,0.0,-4.8385,-5.0548,-5.3164,-5.6896,0.0,0.0,0.0,-6.1678,-6.0935,-5.9704,-5.9396,0.0,-5.9473,-5.9781,-6.0204,-6.0742,-6.0781,-6.0781,-6.0781,-6.0781,-6.0781,-6.0781,-6.0757,-6.0746,-6.0746,-6.0572,-5.9865,-5.8521,-5.9067,-5.8596,-5.6823,-5.7249,-5.6878,-5.554,-5.5169,-5.4611,-5.3794,-5.3794,-5.4351,-5.5317,-5.5317,-5.5317,-5.528,-5.476,-5.4537,-5.4574,-5.5243,-5.502,-5.4351,-5.5206,-5.502,-5.424,-5.3943,-5.3794,-5.3794,-5.3794,-5.3794,-5.3794,-5.3794,-5.3794,-5.3794,-5.3794,-5.3794,-5.3794,-5.3794,-5.3794,-5.3794,-5.3794,-5.3794,-5.3794,-5.3794,-5.3794,-5.3794,-5.3794,-5.3794,-5.3794,-5.3794,-5.3794,-5.3794,-5.3794,-5.3794,-5.3794,-5.3794,-5.3794,-5.3794,-5.3794,-5.3794,-5.3794,-5.3794,-5.3794,-5.3794,-5.3794,-5.3794,-5.3794,-5.3794,-5.3794,-5.3794,-5.3794,-5.3794,-5.3794,-5.3794,-5.3794,-5.3794,-5.3794,-5.3794,-5.3794,-5.3794,-5.3794,-5.3794,-4.4162,-4.6086,0.0,-5.1269,-5.3433,0.0,-5.9896,-6.1408,-6.1985,-6.1985,0.0,-6.1512,-5.9896,-6.0281,-6.055,-5.9742,-6.0281,-6.0781,-6.0781,-6.0781,-6.0781,-6.0781,-6.0781,-6.0781,-6.0781,-6.0734,-6.0647,-6.0558,-6.0259,-5.9498,-5.8219,-5.8721,-5.8502,-5.7286,-5.736,-5.6989,-5.6209,-5.5391,-5.4611,-5.3794,-5.3794,-5.3794,-5.3794,-5.3794,-5.3794,-5.3794,-5.3794,-5.3794,-5.3943,-5.5614,-5.58,-5.5094,-5.5949,-5.5763,-5.4909,-5.4091,-5.3794,-5.3794,-5.3794,-5.3794,-5.3794,-5.3794,-5.3794,-5.3794,-5.3794,-5.3794,-5.3794,-5.3794,-5.3794,-5.3794,-5.3794,-5.3794,-5.3794,-5.3794,-5.3794,-5.3794,-5.3794,-5.3794,-5.3794,-5.3794,-5.3794,-5.3794,-5.3794,-5.3794,-5.3794,-5.3794,-5.3794,-5.3794,-5.3794,-5.3794,-5.3794,-5.3794,-5.3794,-5.3794,-5.3794,-5.3794,-5.3794,-5.3794,-5.3794,-5.3794,-5.3794,-5.3794,-5.3794,-5.3794,-5.3794,-5.3794,-5.3794,-5.3794,-5.3794,-5.3794,-5.3794,-5.3794,-4.3162,-4.5663,0.0,0.0,-5.5203,-5.8858,-6.0435,-6.0935,-6.1089,-6.1089,-6.1089,-6.0973,-6.0589,-6.0666,-6.0742,-6.055,-6.0666,-6.0781,-6.0781,-6.0781,-6.0781,-6.0781,-6.0781,-6.0781,-6.0781,-6.0734,-6.0367,-5.9523,-5.9216,-5.8235,-5.6291,-5.6869,-5.6725,-5.5577,-5.6209,-5.6172,-5.528,-5.5094,-5.4611,-5.3794,-5.3794,-5.3794,-5.3794,-5.3794,-5.3794,-5.3794,-5.3794,-5.3794,-5.3943,-5.5614,-5.58,-5.5094,-5.5949,-5.5763,-5.4909,-5.4091,-5.3794,-5.3794,-5.3794,-5.3794,-5.3794,-5.3794,-5.3794,-5.3794,-5.3794,-5.3794,-5.3794,-5.3794,-5.3794,-5.3794,-5.3794,-5.3794,-5.3794,-5.3794,-5.3794,-5.3794,-5.3794,-5.3794,-5.3794,-5.3794,-5.3794,-5.3794,-5.3794,-5.3794,-5.3794,-5.3794,-5.3794,-5.3794,-5.3794,-5.3794,-5.3794,-5.3794,-5.3794,-5.3794,-5.3794,-5.3794,-5.3794,-5.3794,-5.3794,-5.3794,-5.3794,-5.3794,-5.3794,-5.3794,-5.3794,-5.3794,-5.3794,-5.3794,-5.3794,-5.3794,-5.3794,-5.3794,-4.2124,0.0,0.0,-5.3933,0.0,-6.0242,-6.0704,-6.0781,-6.0781,-6.0781,-6.0781,-6.0781,-6.0781,-6.0781,-6.0781,-6.0781,-6.0781,-6.0781,-6.0781,-6.0781,-6.0781,-6.0781,-6.0781,-6.0627,-6.0204,-6.0083,-5.9575,-5.8522,-5.8181,-5.7327,-5.5648,-5.6182,-5.607,-5.502,-5.5466,-5.5466,-5.502,-5.4611,-5.4203,-5.3794,-5.3794,-5.3794,-5.3794,-5.3794,-5.3794,-5.3794,-5.3794,-5.3794,-5.3905,-5.5169,-5.5429,-5.5057,-5.5503,-5.5652,-5.554,-5.4686,-5.4388,-5.4388,-5.4388,-5.4128,-5.3794,-5.3794,-5.3794,-5.3794,-5.3794,-5.3794,-5.3794,-5.3794,-5.3794,-5.3794,-5.3794,-5.3794,-5.3794,-5.3794,-5.3794,-5.3794,-5.3794,-5.3794,-5.3794,-5.3794,-5.3794,-5.3794,-5.3794,-5.3794,-5.3794,-5.3794,-5.3794,-5.3794,-5.3794,-5.3794,-5.3794,-5.3794,-5.3794,-5.3794,-5.3794,-5.3794,-5.3794,-5.3794,-5.3794,-5.3794,-5.3794,-5.3794,-5.3794,-5.3794,-5.3794,-5.3794,-5.3794,-5.3794,-5.3794,-5.3794,-5.3794,-5.3794,-4.1069,0.0,-5.101,-5.6857,-5.9435,0.0,-6.0781,-6.0781,-6.0781,-6.0781,-6.0781,-6.0781,-6.0781,-6.0781,-6.0742,-6.0589,-6.0589,-6.0512,-6.0396,-6.0358,-6.0358,-6.0358,-6.0358,-6.0089,-5.9358,-5.9163,-5.8617,-5.7496,-5.7111,-5.6434,-5.5264,-5.5697,-5.5581,-5.4834,-5.4797,-5.4797,-5.4797,-5.4128,-5.3794,-5.3794,-5.3794,-5.3794,-5.3794,-5.3794,-5.3794,-5.3794,-5.3794,-5.3794,-5.3868,-5.4686,-5.502,-5.502,-5.502,-5.554,-5.6209,-5.5317,-5.502,-5.502,-5.502,-5.4463,-5.3794,-5.3794,-5.3794,-5.3794,-5.3794,-5.3794,-5.3794,-5.3794,-5.3794,-5.3794,-5.3794,-5.3794,-5.3794,-5.3794,-5.3794,-5.3794,-5.3794,-5.3794,-5.3794,-5.3794,-5.3794,-5.3794,-5.3794,-5.3794,-5.3794,-5.3794,-5.3794,-5.3794,-5.3794,-5.3794,-5.3794,-5.3794,-5.3794,-5.3794,-5.3794,-5.3794,-5.3794,-5.3794,-5.3794,-5.3794,-5.3794,-5.3794,-5.3794,-5.3794,-5.3794,-5.3794,-5.3794,-5.3794,-5.3794,-5.3794,-5.3794,-5.3794,0.0,0.0,-5.1779,0.0,-5.8973,-5.9858,0.0,0.0,-6.0781,0.0,-6.0781,-6.0781,-6.0781,-6.0781,-6.055,-5.9819,-5.9665,-5.9435,-5.8742,-5.8627,-5.8627,-5.8627,-5.8627,-5.8588,-5.8473,-5.8318,-5.7672,-5.6352,-5.61,-5.5416,-5.4112,-5.4092,-5.411,-5.398,-5.398,-5.398,-5.398,-5.3868,-5.3794,-5.3794,-5.3794,-5.3794,-5.3794,-5.3794,-5.3794,-5.3794,-5.3794,-5.3794,-5.3868,-5.4686,-5.502,-5.502,-5.502,-5.554,-5.6209,-5.5317,-5.502,-5.502,-5.502,-5.4463,-5.3794,-5.3794,-5.3794,-5.3794,-5.3794,-5.3794,-5.3794,-5.3794,-5.3794,-5.3794,-5.3794,-5.3794,-5.3794,-5.3794,-5.3794,-5.3794,-5.3794,-5.3794,-5.3794,-5.3794,-5.3794,-5.3794,-5.3794,-5.3794,-5.3794,-5.3794,-5.3794,-5.3794,-5.3794,-5.3794,-5.3794,-5.3794,-5.3794,-5.3794,-5.3794,-5.3794,-5.3794,-5.3794,-5.3794,-5.3794,-5.3794,-5.3794,-5.3794,-5.3794,-5.3794,-5.3794,-5.3794,-5.3794,-5.3794,-5.3794,-5.3794,-5.3794,-4.1267,-4.6577,-5.1712,0.0,0.0,0.0,0.0,0.0,-5.9396,-5.9396,-5.9396,-5.955,-5.9973,-6.0089,-5.9781,-5.8973,-5.8819,-5.8704,-5.8357,-5.8319,-5.8319,-5.8319,-5.8319,-5.8127,-5.7627,-5.7447,-5.6779,-5.542,-5.5199,-5.4743,-5.385,-5.3794,-5.3794,-5.3794,-5.3794,-5.3794,-5.3794,-5.3794,-5.3794,-5.3794,-5.3794,-5.3794,-5.3794,-5.3794,-5.3794,-5.3794,-5.3794,-5.3794,-5.3831,-5.4203,-5.4351,-5.4351,-5.4351,-5.5131,-5.6246,-5.5874,-5.5726,-5.5726,-5.5726,-5.4871,-5.3794,-5.3794,-5.3794,-5.3794,-5.3794,-5.3794,-5.3794,-5.3794,-5.3794,-5.3794,-5.3794,-5.3794,-5.3794,-5.3794,-5.3794,-5.3794,-5.3794,-5.3794,-5.3794,-5.3794,-5.3794,-5.3794,-5.3794,-5.3794,-5.3943,-5.4426,-5.4463,-5.4648,-5.5131,-5.5206,-5.5206,-5.5206,-5.476,-5.4686,-5.5169,-5.476,-5.4686,-5.5169,-5.5206,-5.5206,-5.5206,-5.5206,-5.5206,-5.5206,-5.4277,-5.3794,-5.3794,-5.3794,-5.3794,-5.3794,-5.3794,-5.3794,-4.1959,-4.6308,-5.0038,-5.4049,0.0,0.0,0.0,0.0,0.0,0.0,0.0,-5.8434,-5.8781,-5.905,-5.8934,-5.8088,-5.7973,-5.7896,-5.7665,-5.7627,-5.7627,-5.7627,-5.7627,-5.7396,-5.6753,-5.6564,-5.6015,-5.4874,-5.4692,-5.4368,-5.3813,-5.3794,-5.3794,-5.3794,-5.3794,-5.372,-5.3497,-5.3497,-5.3608,-5.3794,-5.3794,-5.3794,-5.3794,-5.3794,-5.3794,-5.3794,-5.3794,-5.3794,-5.3794,-5.3794,-5.3794,-5.3794,-5.3794,-5.4834,-5.632,-5.632,-5.632,-5.632,-5.632,-5.5206,-5.3794,-5.3794,-5.3794,-5.3794,-5.3794,-5.3794,-5.3794,-5.3794,-5.3794,-5.3794,-5.3794,-5.3794,-5.3794,-5.3794,-5.398,-5.4054,-5.3831,-5.3794,-5.3794,-5.3794,-5.3794,-5.3794,-5.3794,-5.3794,-5.4091,-5.4871,-5.502,-5.5317,-5.6209,-5.632,-5.632,-5.632,-5.5726,-5.5577,-5.6246,-5.5689,-5.5614,-5.6246,-5.632,-5.632,-5.632,-5.632,-5.632,-5.632,-5.5057,-5.4426,-5.4426,-5.4203,-5.4091,-5.4091,-5.3905,-5.3794,-4.0811,-4.3188,0.0,-5.1885,0.0,0.0,0.0,0.0,0.0,0.0,0.0,0.0,-5.7291,-5.7819,-5.8088,-5.7214,-5.706,-5.6791,-5.5934,-5.5818,-5.5818,-5.5818,-5.5818,-5.5818,-5.578,-5.5631,-5.5352,-5.4836,-5.4692,-5.4368,-5.3813,-5.3794,-5.3794,-5.3794,-5.3794,-5.3423,-5.2679,-5.2679,-5.3051,-5.3794,-5.3794,-5.3794,-5.3794,-5.3794,-5.3794,-5.3794,-5.3794,-5.3794,-5.3794,-5.3794,-5.3794,-5.3794,-5.3794,-5.4834,-5.632,-5.632,-5.632,-5.632,-5.632,-5.5206,-5.3794,-5.3794,-5.3794,-5.3794,-5.3794,-5.3794,-5.3794,-5.3794,-5.3794,-5.3794,-5.3794,-5.3794,-5.3794,-5.3794,-5.4388,-5.4723,-5.398,-5.3794,-5.3794,-5.3794,-5.3794,-5.3794,-5.3794,-5.3794,-5.4091,-5.4871,-5.502,-5.5317,-5.6209,-5.632,-5.632,-5.632,-5.6246,-5.6246,-5.632,-5.6246,-5.6246,-5.632,-5.632,-5.632,-5.632,-5.632,-5.632,-5.632,-5.6209,-5.6172,-5.6172,-5.5354,-5.4946,-5.4946,-5.4166,-5.3794,-3.6862,-3.9618,0.0,0.0,0.0,0.0,0.0,0.0,0.0,0.0,0.0,0.0,0.0,0.0,-5.7165,-5.6329,-5.6175,-5.6049,-5.5742,-5.5703,-5.5703,-5.5703,-5.5671,-5.5649,-5.5649,-5.5425,-5.5157,-5.4761,-5.4528,-5.4248,-5.3813,-5.3794,-5.3794,-5.3794,-5.3311,-5.2642,-5.1825,-5.2345,-5.2754,-5.3051,-5.3571,-5.3794,-5.3794,-5.3794,-5.3794,-5.3794,-5.3794,-5.3794,-5.3794,-5.3794,-5.3794,-5.3794,-5.3794,-5.4834,-5.632,-5.632,-5.632,-5.632,-5.632,-5.5206,-5.3794,-5.3794,-5.3794,-5.3794,-5.3794,-5.3794,-5.3794,-5.3794,-5.3794,-5.3794,-5.3794,-5.4203,-5.4723,-5.528,-5.5614,-5.5763,-5.5466,-5.5391,-5.5391,-5.5391,-5.5391,-5.5391,-5.5391,-5.5391,-5.5689,-5.6469,-5.6617,-5.6915,-5.7732,-5.7843,-5.7843,-5.7843,-5.7398,-5.7286,-5.7806,-5.736,-5.7286,-5.7806,-5.7843,-5.7843,-5.7843,-5.7843,-5.7843,-5.7843,-5.7843,-5.7323,-5.632,-5.5429,-5.502,-5.4983,-5.4166,-5.3794,-3.478,-3.7067,0.0,0.0,0.0,0.0,0.0,0.0,0.0,0.0,0.0,0.0,0.0,0.0,0.0,-5.578,-5.5703,-5.5703,-5.5703,-5.5703,-5.5703,-5.5703,-5.5649,-5.5554,-5.5497,-5.5288,-5.5004,-5.4591,-5.4364,0.0,-5.3813,-5.3794,-5.3683,-5.3423,-5.2345,-5.1676,-5.1416,-5.1639,-5.2048,-5.2605,-5.3162,-5.3534,-5.3794,-5.3794,-5.3794,-5.3794,-5.3794,-5.3794,-5.3794,-5.3794,-5.3794,-5.3794,-5.3794,-5.4834,-5.632,-5.632,-5.632,-5.632,-5.632,-5.5206,-5.3794,-5.3794,-5.3794,-5.3794,-5.3794,-5.3794,-5.3794,-5.3794,-5.398,-5.4203,-5.4203,-5.4834,-5.5652,-5.6506,-5.6692,-5.6766,-5.7063,-5.6692,-5.632,-5.632,-5.632,-5.632,-5.632,-5.632,-5.658,-5.7398,-5.7509,-5.7806,-5.8624,-5.8698,-5.8698,-5.8698,-5.8215,-5.8141,-5.8661,-5.8215,-5.8141,-5.8661,-5.8698,-5.8698,-5.8698,-5.8698,-5.8698,-5.8698,-5.8698,-5.8178,-5.71,-5.5986,-5.5429,-5.5429,-5.4314,-5.3794,0.0,0.0,0.0,0.0,0.0,0.0,0.0,0.0,0.0,0.0,0.0,0.0,0.0,0.0,0.0,0.0,-5.5665,-5.5703,-5.5703,-5.5703,-5.5703,-5.5703,-5.5649,-5.5508,-5.5314,-5.5157,-5.4874,-5.433,-5.4231,-5.4091,-5.3813,-5.3794,-5.3385,-5.2568,-5.1008,-5.0562,-5.1305,-5.0525,-5.0933,-5.2568,-5.2605,-5.3014,-5.3794,-5.3794,-5.3794,-5.3794,-5.3794,-5.3794,-5.3794,-5.3794,-5.3794,-5.3794,-5.3794,-5.4797,-5.6246,-5.6283,-5.6283,-5.6283,-5.6283,-5.5206,-5.3794,-5.3794,-5.3794,-5.3794,-5.3794,-5.3794,-5.3794,-5.3831,-5.4426,-5.502,-5.5057,-5.5689,-5.6543,-5.736,-5.7546,-5.7769,-5.8549,-5.7472,-5.6357,-5.6357,-5.6357,-5.6357,-5.6357,-5.6357,-5.6655,-5.7435,-5.7546,-5.7843,-5.8624,-5.8698,-5.8698,-5.8698,-5.8698,-5.8698,-5.8698,-5.8698,-5.8698,-5.8698,-5.8698,-5.8698,-5.8698,-5.8698,-5.8698,-5.8698,-5.8698,-5.8698,-5.8698,-5.71,-5.632,-5.6246,-5.4574,-5.3794,-3.1789,0.0,0.0,0.0,0.0,0.0,0.0,0.0,0.0,0.0,0.0,0.0,0.0,0.0,0.0,0.0,0.0,-5.5703,-5.5703,-5.5703,-5.5703,-5.5703,-5.5615,-5.5437,-5.5236,-5.4976,-5.4661,0.0,-5.4109,-5.4,-5.3794,-5.3237,-5.2308,-5.0896,-5.0376,-4.9968,-4.9596,-4.993,-5.0636,-5.1751,-5.2308,-5.3014,-5.3794,-5.3794,-5.3794,-5.3794,-5.3794,-5.3794,-5.3794,-5.3794,-5.3794,-5.3794,-5.3794,-5.4463,-5.5429,-5.606,-5.5912,-5.5466,-5.6097,-5.5206,-5.3794,-5.3794,-5.3794,-5.3794,-5.3794,-5.3794,-5.3943,-5.45,-5.4834,-5.528,-5.6506,-5.6989,-5.736,-5.8178,-5.8364,-5.8438,-5.8661,-5.8364,-5.8029,-5.8029,-5.8029,-5.8029,-5.8029,-5.8029,-5.8103,-5.8326,-5.8364,-5.8475,-5.8661,-5.8698,-5.8698,-5.8698,-5.8698,-5.8698,-5.8698,-5.8698,-5.8698,-5.8698,-5.8698,-5.8698,-5.8698,-5.8698,-5.8698,-5.8698,-5.8698,-5.8698,-5.8698,-5.71,-5.632,-5.6246,-5.4574,-5.3794,-3.2697,-3.264,-3.2599,-3.3223,0.0,0.0,-3.7257,-3.9753,0.0,0.0,0.0,0.0,0.0,0.0,0.0,0.0,0.0,0.0,-5.5088,-5.5472,-5.5703,-5.5703,-5.5566,-5.5376,-5.5037,-5.4829,-5.435,-5.3605,-5.346,-5.3219,-5.2828,-5.2011,-5.1119,-5.019,-4.9782,-4.9373,-4.889,-4.9373,-5.0042,-5.0859,-5.1342,-5.2011,-5.2791,-5.2791,-5.2977,-5.3311,-5.3311,-5.3497,-5.3794,-5.3794,-5.3794,-5.3794,-5.3794,-5.4314,-5.5131,-5.5986,-5.5763,-5.5131,-5.5986,-5.5206,-5.3794,-5.3794,-5.3794,-5.3794,-5.3794,-5.3794,-5.398,-5.476,-5.5503,-5.6357,-5.7658,-5.7992,-5.8141,-5.8586,-5.8698,-5.8698,-5.8698,-5.8698,-5.8698,-5.8698,-5.8698,-5.8698,-5.8698,-5.8698,-5.8698,-5.8698,-5.8698,-5.8698,-5.8698,-5.8698,-5.8698,-5.8698,-5.8698,-5.8698,-5.8698,-5.8698,-5.8698,-5.8698,-5.8698,-5.8698,-5.8698,-5.8698,-5.8698,-5.8698,-5.8698,-5.8364,-5.7695,-5.6766,-5.5949,-5.5243,-5.4277,-5.3794,-3.5649,-3.5071,-3.4475,-3.4469,-3.3373,0.0,-3.5399,-3.6631,-3.8429,0.0,0.0,0.0,0.0,0.0,0.0,0.0,0.0,0.0,0.0,-5.4885,-5.5385,-5.5423,-5.5274,-5.4995,-5.4571,-5.4374,-5.3804,-5.2568,-5.2457,-5.2122,-5.1305,-5.0525,-5.0079,-4.9968,-4.9262,-4.889,-4.889,-4.889,-4.9299,-5.0116,-5.0116,-5.0562,-5.1416,-5.1416,-5.1825,-5.2605,-5.2605,-5.3051,-5.3794,-5.3794,-5.3794,-5.3794,-5.3794,-5.424,-5.4983,-5.5949,-5.5689,-5.502,-5.5986,-5.5206,-5.3794,-5.3794,-5.3794,-5.3794,-5.3794,-5.3794,-5.398,-5.4909,-5.6283,-5.7695,-5.8512,-5.8698,-5.8698,-5.8698,-5.8698,-5.8698,-5.8698,-5.8698,-5.8698,-5.8698,-5.8698,-5.8698,-5.8698,-5.8698,-5.8698,-5.8698,-5.8698,-5.8698,-5.8698,-5.8698,-5.8698,-5.8698,-5.8698,-5.8698,-5.8698,-5.8698,-5.8698,-5.8698,-5.8698,-5.8698,-5.8698,-5.8698,-5.8698,-5.8698,-5.8698,-5.7918,-5.632,-5.6209,-5.5354,-5.3794,-5.3794,-5.3794,-3.5343,-3.4908,-3.4102,-3.3408,-3.2616,0.0,-3.3525,-3.4111,-3.522,0.0,0.0,0.0,0.0,0.0,0.0,0.0,0.0,0.0,0.0,0.0,-5.3547,-5.3601,-5.3383,-5.311,-5.274,-5.2551,-5.2207,-5.1676,-5.1639,-5.1268,-5.0413,-5.019,-4.9819,-4.915,-4.9002,-4.889,-4.889,-4.889,-4.9336,-5.019,-5.0116,-5.0562,-5.1416,-5.1416,-5.1825,-5.2605,-5.2605,-5.3051,-5.3794,-5.3794,-5.3794,-5.3794,-5.3794,-5.3905,-5.424,-5.5726,-5.5354,-5.424,-5.5763,-5.5206,-5.3794,-5.3794,-5.3794,-5.3794,-5.3794,-5.3794,-5.4128,-5.5614,-5.6766,-5.7695,-5.8512,-5.8698,-5.8698,-5.8698,-5.8698,-5.8698,-5.8698,-5.8698,-5.8698,-5.8698,-5.8698,-5.8698,-5.8698,-5.8698,-5.8698,-5.8698,-5.8698,-5.8698,-5.8698,-5.8698,-5.8698,-5.8698,-5.8698,-5.8698,-5.8698,-5.8698,-5.8698,-5.8698,-5.8698,-5.8698,-5.8698,-5.8698,-5.8698,-5.8698,-5.8698,-5.7918,-5.632,-5.5614,-5.476,-5.3794,-5.3794,-5.3794,-3.8316,-3.7607,-3.6194,-3.4574,-3.3251,0.0,0.0,-3.1777,-3.293,-3.5541,-3.6765,0.0,0.0,0.0,0.0,0.0,0.0,0.0,0.0,0.0,0.0,-5.2882,-5.2754,-5.2496,-5.2092,-5.1941,-5.1524,-5.0803,-5.0376,-4.9968,-4.9522,-4.9522,-4.9336,-4.8927,-4.889,-4.889,-4.889,-4.889,-4.9113,-4.9559,-4.9522,-4.9745,-5.0153,-5.0153,-5.0599,-5.1342,-5.1342,-5.2048,-5.32,-5.32,-5.346,-5.3794,-5.3794,-5.3794,-5.3943,-5.5206,-5.4871,-5.398,-5.5243,-5.4834,-5.3794,-5.3794,-5.3794,-5.3794,-5.3794,-5.4091,-5.4648,-5.5949,-5.6878,-5.7695,-5.8512,-5.8698,-5.8698,-5.8698,-5.8698,-5.8698,-5.8698,-5.8698,-5.8698,-5.8698,-5.8698,-5.8698,-5.8698,-5.8698,-5.8698,-5.8698,-5.8698,-5.8698,-5.8698,-5.8698,-5.8698,-5.8698,-5.8698,-5.8698,-5.8698,-5.8698,-5.8698,-5.8698,-5.8698,-5.8698,-5.8698,-5.8698,-5.8698,-5.8698,-5.8326,-5.7509,-5.632,-5.5429,-5.4611,-5.3794,-5.3794,-5.3794,-4.1379,-4.0392,-3.8608,-3.6017,-3.4228,-3.2487,0.0,0.0,0.0,-3.3723,0.0,0.0,0.0,0.0,0.0,0.0,0.0,0.0,0.0,0.0,0.0,0.0,-5.165,-5.1433,-5.119,-5.1066,-5.0563,-4.9502,-4.8964,-4.8667,-4.8667,-4.8816,-4.889,-4.889,-4.889,-4.889,-4.889,-4.889,-4.889,-4.889,-4.889,-4.889,-4.889,-4.889,-4.9336,-5.0116,-5.0116,-5.1045,-5.2605,-5.2605,-5.3088,-5.3794,-5.3794,-5.3794,-5.3905,-5.4723,-5.45,-5.3943,-5.4723,-5.4463,-5.3794,-5.3794,-5.3794,-5.3794,-5.3794,-5.424,-5.4946,-5.58,-5.6506,-5.7212,-5.8029,-5.8252,-5.8252,-5.8252,-5.8252,-5.8252,-5.8252,-5.8252,-5.8289,-5.8438,-5.8475,-5.8512,-5.8661,-5.8698,-5.8698,-5.8698,-5.8698,-5.8698,-5.8698,-5.8698,-5.8698,-5.8698,-5.8698,-5.8698,-5.8698,-5.8698,-5.8698,-5.8698,-5.8698,-5.8698,-5.8698,-5.8698,-5.8698,-5.8698,-5.8066,-5.736,-5.6543,-5.5837,-5.4909,-5.3794,-5.3794,-5.3794,0.0,0.0,0.0,0.0,-3.4544,-3.3241,-3.078,0.0,-3.075,-3.1735,0.0,0.0,0.0,0.0,0.0,0.0,0.0,0.0,0.0,0.0,0.0,0.0,-4.788,-4.7932,-4.8474,-4.831,-4.7809,-4.6958,-4.7478,-4.785,-4.785,-4.8519,-4.889,-4.889,-4.889,-4.889,-4.889,-4.889,-4.889,-4.889,-4.889,-4.889,-4.889,-4.889,-4.9336,-5.0116,-5.0116,-5.1045,-5.2605,-5.2605,-5.3088,-5.3794,-5.3794,-5.3794,-5.3905,-5.4723,-5.45,-5.3943,-5.4723,-5.4463,-5.3794,-5.3794,-5.3794,-5.3794,-5.3794,-5.3868,-5.4128,-5.4946,-5.5206,-5.5503,-5.6357,-5.658,-5.658,-5.658,-5.658,-5.658,-5.658,-5.658,-5.6766,-5.7509,-5.7658,-5.7881,-5.8586,-5.8698,-5.8698,-5.8698,-5.8698,-5.8698,-5.8698,-5.8698,-5.8698,-5.8698,-5.8698,-5.8698,-5.8698,-5.8698,-5.8698,-5.8698,-5.8698,-5.8698,-5.8698,-5.8698,-5.8698,-5.8698,-5.8624,-5.8178,-5.736,-5.7249,-5.606,-5.3794,-5.3794,-5.3794,0.0,0.0,0.0,0.0,0.0,0.0,-3.1544,-3.1384,-3.1961,0.0,0.0,0.0,0.0,0.0,0.0,0.0,-3.4303,0.0,0.0,0.0,0.0,0.0,0.0,0.0,-4.6445,-4.5876,-4.5572,-4.5769,-4.5626,-4.6145,-4.7627,-4.8444,-4.889,-4.889,-4.889,-4.889,-4.889,-4.889,-4.889,-4.889,-4.8875,-4.8857,-4.884,-4.875,-4.8917,-4.9213,-4.9213,-4.9953,-5.1083,-5.1083,-5.1881,-5.3088,-5.3088,-5.3385,-5.3831,-5.4203,-5.4091,-5.3868,-5.4203,-5.4091,-5.3794,-5.3794,-5.3794,-5.3794,-5.3794,-5.3794,-5.398,-5.476,-5.502,-5.5206,-5.606,-5.632,-5.6432,-5.6878,-5.6989,-5.7138,-5.7583,-5.7695,-5.7806,-5.8141,-5.8215,-5.8326,-5.8661,-5.8698,-5.8698,-5.8698,-5.8698,-5.8698,-5.8698,-5.8698,-5.8698,-5.8698,-5.8698,-5.8698,-5.8698,-5.8698,-5.8698,-5.8698,-5.8698,-5.8698,-5.8698,-5.8698,-5.8698,-5.8698,-5.8698,-5.8326,-5.7509,-5.7509,-5.6469,-5.45,-5.45,-5.424,-4.3738,0.0,0.0,0.0,0.0,0.0,0.0,0.0,0.0,0.0,0.0,0.0,0.0,0.0,0.0,0.0,0.0,-3.4376,0.0,0.0,0.0,0.0,0.0,0.0,0.0,-4.3908,-4.4093,-4.4549,-4.4167,-4.4925,-4.7256,-4.8147,-4.8667,-4.889,-4.889,-4.889,-4.889,-4.889,-4.8873,-4.8855,-4.8822,-4.8787,-4.8751,-4.8642,-4.8624,-4.8624,-4.8624,-4.9252,-5.0306,-5.0305,-5.1362,-5.2902,-5.2921,-5.3255,-5.3774,-5.3774,-5.3774,-5.3774,-5.3717,-5.3698,-5.3698,-5.3698,-5.3698,-5.3698,-5.3698,-5.3698,-5.3846,-5.4402,-5.4588,-5.4756,-5.5407,-5.5612,-5.5798,-5.6597,-5.6803,-5.7063,-5.7881,-5.8029,-5.8103,-5.8326,-5.8364,-5.8438,-5.8661,-5.8698,-5.8698,-5.8698,-5.8698,-5.8698,-5.8698,-5.8698,-5.8698,-5.8698,-5.8698,-5.8698,-5.8698,-5.8698,-5.8698,-5.8698,-5.8698,-5.8698,-5.8698,-5.8698,-5.8698,-5.8698,-5.8698,-5.8401,-5.7843,-5.7843,-5.71,-5.5689,-5.5206,-5.4574,0.0,0.0,0.0,-3.8117,0.0,0.0,0.0,0.0,-3.377,0.0,0.0,0.0,0.0,0.0,-3.5766,-3.4027,0.0,0.0,0.0,0.0,0.0,0.0,0.0,0.0,0.0,-4.2458,-4.3595,0.0,-4.3484,-4.4665,-4.6438,-4.7293,-4.811,-4.889,-4.889,-4.889,-4.889,-4.889,-4.8875,-4.8804,-4.8787,-4.8751,-4.8624,-4.8624,-4.8624,-4.8624,-4.8624,-4.9529,-5.1062,-5.112,-5.2158,-5.3676,-5.3756,-5.3717,-5.3714,-5.3714,-5.3714,-5.3694,-5.3558,-5.3501,-5.3501,-5.3501,-5.3501,-5.3501,-5.3501,-5.3501,-5.3538,-5.3538,-5.3538,-5.3595,-5.3731,-5.3788,-5.3992,-5.4869,-5.5075,-5.5317,-5.6209,-5.6395,-5.6617,-5.7398,-5.7546,-5.7806,-5.8586,-5.8698,-5.8698,-5.8698,-5.8698,-5.8698,-5.8698,-5.8698,-5.8698,-5.8698,-5.8698,-5.8698,-5.8698,-5.8698,-5.8698,-5.8698,-5.8698,-5.8698,-5.8698,-5.8698,-5.8698,-5.8698,-5.8698,-5.8698,-5.8661,-5.8661,-5.8252,-5.7398,-5.5763,-5.4574,0.0,0.0,-4.1589,-4.023,0.0,0.0,0.0,0.0,0.0,0.0,0.0,0.0,0.0,0.0,-3.7771,-3.5041,-3.3903,0.0,0.0,0.0,0.0,0.0,0.0,0.0,0.0,0.0,0.0,0.0,-4.1622,0.0,-4.6327,-4.7256,-4.8073,-4.889,-4.889,-4.889,-4.889,-4.8875,-4.8822,-4.8787,-4.8661,-4.8569,-4.8532,-4.8439,-4.8401,-4.8401,-4.8401,-4.9084,-5.0172,-5.0211,-5.1228,-5.2764,-5.2803,-5.3117,-5.3578,-5.3674,-5.3637,-5.3558,-5.3538,-5.3481,-5.3481,-5.3481,-5.3481,-5.3481,-5.3481,-5.3481,-5.3481,-5.3481,-5.3481,-5.3501,-5.3558,-5.3617,-5.4047,-5.5404,-5.5798,-5.6246,-5.7583,-5.7881,-5.7992,-5.8252,-5.8289,-5.8401,-5.8661,-5.8698,-5.8698,-5.8698,-5.8698,-5.8698,-5.8698,-5.8698,-5.8698,-5.8698,-5.8698,-5.8698,-5.8698,-5.8698,-5.8698,-5.8698,-5.8698,-5.8698,-5.8698,-5.8698,-5.8698,-5.8698,-5.8698,-5.8698,-5.8698,-5.8698,-5.8289,-5.7472,-5.6357,-5.5429,-4.4488,-4.3754,0.0,-4.2139,-4.0744,0.0,-3.8557,0.0,-3.9203,0.0,0.0,0.0,0.0,0.0,0.0,0.0,0.0,0.0,0.0,-3.021,0.0,0.0,0.0,0.0,0.0,0.0,-3.8737,-4.0399,-4.0288,0.0,0.0,-4.6385,-4.7367,-4.8444,-4.8742,-4.891,-4.8838,-4.8822,-4.8751,-4.8679,-4.855,-4.8476,-4.8438,-4.8325,-4.8306,-4.8343,-4.8636,-4.9263,-5.013,-5.0426,-5.1369,-5.2645,-5.2685,-5.3018,-5.344,-5.3538,-5.3498,-5.3396,-5.3396,-5.3396,-5.3396,-5.3396,-5.3396,-5.3396,-5.3396,-5.3396,-5.3396,-5.3396,-5.3396,-5.3416,-5.342,-5.3518,-5.3911,-5.5343,-5.5738,-5.626,-5.7897,-5.8289,-5.8364,-5.8661,-5.8698,-5.8698,-5.8698,-5.8698,-5.8698,-5.8698,-5.8698,-5.8698,-5.8698,-5.8698,-5.8698,-5.8698,-5.8698,-5.8698,-5.8698,-5.8698,-5.8698,-5.8698,-5.8698,-5.8698,-5.8698,-5.8698,-5.8698,-5.8698,-5.8698,-5.8698,-5.8698,-5.8698,-5.8438,-5.7918,-5.6803,-5.5986]},{"header":{"parameterUnit":"m.s-1","parameterCategory":1,"la1":30.6,"la2":29.2853,"lo1":-89.7004,"lo2":-87.6739,"dy":0.0162,"dx":0.0183,"nx":112,"ny":82,"refTime":"2026-04-23T00:00:00:Z","depth":0,"parameterNumber":3,"parameterNumberName":"V-component_of_WINDS"},"data":[0.0,0.0,0.0,0.0,0.0,0.0,0.0,0.0,0.0,0.0,0.0,0.0,0.0,0.0,0.0,0.0,0.0,0.0,0.0,0.0,0.0,0.0,0.0,0.0,0.0,0.0,0.0,0.0,0.0,0.0,0.0,0.0,0.0,0.0,0.0,0.0,0.0,0.0,0.0,0.0,0.0,0.0,0.0,0.0,0.0,0.0,0.0,0.0,0.0,0.0,0.0,0.0,0.0,0.0,0.0,0.0,0.0,0.0,0.0,0.0,0.0,0.0,0.0,0.0,0.0,0.0,0.0,0.0,0.0,0.0,0.0,0.0,0.0,0.0,0.0,0.0,0.0,0.0,0.0,0.0,0.0,0.0,0.0,0.0,0.0,0.0,0.0,0.0,0.0,0.0,0.7346,0.741,0.5703,0.44,0.3976,0.2649,0.1822,0.1664,0.0,0.0,0.0,0.0,0.0,0.0,0.0,0.0,0.0,0.0,0.0,0.0,0.0,0.0,0.0,0.0,0.0,0.0,0.0,0.0,0.0,0.0,0.0,0.0,0.0,0.0,0.0,0.0,0.0,0.0,0.0,0.0,0.0,0.0,0.0,0.0,0.0,0.0,0.0,0.0,0.0,0.0,0.0,0.0,0.0,0.0,0.0,0.0,0.0,0.0,0.0,0.0,0.0,0.0,0.0,0.0,0.0,0.0,0.0,0.0,0.0,0.0,0.0,0.0,0.0,0.0,0.0,0.0,0.0,0.0,0.0,0.0,0.0,0.0,0.0,0.0,0.0,0.0,0.0,0.0,0.0,0.0,0.0,0.0,0.0,0.0,0.0,0.0,0.0,0.0,0.0,0.0,0.0,0.0,0.0,0.0,0.0,0.0,0.0,0.0,0.0,0.0,0.0,0.0,0.8205,0.8632,0.797,0.7102,0.6206,0.5086,0.4297,0.3998,0.0,0.0,0.0,0.0,0.0,0.0,0.0,0.0,0.0,0.0,0.0,0.0,0.0,0.0,0.0,0.0,0.0,0.0,0.0,0.0,0.0,0.0,0.0,0.0,0.0,0.0,0.0,0.0,0.0,0.0,0.0,0.0,0.0,0.0,0.0,0.0,0.0,0.0,0.0,0.0,0.0,0.0,0.0,0.0,0.0,0.0,0.0,0.0,0.0,0.0,0.0,0.0,0.0,0.0,0.0,0.0,0.0,0.0,0.0,0.0,0.0,0.0,0.0,0.0,0.0,0.0,0.0,0.0,0.0,0.0,0.0,0.0,0.0,0.0,0.0,0.0,0.0,0.0,0.0,0.0,0.0,0.0,0.0,0.0,0.0,0.0,0.0,0.0,0.0,0.0,0.0,0.0,0.0,0.0,0.0,0.0,0.0,0.0,0.0,0.0,0.0,0.0,0.0,0.8296,0.8855,0.9061,0.8621,0.7979,0.716,0.6014,0.5203,0.4881,0.3561,0.0,0.0,0.0,0.0,0.0,0.0,0.0,0.0,0.0,0.0,0.0,0.0,0.0,0.0,0.0,0.0,0.0,0.0,0.0,0.0,0.0,0.0,0.0,0.0,0.0,0.0,0.0,0.0,0.0,0.0,0.0,0.0,0.0,0.0,0.0,0.0,0.0,0.0,0.0,0.0,0.0,0.0,0.0,0.0,0.0,0.0,0.0,0.0,0.0,0.0,0.0,0.0,0.0,0.0,0.0,0.0,0.0,0.0,0.0,0.0,0.0,0.0,0.0,0.0,0.0,0.0,0.0,0.0,0.0,0.0,0.0,0.0,0.0,0.0,0.0,0.0,0.0,0.0,0.0,0.0,0.0,0.0,0.0,0.0,0.0,0.0,0.0,0.0,0.0,0.0,0.0,0.0,0.0,0.0,0.0,0.0,0.0,0.0,0.0,0.0,0.0,0.0,0.8872,0.9366,0.9387,0.907,0.8659,0.8101,0.7061,0.6342,0.5884,0.5326,0.0,0.0,0.0,0.0,0.0,0.0,0.0,0.0,0.0,0.0,0.0,0.0,0.0,0.0,0.0,0.0,0.0,0.0,0.0,0.0,0.0,0.0,0.0,0.0,0.0,0.0,0.0,0.0,0.0,0.0,0.0,0.0,0.0,0.0,0.0,0.0,0.0,0.0,0.0,0.0,0.0,0.0,0.0,0.0,0.0,0.0,0.0,0.0,0.0,0.0,0.0,0.0,0.0,0.0,0.0,0.0,0.0,0.0,0.0,0.0,0.0,0.0,0.0,0.0,0.0,0.0,0.0,0.0,0.0,0.0,0.0,0.0,0.0,0.0,0.0,0.0,0.0,0.0,0.0,0.0,0.0,0.0,0.0,0.0,0.0,0.0,0.0,0.0,0.0,0.0,0.0,0.0,0.0,0.0,0.0,0.0,0.0,0.0,0.0,0.0,0.0,0.0,0.9128,0.9737,0.9904,1.0152,1.004,0.958,0.9144,0.8528,0.7784,0.7281,0.0,0.0,0.0,0.0,0.0,0.0,0.0,0.0,0.0,0.0,0.0,0.0,0.0,0.0,0.0,0.0,0.0,0.0,0.0,0.0,0.0,0.0,0.0,0.0,0.0,0.0,0.0,0.0,0.0,0.0,0.0,0.0,0.0,0.0,0.0,0.0,0.0,0.0,0.0,0.0,0.0,0.0,0.0,0.0,0.0,0.0,0.0,0.0,0.0,0.0,0.0,0.0,0.0,0.0,0.0,0.0,0.0,0.0,0.0,0.0,0.0,0.0,0.0,0.0,0.0,0.0,0.0,0.0,0.0,0.0,0.0,0.0,0.0,0.0,0.0,0.0,0.0,0.0,0.0,0.0,0.0,0.0,0.0,0.0,0.0,0.0,0.0,0.0,0.0,0.0,0.0,0.0,0.0,0.0,0.0,0.0,0.0,0.0,0.0,0.0,0.0,0.0,0.891,0.9427,0.0,0.984,0.9802,0.947,0.9046,0.853,0.791,0.0,0.0,0.0,0.0,0.0,0.0,0.0,0.0,0.0,0.0,0.0,0.0,0.0,0.0,0.0,0.0,0.0,0.0,0.0,0.0,0.0,0.0,0.0,0.0,0.0,0.0,0.0,0.0,0.0,0.0,0.0,0.0,0.0,0.0,0.0,0.0,0.0,0.0,0.0,0.0,0.0,0.0,0.0,0.0,0.0,0.0,0.0,0.0,0.0,0.0,0.0,0.0,0.0,0.0,0.0,0.0,0.0,0.0,0.0,0.0,0.0,0.0,0.0,0.0,0.0,0.0,0.0,0.0,0.0,0.0,0.0,0.0,0.0,0.0,0.0,0.0,0.0,0.0,0.0,0.0,0.0,0.0,0.0,0.0,0.0,0.0,0.0,0.0,0.0,0.0,0.0,0.0,0.0,0.0,0.0,0.0,0.0,0.0,0.0,0.0,0.0,0.0,0.8019,0.8715,0.9209,0.0,0.9574,0.9541,0.922,0.8785,0.828,0.7741,0.0,0.0,0.0,0.0,0.0,0.0,0.0,0.0,0.0,0.0,0.0,0.0,0.0,0.0,0.0,0.0,0.0,0.0,0.0,0.0,0.0,0.0,0.0,0.0,0.0,0.0,0.0,0.0,0.0,0.0,0.0,0.0,0.0,0.0,0.0,0.0,0.0,0.0,0.0,0.0,0.0,0.0,0.0,0.0,0.0,0.0,0.0,0.0,0.0,0.0,0.0,0.0,0.0,0.0,0.0,0.0,0.0,0.0,0.0,0.0,0.0,0.0,0.0,0.0,0.0,0.0,0.0,0.0,0.0,0.0,0.0,0.0,0.0,0.0,0.0,0.0,0.0,0.0,0.0,0.0,0.0,0.0,0.0,0.0,0.0,0.0,0.0,0.0,0.0,0.0,0.0,0.0,0.0,0.0,0.0,0.0,0.0,0.0,0.0,0.0,0.0,0.0,0.778,0.8606,0.9171,0.9291,0.9519,0.947,0.8922,0.8622,0.8057,0.0,0.0,0.0,0.0,0.0,0.0,0.0,0.0,0.0,0.0,0.0,0.0,0.0,0.0,0.0,0.0,0.0,0.0,0.0,0.0,0.0,0.0,0.0,0.0,0.0,0.0,0.0,0.0,0.0,0.0,0.0,0.0,0.0,0.0,0.0,0.0,0.0,0.0,0.0,0.0,0.0,0.0,0.0,0.0,0.0,0.0,0.0,0.0,0.0,0.0,0.0,0.0,0.0,0.0,0.0,0.0,0.0,0.0,0.0,0.0,0.0,0.0,0.0,0.0,0.0,0.0,0.0,0.0,0.0,0.0,0.0,0.0,0.0,0.0,0.0,0.0,0.0,0.0,0.0,0.0,0.0,0.0,0.0,0.0,0.0,0.0,0.0,0.0,0.0,0.0,0.0,0.0,0.0,0.0,0.0,0.0,0.0,0.0,0.0,0.0,0.0,0.0,0.0,0.7769,0.8459,0.8921,0.9041,0.9198,0.9166,0.8851,0.8497,0.804,0.7448,0.0,0.0,0.0,0.0,0.0,0.0,0.0,0.0,0.0,0.0,0.0,0.0,0.0,0.0,0.0,0.0,0.0,0.0,0.0,0.0,0.0,0.0,0.0,0.0,0.0,0.0,0.0,0.0,0.0,0.0,0.0,0.0,0.0,0.0,0.0,0.0,0.0,0.0,0.0,0.0,0.0,0.0,0.0,0.0,0.0,0.0,0.0,0.0,0.0,0.0,0.0,0.0,0.0,0.0,0.0,0.0,0.0,0.0,0.0,0.0,0.0,0.0,0.0,0.0,0.0,0.0,0.0,0.0,0.0,0.0,0.0,0.0,0.0,0.0,0.0,0.0,0.0,0.0,0.0,0.0,0.0,0.0,0.0,0.0,0.0,0.0,0.0,0.0,0.0,0.0,0.0,0.0,0.0,0.0,0.0,0.0,0.0,0.0,0.0,0.0,0.0,0.0,0.7562,0.8263,0.8725,0.8796,0.889,0.8965,0.872,0.859,0.825,0.7602,0.0,0.0,0.0,0.0,0.0,0.0,0.0,0.0,0.0,0.0,0.0,0.0,0.0,0.0,0.0,0.0,0.0,0.0,0.0,0.0,0.0,0.0,0.0,0.0,0.0,0.0,0.0,0.0,0.0,0.0,0.0,0.0,0.0,0.0,0.0,0.0,0.0,0.0,0.0,0.0,0.0,0.0,0.0,0.0,0.0,0.0,0.0,0.0,0.0,0.0,0.0,0.0,0.0,0.0,0.0,0.0,0.0,0.0,0.0,0.0,0.0,0.0,0.0,0.0,0.0,0.0,0.0,0.0,0.0,0.0,0.0,0.0,0.0,0.0,0.0,0.0,0.0,0.0,0.0,0.0,0.0,0.0,0.0,0.0,0.0,0.0,0.0,0.0,0.0,0.0,0.0,0.0,0.0,0.0,0.0,0.0,0.0,0.0,0.0,0.0,0.0,0.0,0.7201,0.8057,0.8573,0.8573,0.878,0.8823,0.8656,0.8782,0.8523,0.7789,0.0,0.0,0.0,0.0,0.0,0.0,0.0,0.0,0.0,0.0,0.0,0.0,0.0,0.0,0.0,0.0,0.0,0.0,0.0,0.0,0.0,0.0,0.0,0.0,0.0,0.0,0.0,0.0,0.0,0.0,0.0,0.0,0.0,0.0,0.0,0.0,0.0,0.0,0.0,0.0,0.0,0.0,0.0,0.0,0.0,0.0,0.0,0.0,0.0,0.0,0.0,0.0,0.0,0.0,0.0,0.0,0.0,0.0,0.0,0.0,0.9192,0.9342,0.0,0.0,0.0,0.0,0.0,0.0,0.0,0.0,0.0,0.0,0.0,0.0,0.0,0.0,0.0,0.0,0.0,0.0,0.0,0.0,0.0,0.0,0.0,0.0,0.0,0.0,0.0,0.0,0.0,0.0,0.0,0.0,0.0,0.0,0.0,0.0,0.0,0.0,0.0,0.0,0.7201,0.7992,0.8454,0.8454,0.8579,0.8739,0.8859,0.8701,0.8451,0.8115,0.7634,0.0,0.0,0.0,0.0,0.0,0.0,0.0,0.0,0.0,0.0,0.0,0.0,0.0,0.0,0.0,0.0,0.0,0.0,0.0,0.0,0.0,0.0,0.0,0.0,0.0,0.0,0.0,0.0,0.0,0.0,0.0,0.0,0.0,0.0,0.0,0.0,0.0,0.0,0.0,0.0,0.0,0.0,0.0,0.0,0.0,0.0,0.0,0.0,0.0,0.0,0.0,0.0,0.0,0.0,0.0,0.0,0.0,0.0,0.0,0.9844,0.9672,0.0,0.0,0.0,0.0,0.0,0.0,0.0,0.0,0.0,0.0,0.0,0.0,0.0,0.0,0.0,0.0,0.0,0.0,0.0,0.0,0.0,0.0,0.0,0.0,0.0,0.0,0.0,0.0,0.0,0.0,0.0,0.0,0.0,0.0,0.0,0.0,0.0,0.0,0.0,0.0,0.7089,0.7867,0.8436,0.8428,0.8733,0.8886,0.8956,0.8887,0.8751,0.8451,0.7998,0.0,0.0,0.0,0.0,0.0,0.0,0.0,0.0,0.0,0.0,0.0,0.0,0.0,0.0,0.0,0.0,0.0,0.0,0.0,0.0,0.0,0.0,0.0,0.0,0.0,0.0,0.0,0.0,0.0,0.0,0.0,0.0,0.0,0.0,0.0,0.0,0.0,0.0,0.0,0.0,0.0,0.0,0.0,0.0,0.0,0.0,0.0,0.0,0.0,0.0,0.0,0.0,0.0,1.0878,1.101,1.0931,1.1324,1.1628,1.1635,1.063,1.0243,1.04,1.0376,0.0,0.0,0.0,0.0,0.0,0.0,0.0,0.0,0.0,0.0,0.0,0.0,0.0,0.0,0.0,0.0,0.0,0.0,0.0,0.0,0.0,0.0,0.7602,0.7522,0.7481,0.7315,0.6931,0.0,0.0,0.0,0.0,0.0,0.0,0.0,0.0,0.0,0.0,0.0,0.6963,0.7857,0.8468,0.8567,0.8947,0.9166,0.9032,0.9203,0.9116,0.8747,0.8328,0.797,0.0,0.0,0.0,0.0,0.0,0.0,0.0,0.0,0.0,0.0,0.0,0.0,0.0,0.0,0.0,0.0,0.0,0.0,0.0,0.0,0.0,0.0,0.0,0.0,0.0,0.0,0.0,0.0,0.0,0.0,0.0,0.0,1.6025,1.5585,0.0,0.0,0.0,0.0,0.0,0.0,0.0,0.0,0.0,0.0,0.0,0.0,0.0,1.3968,1.3863,1.3408,1.2919,1.2516,1.2535,1.2377,1.1965,1.2047,1.2142,1.2078,1.1979,0.0,1.1095,1.1201,0.0,0.0,0.0,0.0,0.0,0.0,0.0,0.0,0.0,0.0,0.0,0.0,0.0,0.0,0.0,0.0,0.0,0.0,0.0,0.0,0.0,0.0,0.8899,0.8476,0.8294,0.8164,0.7972,0.7489,0.6991,0.6589,0.6333,0.0,0.0,0.0,0.0,0.0,0.0,0.0,0.7254,0.7974,0.8494,0.8757,0.8939,0.9088,0.9258,0.9172,0.9026,0.8883,0.8575,0.8228,0.7801,0.7312,0.0,0.0,0.0,0.0,0.0,0.0,0.0,0.0,0.0,0.0,0.0,0.0,0.0,0.0,0.0,0.0,0.0,0.0,0.0,0.0,0.0,0.0,0.0,0.0,0.0,0.0,0.0,0.0,0.0,1.6324,1.6245,1.5942,1.6075,1.6104,0.0,0.0,0.0,0.0,0.0,0.0,0.0,0.0,0.0,1.7725,1.7719,1.7627,1.7391,1.6823,1.6098,1.525,1.5,1.4493,1.3727,1.3475,1.3389,1.3395,1.3368,1.3128,1.252,1.1979,1.1844,1.197,0.0,0.0,0.0,0.0,1.1901,1.1705,1.0927,1.1325,1.2322,1.2909,0.0,0.0,0.0,0.0,0.0,0.0,0.0,1.102,1.039,0.9997,0.9669,0.9335,0.9322,0.9273,0.9125,0.876,0.828,0.0,0.7084,0.6866,0.6549,0.0,0.0,0.0,0.0,0.7053,0.7481,0.8138,0.866,0.886,0.9102,0.9234,0.9341,0.926,0.9151,0.9069,0.8696,0.8357,0.8079,0.7638,0.7075,0.0,0.0,0.0,0.0,0.0,0.0,0.0,0.0,0.0,0.0,0.0,0.0,0.0,0.0,0.0,0.0,0.0,0.0,0.0,0.0,0.0,0.0,0.0,0.0,0.0,0.0,0.0,0.0,1.6467,1.6585,1.6434,1.6509,1.6473,0.0,0.0,0.0,0.0,0.0,0.0,1.8624,1.9865,2.0479,2.0411,2.0693,2.0612,2.0246,1.9728,1.8866,1.7772,1.7255,1.6473,1.5521,1.4911,1.4653,1.4653,1.4611,1.4374,1.3901,1.2875,1.2538,1.2779,1.3005,1.2964,1.2898,1.2649,1.2621,1.2632,1.2112,1.2863,1.4101,1.4842,1.5485,1.5887,1.5419,0.0,0.0,0.0,0.0,1.2664,1.2166,1.1606,1.1123,1.0873,1.0848,1.087,1.0623,1.0501,0.9966,0.0,0.7973,0.7718,0.7483,0.0,0.0,0.0,0.0,0.7445,0.7716,0.8293,0.8742,0.8967,0.9245,0.9425,0.9442,0.9298,0.9244,0.9266,0.8816,0.8481,0.8429,0.7924,0.7353,0.6757,0.0,0.0,0.0,0.0,0.0,0.0,0.0,0.0,0.0,0.0,0.0,0.0,0.0,0.0,0.0,0.0,0.0,0.0,0.0,0.0,0.0,0.0,0.0,0.0,0.0,0.0,0.0,0.0,0.0,1.7057,1.7407,0.0,0.0,0.0,0.0,1.8599,1.9144,1.9521,1.9758,2.0935,2.1453,2.1292,2.1717,2.1842,2.163,2.1353,2.0675,1.9786,1.8837,1.7876,1.7,1.6049,1.5616,1.5609,1.5446,1.5283,1.5012,1.3832,1.3089,1.2828,1.3521,1.349,1.3176,1.3216,1.3302,1.3496,1.3682,1.4365,1.5561,1.7559,1.8306,1.8392,1.7589,1.7134,0.0,0.0,1.5928,1.5629,1.5044,1.4479,1.401,1.3608,1.3349,1.3154,1.2839,1.2722,1.2003,0.0,0.8844,0.8594,0.8392,0.0,0.754,0.787,0.7674,0.769,0.8179,0.8523,0.8817,0.9164,0.9293,0.9435,0.9568,0.9419,0.9318,0.9485,0.8967,0.8685,0.8678,0.8111,0.7651,0.7378,0.6885,0.0,0.0,0.0,0.0,0.0,0.0,0.0,0.0,0.0,0.0,0.0,0.0,0.0,0.0,0.0,0.0,0.0,0.0,0.0,0.0,0.0,0.0,0.0,0.0,0.0,0.0,0.0,0.0,1.7879,1.8163,0.0,1.8424,1.8476,1.8823,1.973,2.0508,2.1188,2.1904,2.2882,2.3579,2.3755,2.4344,2.458,2.4327,2.4246,2.3682,2.2578,2.1618,2.0752,1.9786,1.8608,1.8122,1.8104,1.7913,1.7637,1.7455,1.6848,1.5546,1.4021,1.4386,1.4274,1.401,1.4019,1.4293,1.4664,1.4796,1.5739,1.7208,1.8559,1.8998,1.8855,1.8396,1.795,1.7564,1.7314,1.6945,1.6425,1.5857,1.532,1.4844,1.4375,1.4346,1.4295,1.4038,1.3907,1.3558,1.2472,1.1713,1.0994,1.0371,0.9713,0.9144,0.8954,0.8538,0.8322,0.8535,0.8728,0.8847,0.9015,0.8974,0.9037,0.9249,0.9585,0.9784,0.9625,0.9399,0.9114,0.8764,0.807,0.7529,0.7231,0.6973,0.6539,0.0,0.0,0.0,0.0,0.0,0.0,0.0,0.0,0.0,0.0,0.0,0.0,0.0,0.0,0.0,0.0,0.0,0.0,0.0,0.0,0.0,0.0,0.0,0.0,0.0,1.7556,1.8012,1.8503,1.8815,1.9129,1.941,1.9593,2.012,2.106,2.1873,2.2566,2.3241,2.4075,2.465,2.4996,2.5595,2.5868,2.5699,2.5699,2.5172,2.4321,2.3276,2.2364,2.1591,2.0406,1.9883,1.9779,1.9567,1.9365,1.9154,1.8851,1.7713,1.6069,1.5863,1.5624,1.5426,1.5426,1.5676,1.615,1.6509,1.7612,1.8905,1.9364,1.943,1.9277,1.8927,1.8565,1.8312,1.8244,1.791,1.7433,1.7027,1.6552,1.6086,1.5774,1.5752,1.5763,1.5612,1.5445,1.5218,1.498,1.3881,1.2737,1.1998,1.1151,1.0468,1.0057,0.9426,0.9,0.9049,0.9147,0.9189,0.9085,0.9042,0.9119,0.9541,1.0004,1.0236,1.0186,0.9937,0.9543,0.9001,0.8175,0.7567,0.7307,0.6968,0.6505,0.5912,0.0,0.0,0.0,0.0,0.0,0.0,0.0,0.0,0.0,0.0,0.0,0.0,0.0,0.0,0.0,0.0,0.0,0.0,0.0,0.0,0.0,0.0,0.0,1.7468,1.7797,1.8295,1.8919,1.9363,1.9961,2.0818,2.1023,2.1512,2.2644,2.3155,2.3519,2.3783,2.4353,2.4749,2.4749,2.5177,2.5433,2.5421,2.5421,2.5165,2.4714,2.3608,2.2807,2.2288,2.1127,2.0604,2.0594,2.0362,2.0129,1.9917,1.9684,1.9409,1.8936,1.801,1.7568,1.7455,1.7445,1.7538,1.7827,1.8835,1.9887,2.0581,2.005,1.9881,1.9784,1.9241,1.9072,1.9072,1.9072,1.8891,1.8686,1.8674,1.8275,1.7865,1.7865,1.7672,1.7479,1.7479,1.7274,1.7008,1.6742,1.5122,1.3613,1.3073,1.2105,1.1344,1.121,1.0325,0.0,0.9849,0.9864,0.9796,0.9578,0.9548,0.98,1.0473,1.0629,1.0789,1.1091,1.0491,0.9914,0.9461,0.8466,0.7827,0.7671,0.6902,0.6261,0.5813,0.0,0.0,0.0,0.0,0.0,0.0,0.0,0.0,0.0,0.0,0.0,0.0,0.0,0.0,0.0,0.0,0.0,0.0,0.0,0.0,0.0,1.7491,1.7816,1.7822,1.8172,1.873,1.9354,1.9798,2.0394,2.1356,2.2026,2.2772,2.3614,2.4453,2.4913,2.4899,2.5141,2.5177,2.5177,2.5348,2.5349,2.5071,2.5071,2.4963,2.4592,2.4353,2.4068,2.3973,2.3386,2.3085,2.2901,2.2648,2.2395,2.213,2.1955,2.177,2.1414,1.9321,1.8422,1.8214,1.8045,1.8338,1.8835,1.9617,2.0238,2.0581,2.005,1.9881,1.9784,1.9241,1.9072,1.9072,1.9072,1.8891,1.8638,1.8444,1.8143,1.7829,1.7636,1.7539,1.743,1.7237,1.7141,1.696,1.6489,1.5948,1.5315,1.4537,1.3847,1.3224,1.2797,1.2099,0.0,1.1701,1.154,1.1371,1.1318,1.1062,1.1021,1.1434,1.1688,1.1826,1.1775,1.1258,1.0682,1.0067,0.8774,0.7745,0.7135,0.6818,0.6471,0.0,0.0,0.0,0.0,0.0,0.0,0.0,0.0,0.0,0.0,0.0,0.0,0.0,0.0,0.0,0.0,0.0,0.0,0.0,0.0,0.0,0.0,1.8685,1.9095,1.9321,1.9323,1.9586,2.0046,2.0492,2.1136,2.1934,2.2821,2.3577,2.4137,2.498,2.5433,2.5433,2.5252,2.5192,2.5192,2.5156,2.5023,2.4866,2.4866,2.4782,2.4625,2.4516,2.4468,2.4456,2.4082,2.3748,2.3592,2.3393,2.3128,2.2939,2.2794,2.2661,2.2413,0.0,0.0,0.0,0.0,1.9642,2.0014,2.0274,2.0527,2.0581,2.005,1.9881,1.9784,1.9241,1.9072,1.9048,1.8939,1.8722,1.8456,1.8191,1.7913,1.7672,1.7515,1.7394,1.7274,1.7129,1.6911,1.6658,1.6344,1.6187,0.0,1.544,1.4815,1.4223,1.3727,1.3176,1.2768,1.2627,1.2457,1.2312,1.2077,1.1887,1.1854,1.2173,1.2453,0.0,0.0,0.0,1.1154,0.9766,0.8808,0.0,0.0,0.0,0.0,0.0,0.0,0.0,0.0,0.5806,0.5969,0.0,0.0,0.0,0.0,0.0,0.0,0.0,0.0,0.0,0.0,0.0,0.0,0.0,0.0,0.0,0.0,2.0023,2.0656,2.1318,2.1021,2.0795,2.1044,2.146,2.206,2.271,2.3424,2.397,2.4349,2.5003,2.5373,2.5349,2.5035,0.0,0.0,0.0,2.4613,2.4589,2.4576,2.4564,2.454,2.4275,2.4142,2.4049,2.3556,2.3315,2.3267,2.3104,2.2927,2.2685,2.2685,2.2527,2.2211,2.2211,2.2042,2.1716,2.1304,2.111,2.105,2.075,0.0,0.0,2.005,1.9869,1.9748,1.9229,1.9072,1.9024,1.8758,1.8493,1.8227,1.795,1.7684,1.7479,1.7479,1.7286,1.708,1.7056,1.6646,1.6272,1.6235,1.6054,1.5885,1.5885,1.5244,1.4654,1.4439,1.3922,1.3452,1.3203,1.3131,1.2946,1.2535,0.0,0.0,1.2926,1.3102,1.3093,1.294,1.2609,1.1417,0.9122,0.8805,0.8372,0.7635,0.7701,0.7603,0.7313,0.7251,0.7091,0.6797,0.6538,0.658,0.0,0.0,0.0,0.0,0.0,0.0,0.0,0.0,0.0,0.0,0.0,0.0,0.0,0.0,0.0,2.034,2.1216,2.1908,2.2269,2.2714,2.2892,2.2407,2.2597,2.2954,2.3447,2.3928,2.4258,2.438,2.4818,2.4939,2.4794,2.4733,2.4709,2.4709,2.4661,2.4528,2.4311,2.4311,2.4202,2.3904,2.3652,0.0,2.3519,2.3273,2.3007,2.2802,2.283,2.2661,2.2406,2.2406,2.2186,2.1945,2.1945,2.1643,2.1268,2.1171,2.0931,2.0738,2.0759,2.0533,2.0303,1.9989,1.9736,1.9495,1.9169,1.9072,0.0,1.8758,1.8493,1.8227,1.795,1.7684,1.7479,1.7479,1.7286,1.7032,1.6827,1.6513,1.6223,1.6006,1.5922,1.5885,1.5885,1.5779,1.5618,1.5565,1.5282,1.5077,1.4978,1.4616,1.4325,1.422,1.401,1.3918,1.4016,1.3862,1.3743,1.3694,1.2699,1.1372,0.9767,0.9461,0.9071,0.85,0.8525,0.8564,0.8561,0.8261,0.7879,0.7421,0.7115,0.7082,0.0,0.0,0.0,0.0,0.0,0.0,0.0,0.0,0.0,0.0,0.0,1.6783,1.795,0.0,2.0817,2.1582,2.2412,2.314,2.3528,2.3927,2.3932,2.325,2.3298,2.3451,2.372,2.4023,2.419,2.4186,2.4592,2.477,2.4637,2.4504,2.4432,2.4432,2.4299,2.4178,2.4045,2.3913,2.37,2.3568,2.3381,2.3249,2.3237,2.3048,2.2854,2.2721,2.2455,2.2186,2.2054,2.1921,2.1716,2.1462,2.1462,2.1377,2.111,2.0977,2.0856,2.0653,2.0521,2.0388,2.0207,1.9808,1.9579,1.9487,1.9157,1.8988,1.8819,1.8565,1.83,1.8022,1.7744,1.7575,1.7455,1.7322,1.708,1.6827,1.6549,1.638,1.6235,1.6115,1.6091,1.6091,1.6091,1.5982,1.5885,1.5885,1.5668,1.5451,1.5318,1.4956,1.4666,1.4521,1.4377,1.4292,1.4292,1.4051,1.3906,1.3906,1.2825,1.1647,1.0468,1.0315,0.9966,0.93,0.9451,0.9456,0.9217,0.8761,0.8237,0.7699,0.755,0.7516,0.0,0.0,0.0,0.0,0.0,0.0,0.0,0.0,1.3045,1.3893,1.546,1.6999,1.8212,2.0081,2.1712,2.2533,2.3315,2.4045,2.442,2.4516,2.4282,2.3793,2.3813,2.3871,2.3871,2.4008,2.4116,2.4057,2.4305,2.4528,2.448,2.4275,2.4142,2.4082,2.3796,2.3664,2.3695,2.3478,2.3369,2.3369,2.3092,2.3012,2.2963,2.2697,2.2552,2.2479,2.1981,2.18,2.1776,2.151,2.1257,2.1122,2.1074,2.105,2.1026,2.075,2.0665,2.0629,2.0364,2.0243,2.0122,1.9693,1.9434,1.935,1.9145,1.8891,1.8625,1.8372,1.8094,1.7817,1.7551,1.7479,1.7418,1.7153,1.6887,1.6622,1.6344,1.6235,1.6223,1.6272,1.6235,1.6223,1.6272,1.6066,1.5885,1.5885,1.562,1.5342,1.5137,1.4835,1.4545,1.4328,1.4292,1.4292,1.4292,1.4099,1.3978,1.3978,1.3124,1.2202,1.1261,1.1265,1.0996,1.0436,1.0482,1.0314,0.9836,0.9185,0.8497,0.7855,0.7855,0.7855,0.9429,1.0315,1.146,1.1818,1.2368,1.2881,0.0,0.0,1.2972,1.4066,1.5293,1.6644,1.8197,2.0117,2.1631,2.2318,2.3433,2.4049,2.3868,2.4049,2.4121,2.3836,2.422,2.4507,2.4507,2.4483,2.4446,2.4217,2.4193,2.4178,2.3868,2.382,2.37,2.3471,2.3435,2.3381,2.3218,2.3181,2.3169,2.3169,2.2903,2.2648,2.2418,2.2078,2.1836,2.1607,2.1547,2.1523,2.1498,2.1292,2.1159,2.111,2.0868,2.0714,2.0702,2.0678,2.0665,2.0629,2.0364,2.0122,1.9881,1.9633,1.9314,1.912,1.9084,1.8891,1.8625,1.8372,1.8094,1.7817,1.7551,1.7479,1.7418,1.7153,1.6887,1.6622,1.6344,1.6103,1.6006,1.6235,1.6091,1.6006,1.6235,1.6066,1.5885,1.5885,1.5475,1.5137,1.5113,1.4666,1.4328,1.4304,1.4292,1.4292,1.4292,1.4268,1.4256,1.4256,1.3705,1.3065,1.2361,1.2278,1.2241,1.2219,1.1702,1.1317,1.1007,1.0,0.8985,0.7961,0.7961,0.7961,1.0188,1.0774,1.1393,1.1646,1.1999,1.2221,1.2219,1.2069,1.23,1.3197,1.4398,1.568,1.6936,1.9129,2.0901,0.0,2.2847,2.3832,2.3568,2.376,2.3913,2.3568,2.3671,2.3828,2.4142,2.4166,2.413,2.4021,2.4009,2.3808,2.3556,2.3531,2.349,2.3225,2.3212,2.3164,2.3121,2.2975,2.2891,2.2891,2.2467,2.2212,2.2029,2.1764,2.1498,2.1304,2.1304,2.1148,2.1003,2.0883,2.0904,2.0892,2.0714,2.0665,2.0665,2.0665,2.0569,2.04,2.0146,1.9869,1.9603,1.9326,1.9169,1.9048,1.8891,1.8662,1.8396,1.8131,1.7962,1.7817,1.7551,1.7599,1.7563,1.6996,1.6779,1.6585,1.6151,1.6091,1.6199,1.6477,1.6308,1.6211,1.6477,1.6042,1.5656,1.5656,1.5342,1.5052,1.4896,1.4545,1.4292,1.4292,1.4292,1.4292,1.4292,1.4292,1.4292,1.4292,1.3919,1.3488,1.2885,1.2995,1.2995,1.2837,1.2512,1.2019,1.1414,1.0502,0.9426,0.8237,0.8237,0.8137,1.0656,1.0968,1.1287,1.1552,1.1789,1.1945,1.1904,1.185,1.2004,1.2547,1.3604,1.4716,1.5707,1.7893,1.9611,2.0157,2.1737,2.2894,2.2725,2.2922,2.3103,2.2919,2.293,2.3092,2.3478,2.3575,2.3623,2.3623,2.3623,2.3538,2.3345,2.3345,2.3212,2.3024,2.3012,2.2975,2.2903,2.2721,2.2588,2.2503,2.2128,2.1788,2.1631,2.1378,2.1148,2.1026,2.1026,2.0917,2.0665,2.0665,2.0665,2.0665,2.0665,2.0617,2.0557,2.0557,2.0436,2.0231,1.9893,1.9639,1.9487,1.9157,1.9072,1.9024,1.8758,1.8505,1.8239,1.795,1.7817,1.772,1.7527,1.7624,1.7587,1.6875,1.6706,1.6549,1.6006,1.6042,1.6272,1.6634,1.6416,1.6284,1.6634,1.603,1.5475,1.5403,1.5161,1.4932,1.4739,1.4473,1.4292,1.4292,1.4292,1.4292,1.4292,1.4292,1.4292,1.4292,1.4112,1.3823,1.3463,1.363,1.363,1.3414,1.3147,1.2651,1.1901,1.1042,0.9961,0.8726,0.8577,0.8336,1.0602,1.1043,1.1423,1.1579,1.1952,1.2237,1.2088,1.2169,1.2381,1.2618,1.3154,1.3891,1.4918,1.6542,1.7959,1.8719,1.9867,2.0713,2.088,2.123,2.1521,2.1731,2.2285,2.2745,2.2757,2.3,2.3145,2.3145,2.3145,2.3145,2.3133,2.3133,2.3012,2.2745,2.2745,2.2612,2.2358,2.2358,2.2138,2.1897,2.1873,2.1595,2.1147,2.088,2.069,2.0678,2.0678,2.0747,2.0665,2.0665,2.0665,2.0665,2.0665,2.0509,2.0291,2.0291,2.0279,2.0195,1.973,1.9536,1.9487,1.9157,1.9072,1.9024,1.8758,1.8505,1.8239,1.795,1.7696,1.7491,1.7491,1.7491,1.7358,1.6827,1.6706,1.6549,1.6006,1.5897,1.6054,1.6598,1.6272,1.6066,1.661,1.603,1.5415,1.5161,1.4896,1.4727,1.4714,1.4473,1.4292,1.4292,1.4292,1.4292,1.4292,1.4292,1.4292,1.4292,1.4292,1.4292,1.4244,1.4244,1.4244,1.4244,1.3727,1.3184,1.2678,1.1678,1.06,0.9558,0.9023,0.8528,1.0894,1.1341,1.1721,1.1877,1.2176,1.242,1.2366,1.2318,1.2326,1.2319,1.2241,1.2408,1.3069,1.4309,1.55,1.6202,1.7635,1.8652,1.8886,1.9917,2.0626,2.0846,2.1806,2.2467,2.2467,2.2866,0.0,2.3121,2.3121,2.3048,2.2866,2.2854,2.2745,2.2479,2.2467,2.2346,2.2005,2.2005,2.1873,2.1607,2.1426,2.1148,2.0798,2.0702,2.0665,2.0665,2.0665,2.0665,2.0665,2.0665,2.0569,2.0412,2.0412,2.0243,1.9989,1.9808,1.9736,1.9712,1.9531,1.935,1.9193,1.9108,1.8963,1.877,1.8505,1.8227,1.7962,1.7696,1.7672,1.7696,1.7527,1.7479,1.7346,1.6827,1.6561,1.632,1.597,1.5885,1.6054,1.6598,1.626,1.6066,1.661,1.5885,1.5089,1.4642,1.4497,1.4437,1.4437,1.4352,1.4292,1.4292,1.4292,1.4377,1.4558,1.4401,1.4377,1.457,1.4401,1.4292,1.4292,1.4112,1.3968,1.3775,1.3437,1.3001,1.2506,1.1785,1.0895,0.9854,0.932,0.8684,1.1206,1.1613,1.1952,1.2108,1.2325,1.2488,1.244,1.2311,1.2135,1.1877,1.1586,1.1432,1.179,1.2727,1.3655,1.4299,1.5602,1.6681,1.7199,1.8379,1.9385,1.993,2.1048,2.1873,2.2035,2.2561,0.0,2.2842,2.2842,2.277,2.26,2.2588,2.2515,2.2346,2.2249,2.2042,2.1873,2.1776,2.1595,2.1329,2.1122,2.0904,2.0665,2.0665,2.0617,2.0533,2.0533,2.0472,2.0388,2.0388,2.0291,2.0134,2.0134,1.9977,1.9712,1.9531,1.941,1.939,1.939,1.9217,1.906,1.8963,1.8819,1.8613,1.8251,1.8022,1.7817,1.7563,1.7599,1.7696,1.7527,1.7418,1.7237,1.6803,1.6489,1.6211,1.5946,1.5885,1.6018,1.6465,1.6187,1.603,1.6477,1.5753,1.492,1.4377,1.4292,1.4292,1.4292,1.4292,1.4292,1.4292,1.4292,1.4413,1.469,1.4461,1.4413,1.4702,1.4449,1.4292,1.4292,1.3968,1.3593,1.3232,1.2953,1.2759,1.2506,1.1873,1.1189,1.0386,0.9673,0.8882,1.1525,1.1864,1.2128,1.2271,1.2393,1.2454,1.2311,1.2149,1.1898,1.145,1.1111,1.0913,0.0,0.0,1.2285,1.2982,1.377,1.4712,1.5728,1.6669,1.7711,0.0,0.0,0.0,0.0,0.0,0.0,2.2334,0.0,2.2334,2.2334,2.2321,2.2321,2.2321,2.1993,2.1848,2.1824,2.1571,2.1305,2.111,2.0786,2.0665,2.0665,2.0653,2.0509,2.0279,2.0267,2.0122,1.9881,1.9881,1.9881,1.9869,1.9869,1.9688,1.9512,1.9512,1.9289,1.9072,1.906,1.906,1.9012,1.8782,1.8674,1.8553,1.8034,1.7865,1.7805,1.7551,1.7479,1.7479,1.7479,1.7274,1.7008,1.6754,1.6477,1.6187,1.5946,1.5885,1.597,1.6223,1.6079,1.597,1.6187,1.5608,1.492,1.4377,1.4292,1.4292,1.4292,1.4292,1.4292,1.4292,1.4292,1.4413,1.469,1.4461,1.4413,1.4702,1.4449,1.4292,1.4292,1.3775,1.3232,1.2678,1.2457,1.2457,1.263,1.1922,1.1433,1.1121,1.006,0.9031,1.1884,1.225,1.2542,1.2467,1.2393,1.2305,1.2155,1.183,1.1436,1.0982,1.0473,1.0093,0.0,0.0,0.0,1.1382,1.2023,0.0,1.3597,1.4762,0.0,1.6873,0.0,2.0274,2.0661,2.1648,0.0,0.0,2.2334,2.2334,2.2334,2.2078,2.1969,2.1969,2.1716,2.1474,2.134,2.1003,2.0834,2.0762,2.0702,2.0665,2.0665,2.046,2.034,2.0267,2.0074,1.9953,1.9881,1.9881,1.976,1.9567,1.9567,1.941,1.9181,1.9181,1.9132,1.9048,1.8855,1.8782,1.8807,1.8939,1.8565,1.8058,1.7913,1.7732,1.7563,1.7503,1.7479,1.7479,1.7479,1.7141,1.6779,1.6718,1.6332,1.597,1.5897,1.5885,1.597,1.6223,1.6223,1.6018,1.5499,1.5246,1.492,1.4377,1.4292,1.4292,1.4292,1.4292,1.4292,1.4292,1.4292,1.4413,1.469,1.4461,1.4413,1.4702,1.4449,1.4292,1.4292,1.3582,1.2894,1.2193,1.1922,1.1736,1.158,1.1189,1.0895,1.0583,0.9723,0.884,1.2142,1.244,1.2678,1.2461,1.2298,1.2115,1.183,1.1416,1.0948,1.0432,0.9849,0.9449,0.9517,0.9598,0.9876,0.0,0.0,0.0,1.2621,1.362,1.4718,0.0,1.7626,0.0,1.9531,2.0597,2.1274,0.0,2.196,2.2285,2.209,2.1957,2.1824,2.1704,2.1438,2.116,2.0965,2.0807,2.0665,2.0665,2.0665,2.0605,2.0496,2.0352,2.0146,1.9917,1.9772,1.9639,1.9531,1.9531,1.9434,1.9289,1.9289,1.9277,1.9253,1.9253,1.9169,1.9072,1.9036,1.8722,1.8348,1.8505,1.8239,1.7853,1.7732,1.7599,1.7479,1.7479,1.7479,1.7479,1.7479,1.7092,1.6706,1.6706,1.6284,1.5885,1.5885,1.5885,1.5934,1.6079,1.6199,1.6066,1.539,1.5282,1.5101,1.4558,1.4377,1.4292,1.4292,1.4292,1.4292,1.4292,1.4292,1.4413,1.469,1.4461,1.4413,1.4702,1.4449,1.4292,1.4292,1.3437,1.2554,1.1658,1.114,1.0748,1.0502,1.0216,1.006,1.0051,0.932,0.8634,1.2332,1.2535,1.2684,1.2372,1.2162,1.1911,1.1436,1.0955,1.0432,0.9829,0.9175,0.8866,0.9064,0.9125,0.9391,1.0073,0.0,1.1427,1.2221,1.2887,1.3771,1.5064,1.6321,1.7398,1.8158,1.9002,1.9682,2.0059,2.1239,2.1879,2.1811,2.18,2.1643,2.1378,2.1207,2.0965,2.0665,2.0665,2.0665,2.0665,2.0665,2.0533,2.0279,2.0243,1.9941,1.9524,1.9434,1.9289,1.9072,1.9072,1.9096,1.9132,1.9132,1.9289,1.9519,1.9519,1.9338,1.9096,1.9366,1.871,1.7877,1.7913,1.7877,1.7781,1.7551,1.7479,1.7479,1.7479,1.7479,1.7479,1.7479,1.7092,1.6706,1.6706,1.6284,1.5885,1.5885,1.5885,1.5885,1.5885,1.6066,1.6066,1.5584,1.5499,1.5318,1.4799,1.4509,1.434,1.4304,1.4292,1.4292,1.4292,1.4292,1.4401,1.4642,1.4437,1.4401,1.4642,1.4437,1.4292,1.4292,1.334,1.236,1.1268,1.0502,0.9912,0.9558,0.9327,0.9278,0.946,0.8973,0.8478,1.2535,1.2691,1.282,1.24,1.2081,1.1721,1.1089,1.048,0.0,0.0,0.8561,0.8241,0.8397,0.8621,0.8994,0.9625,1.0432,1.1097,1.1564,1.2086,1.2754,0.0,1.4557,1.5557,1.6101,1.716,0.0,0.0,1.934,2.0336,2.1358,2.1306,2.1147,2.0822,2.0762,2.0783,2.0665,2.0665,2.0665,2.0665,2.0665,2.0533,2.0267,2.005,1.9772,1.9524,1.9241,0.0,1.9072,1.9072,1.9205,1.9398,1.9398,1.9567,1.9808,1.9808,1.9495,1.9048,1.8879,1.8408,1.7913,1.8143,1.7913,1.7539,1.7491,1.7479,1.7479,1.7479,1.7479,1.7479,1.7479,1.7092,1.6706,1.6706,1.6284,1.5885,1.5885,1.5885,1.5885,1.5885,1.5922,1.5861,1.5547,1.5499,1.5318,1.4799,1.4678,1.4558,1.4328,1.4292,1.4292,1.4292,1.4292,1.4316,1.4364,1.4328,1.4316,1.4364,1.4328,1.4292,1.4292,1.3485,1.2554,1.156,1.0944,1.0216,0.9278,0.9236,0.913,0.8924,0.8627,0.8287,1.2583,1.2725,1.2834,1.2305,1.1884,1.1443,1.0846,0.0,0.0,0.0,0.8228,0.7855,0.8004,0.8214,0.0,0.9164,0.9951,1.0643,1.1097,1.1674,0.0,1.2863,1.3709,1.4499,0.0,1.5718,1.6362,1.6869,1.756,1.8696,2.032,2.071,2.0798,2.0665,2.0665,2.0665,2.0665,2.0665,2.0605,2.046,2.046,2.0255,1.9857,1.9724,1.9519,1.9253,1.9132,1.9157,1.9277,1.9277,1.9434,1.9688,1.9688,1.9857,2.0074,1.9941,1.9543,1.9036,1.877,1.8239,1.7696,1.7829,1.7696,1.7479,1.7479,1.7479,1.7479,1.7479,1.7479,1.7479,1.7479,1.7092,1.6706,1.6706,1.6284,1.5885,1.5885,1.5885,1.5885,1.5885,1.6006,1.6006,1.5741,1.5704,1.5572,1.5185,1.4896,1.4666,1.4533,1.4389,1.4292,1.4292,1.4292,1.4292,1.4292,1.4292,1.4292,1.4292,1.4292,1.4292,1.4292,1.3678,1.2942,1.2193,1.1433,1.0453,0.9418,0.913,0.8783,0.8379,0.8237,0.8137,1.2576,1.2725,1.2899,1.2285,1.1721,1.1226,1.0588,0.9727,0.0,0.0,0.7916,0.7543,0.7692,0.7841,0.8083,0.0,0.9395,1.0066,1.0604,1.1321,1.1923,0.0,1.3137,0.0,1.396,1.4268,0.0,1.5236,1.5972,1.7335,1.9465,2.018,2.0596,2.0665,2.0665,2.0665,2.0665,2.0665,2.0533,2.0279,2.0279,1.9989,1.9536,1.9536,1.9326,1.9072,1.9072,1.9229,1.9536,1.9536,1.9664,1.9977,1.9977,2.0098,2.0255,2.005,1.9555,1.8963,1.8758,1.8155,1.7479,1.7479,1.7479,1.7479,1.7479,1.7479,1.7479,1.7479,1.7479,1.7479,1.7479,1.7092,1.667,1.6549,1.6199,1.5885,1.5885,1.5885,1.5885,1.5885,1.6054,1.6127,1.5922,1.5885,1.5801,1.5535,1.5149,1.4847,1.4727,1.457,1.4449,1.4389,1.4328,1.4292,1.4292,1.4292,1.4292,1.4292,1.4292,1.4292,1.4292,1.3823,1.334,1.2775,1.1922,1.0895,0.9756,0.927,0.8748,0.8135,0.8135,0.8156,1.2549,1.2725,1.2899,1.2285,1.1721,1.1199,1.0466,0.0,0.8621,0.8123,0.755,0.7186,0.738,0.7536,0.7794,0.8255,0.0,0.9442,0.9984,1.088,1.1538,1.1837,0.0,0.0,1.2656,1.2733,1.2825,1.3119,1.4588,1.6621,1.9329,1.9924,2.0318,2.0665,2.0665,2.0665,2.0665,2.0665,2.0533,2.0279,2.0279,1.9989,1.9536,1.9536,1.9326,1.9072,1.9072,1.9229,0.0,1.9536,1.9772,2.0243,2.0243,2.0255,2.0279,2.0255,1.9591,1.8722,1.8698,1.8155,1.7479,1.7479,1.7479,1.7479,1.7479,1.7479,1.7479,1.7479,1.7479,1.7479,1.7479,1.7092,1.6573,1.6079,1.5922,1.5885,1.5885,1.5885,1.5885,1.5885,1.591,1.5922,1.5897,1.5885,1.5801,1.5535,1.5451,1.5258,1.4775,1.4908,1.4944,1.4702,1.4449,1.4292,1.4292,1.4292,1.4292,1.4292,1.4292,1.4292,1.4292,1.4016,1.363,1.3076,1.2554,1.1639,1.0314,1.0019,0.9456,0.8656,0.8656,0.8573,1.2393,1.2596,1.2678,1.2074,1.1586,1.1056,1.0374,0.0,0.8472,0.8062,0.751,0.7112,0.7217,0.736,0.7577,0.7936,0.8418,0.8994,0.9686,1.0399,1.0995,1.1382,1.1748,0.0,0.0,0.0,1.2447,1.3274,1.4864,1.6609,1.8422,1.9122,1.9831,2.0665,2.0665,2.0665,2.0665,2.0665,2.046,2.0038,2.0038,1.976,1.9229,1.9229,1.9169,1.9084,1.9241,1.9374,0.0,1.9652,1.9845,2.0038,2.0038,2.0038,2.0026,1.9857,1.9314,1.8662,1.8505,1.8022,1.7479,1.7479,1.7479,1.7479,1.7479,1.7479,1.7479,1.7479,1.7479,1.7479,1.7479,1.7092,1.6561,1.6018,1.5885,1.5885,1.5885,1.5885,1.5885,1.5885,1.5885,1.5885,1.5885,1.5885,1.5849,1.5753,1.5596,1.5427,1.5209,1.5137,1.5065,1.4968,1.4847,1.4727,1.4558,1.4545,1.4473,1.4304,1.4461,1.4545,1.4545,1.4604,1.4467,1.4056,1.3565,1.279,1.1765,1.1213,1.0364,0.9384,0.9175,0.8893,1.2128,1.2372,1.2467,1.1904,1.143,1.09,0.0,0.9205,0.8384,0.8045,0.7483,0.7098,0.7098,0.7231,0.7387,0.7638,0.8018,0.8513,0.9184,0.9863,0.0,0.0,0.0,1.1538,0.0,1.1814,1.2438,1.3655,1.5077,1.6523,1.8002,1.8633,1.9552,2.0665,2.0665,2.0665,2.0665,2.0665,2.04,1.9881,1.9881,1.9603,1.9072,1.9072,1.9072,1.9084,1.9265,1.9463,0.0,1.9676,1.9808,1.9881,1.9881,1.9833,1.9736,1.9543,1.9084,1.8541,1.836,1.7937,1.7479,1.7479,1.7479,1.7479,1.7479,1.7479,1.7479,1.7479,1.7479,1.7443,1.7286,1.6972,1.6561,1.6018,1.5885,1.5885,1.5885,1.5885,1.5885,1.5885,1.5885,1.5885,1.5885,1.5885,1.5885,1.5885,1.5728,1.5584,1.5511,1.5403,1.5306,1.5234,1.5294,1.5197,1.4859,1.4835,1.4751,1.4545,1.4727,1.4835,1.4835,1.5004,1.5016,1.4835,1.4375,1.3773,1.304,1.2314,1.136,1.0244,0.9959,0.9467,1.1755,1.206,1.2189,1.1735,1.1287,1.0685,0.9998,0.9123,0.8357,0.7909,0.7409,0.7098,0.7098,0.7098,0.7146,0.7353,0.7624,0.7977,0.8431,0.9266,0.0,0.0,0.0,1.1226,1.1382,1.1888,1.2683,1.3994,1.4639,0.0,1.8272,1.8773,1.9552,2.0665,2.0665,2.0665,2.0665,2.0665,2.04,1.9881,1.9881,1.9603,1.9072,1.9072,1.9072,1.9072,1.9084,1.9229,0.0,1.947,1.9639,1.9881,1.9881,1.9712,1.947,1.9536,1.8976,1.83,1.83,1.7937,1.7479,1.7479,1.7479,1.7479,1.7479,1.7479,1.7479,1.7479,1.7479,1.7358,1.6839,1.6706,1.6561,1.6018,1.5885,1.5885,1.5885,1.5885,1.5885,1.5885,1.5885,1.5885,1.5885,1.5885,1.5885,1.5885,1.5885,1.5789,1.5535,1.5728,1.5777,1.5523,1.5728,1.5668,1.5149,1.5101,1.5101,1.5101,1.5101,1.5101,1.5101,1.5113,1.5113,1.5101,1.4847,1.4429,1.3908,1.3346,1.2479,1.1265,1.0999,1.0347,1.1294,1.1525,1.1592,1.1246,1.0826,1.0324,0.9666,0.8906,0.8235,0.7882,0.7409,0.7098,0.7098,0.7098,0.7179,0.7489,0.7604,0.0,0.0,0.0,0.0,1.0073,1.0738,1.1255,0.0,0.0,1.2847,1.3546,1.4927,1.6452,1.8002,1.8912,1.982,2.0665,2.0665,2.0665,2.0665,2.0665,2.04,1.9881,1.9881,1.9603,1.9072,1.9072,1.9072,1.9084,1.9265,1.9354,1.9217,1.9386,1.941,1.9326,1.9326,1.9169,1.8927,1.8927,1.8541,1.801,1.801,1.7781,1.7479,1.7479,1.7479,1.7479,1.7479,1.7479,1.7479,1.7479,1.7479,1.7358,1.6839,1.6706,1.6561,1.6018,1.5885,1.5885,1.5885,1.5885,1.5885,1.5885,1.5885,1.5885,1.5885,1.5885,1.5885,1.5885,1.5885,1.5861,1.5777,1.5837,1.5861,1.5777,1.5837,1.5753,1.5403,1.5378,1.5306,1.5113,1.5282,1.5378,1.5378,1.5547,1.5559,1.5378,1.5275,1.5076,1.4695,1.4304,1.3404,1.2018,1.1188,1.0358,1.0616,1.0853,1.09,1.0595,1.027,0.9869,0.9266,0.8642,0.8099,0.7794,0.7368,0.7098,0.7098,0.7098,0.7179,0.7475,0.7563,0.7821,0.0,0.0,0.0,1.0229,0.0,0.0,0.0,1.2015,1.2757,1.346,1.4893,1.6452,1.8002,1.8912,1.9715,2.0521,2.0617,2.0617,2.0521,2.0521,2.0255,1.9724,1.9724,1.9495,1.9072,1.9072,1.9072,1.9084,1.9253,1.9229,0.0,1.9253,1.9217,1.9072,1.9072,1.8915,1.8686,1.8686,1.8336,1.7877,1.7877,1.7696,1.7479,1.7479,1.7479,1.7479,1.7479,1.7479,1.7479,1.7479,1.7479,1.7358,1.6839,1.6706,1.6561,1.6018,1.5885,1.5885,1.5885,1.5885,1.5885,1.5885,1.5885,1.5885,1.5885,1.5885,1.5885,1.5885,1.5885,1.5885,1.5885,1.5885,1.5885,1.5885,1.5885,1.5825,1.5656,1.5644,1.5572,1.5415,1.5559,1.5644,1.5644,1.5801,1.5813,1.5644,1.5644,1.5572,1.5403,1.4838,1.4029,1.2871,1.161,1.0789,0.0,1.008,1.0148,0.9863,0.9673,0.9408,0.8811,0.8336,0.0,0.7645,0.7346,0.7098,0.7098,0.7098,0.7152,0.736,0.7516,0.7773,0.0,0.896,0.0,0.0,1.088,0.0,1.1165,1.1671,1.2526,1.3729,1.4529,1.5938,1.817,1.867,1.9335,2.0255,2.0484,2.0496,2.0255,2.0243,1.9989,1.9536,1.9536,1.9326,1.9072,1.9072,1.9072,0.0,1.9072,1.9072,1.9072,1.9072,1.906,1.9048,1.9048,1.8879,1.8625,1.8625,1.83,1.7841,1.7841,1.7684,1.7479,1.7479,1.7479,1.7479,1.7479,1.7479,1.7479,1.7479,1.7479,1.7358,1.6839,1.6706,1.6561,1.6018,1.5885,1.5885,1.5885,1.5885,1.5885,1.5885,1.5885,1.5885,1.5885,1.5885,1.5885,1.5885,1.5885,1.5885,1.5885,1.5885,1.5885,1.5885,1.5885,1.5885,1.5885,1.5885,1.5885,1.5885,1.5885,1.5885,1.5885,1.5885,1.5885,1.5885,1.5885,1.5885,1.5885,1.5083,1.4385,1.3781,1.2436,1.1564,0.892,0.0,0.9578,0.9503,0.9286,0.8967,0.0,0.8113,0.778,0.7489,0.7272,0.7098,0.7098,0.7098,0.7186,0.7502,0.7665,0.7957,0.8526,0.0,0.0,1.0759,1.1124,1.1301,1.1335,1.1832,1.2437,1.3031,1.403,1.5379,1.7184,1.7866,1.8799,1.9989,2.0038,2.0038,1.9977,1.9977,1.9808,1.9536,1.9536,1.9326,1.9072,1.9072,1.9072,1.9072,1.9072,1.9072,1.9072,1.9072,1.8963,1.877,1.877,1.8481,1.807,1.807,1.7853,1.7575,1.7575,1.7539,1.7479,1.7479,1.7479,1.7479,1.7479,1.7479,1.7479,1.7479,1.7479,1.7358,1.6839,1.6706,1.6561,1.6018,1.5885,1.5885,1.5885,1.5885,1.5885,1.5885,1.5885,1.5885,1.5885,1.5885,1.5885,1.5885,1.5885,1.5885,1.5885,1.5885,1.5885,1.5885,1.5885,1.5885,1.5885,1.5885,1.5885,1.5885,1.5885,1.5885,1.5885,1.5885,1.5885,1.5885,1.5885,1.5885,1.5885,1.5672,1.5298,1.4654,1.3954,1.3034,0.8526,0.8832,0.9055,0.8988,0.8798,0.8533,0.8147,0.7828,0.7563,0.7453,0.0,0.7098,0.7098,0.7213,0.7428,0.7658,0.7936,0.0,0.0,0.0,1.0724,1.1104,1.1355,1.147,0.0,1.1676,1.191,1.2044,1.2943,1.4292,1.6177,1.693,1.8058,1.97,1.9688,1.9688,1.9688,1.9688,1.9555,1.9354,1.9354,1.9217,1.9072,1.9072,1.9072,1.9072,1.9072,1.9072,1.9072,1.9072,1.8927,1.8686,1.8686,1.8348,1.7877,1.7877,1.7708,1.7479,1.7479,1.7479,1.7479,1.7479,1.7479,1.7479,1.7479,1.7479,1.7479,1.7479,1.7394,1.7213,1.6803,1.661,1.6416,1.5994,1.5885,1.5885,1.5885,1.5885,1.5885,1.5885,1.5885,1.5885,1.5885,1.5885,1.5885,1.5885,1.5885,1.5885,1.5885,1.5885,1.5885,1.5885,1.5885,1.5885,1.5885,1.5885,1.5885,1.5885,1.5885,1.5885,1.5885,1.5885,1.5885,1.5885,1.5885,1.5885,1.5885,1.5885,1.5684,1.5202,1.4654,1.3953,0.8397,0.8574,0.8648,0.8547,0.8445,0.8282,0.7923,0.0,0.0,0.0,0.0,0.0,0.0,0.7455,0.0,0.0,0.0,0.0,0.9889,1.0516,1.105,1.1321,1.1511,0.0,1.1402,1.1389,1.1328,1.1241,1.1855,1.3199,1.5325,1.6146,1.7395,1.9345,1.941,1.941,1.941,1.941,1.9289,1.9072,1.9072,1.9072,1.9072,1.9072,1.9072,1.9072,1.9072,0.0,1.9012,1.9012,1.8831,1.8565,1.8565,1.8251,1.7817,1.7817,1.7672,1.7479,1.7479,1.7479,1.7479,1.7479,1.7479,1.7479,1.7479,1.7479,1.7479,1.7479,1.7322,1.7092,1.6827,1.6598,1.6356,1.6079,1.6018,1.6018,1.6018,1.6018,1.6018,1.6018,1.6018,1.6018,1.6018,1.6018,1.6006,1.5958,1.5946,1.5934,1.5897,1.5885,1.5885,1.5885,1.5885,1.5885,1.5885,1.5885,1.5885,1.5885,1.5885,1.5885,1.5885,1.5885,1.5885,1.5885,1.5885,1.5885,1.5885,1.5885,1.5803,1.5594,1.5098,1.468,0.8364,0.8499,0.854,0.8648,0.8757,0.8635,0.8083,0.7921,0.0,0.0,0.0,0.0,0.0,0.7746,0.7909,0.0,0.0,0.9625,0.0,0.0,1.1009,1.1179,0.0,1.1558,1.1402,1.1389,1.1328,1.1241,1.1855,1.315,1.5061,1.5862,1.716,1.908,1.9132,1.9132,1.9132,1.9132,1.912,1.9072,1.9072,1.9072,1.9072,1.9072,1.9072,1.9072,0.0,1.8951,1.8746,1.8746,1.8456,1.7998,1.7998,1.7817,1.7539,1.7539,1.7515,1.7479,1.7479,1.7479,1.7479,1.7479,1.7479,1.7479,1.7479,1.7479,1.7479,1.7479,1.7455,1.7358,1.7092,1.6996,1.6911,1.6634,1.6573,1.6573,1.6573,1.6573,1.6573,1.6573,1.6573,1.6573,1.6573,1.6573,1.6501,1.626,1.6223,1.6139,1.5922,1.5885,1.5885,1.5885,1.5885,1.5885,1.5885,1.5885,1.5885,1.5885,1.5885,1.5885,1.5885,1.5885,1.5885,1.5885,1.5885,1.5885,1.5885,1.5885,1.6006,1.6169,1.606,1.5873,0.8269,0.8425,0.852,0.8669,0.8825,0.877,0.8377,0.8221,0.8099,0.0,0.0,0.0,0.0,0.0,0.8499,0.911,0.0,1.0073,1.0351,1.0717,1.0907,0.0,0.0,1.1314,1.1165,1.1151,1.109,1.0934,1.1596,1.2901,1.4922,1.5702,1.7033,1.902,1.9072,1.9072,1.9072,1.9072,1.9072,1.9072,1.9072,1.9072,1.9072,1.9072,1.9072,1.9072,0.0,1.8927,1.8686,1.8686,1.836,1.7877,1.7877,1.7708,1.7479,1.7479,1.7479,1.7479,1.7479,1.7479,1.7479,1.7479,1.7479,1.7479,1.7479,1.7479,1.7479,1.7479,1.7382,1.7249,1.7129,1.6984,1.6851,1.673,1.6706,1.6706,1.6706,1.6706,1.6706,1.6706,1.6706,1.6706,1.6706,1.6706,1.6658,1.6525,1.6513,1.6465,1.6344,1.6332,1.6332,1.6332,1.6332,1.6332,1.6332,1.6332,1.6199,1.591,1.6018,1.6103,1.6103,1.6247,1.6332,1.6332,1.6332,1.6332,1.6332,1.6332,1.6392,1.6513,1.6513,1.6422,0.8133,0.8269,0.8384,0.8648,0.8852,0.892,0.8648,0.8533,0.8431,0.0,0.0,0.0,0.0,0.875,0.0,0.9822,1.0154,1.0378,1.0527,1.0778,1.088,1.088,1.1077,1.1104,1.0894,1.088,1.082,1.0731,1.138,1.2692,1.4782,1.5619,1.6926,1.9008,1.9072,1.9072,1.9072,1.9072,1.9072,1.9072,1.9072,1.9072,1.9072,1.9072,1.9072,1.9072,1.9072,1.8891,1.8589,1.8589,1.8275,1.7781,1.7781,1.766,1.7479,1.7479,1.7479,1.7479,1.7479,1.7479,1.7479,1.7479,1.7479,1.7479,1.7479,1.7479,1.7479,1.7479,1.7334,1.7177,1.7177,1.7032,1.6887,1.6887,1.6887,1.6887,1.6887,1.6887,1.6887,1.6887,1.6887,1.6887,1.6887,1.6887,1.6863,1.6803,1.6791,1.6767,1.6706,1.6706,1.6706,1.6706,1.6706,1.6706,1.6706,1.6706,1.6525,1.6103,1.6272,1.638,1.638,1.6585,1.6706,1.6706,1.6706,1.6706,1.6706,1.6706,1.673,1.6791,1.6791,1.681,0.7928,0.7963,0.7997,0.8567,0.8927,0.9096,0.894,0.9001,0.9105,0.8906,0.0,0.0,0.0,0.9449,0.9856,1.0195,1.0378,1.0527,1.0683,0.0,1.088,1.088,1.1077,1.1104,1.0894,1.088,1.082,1.0731,1.138,1.2692,1.4782,1.5619,1.6926,1.9008,1.9072,1.9072,1.9072,1.9072,1.9072,1.9072,1.9072,1.9072,1.9072,1.9072,1.9072,1.9072,1.9072,1.8794,1.8324,1.8324,1.7998,1.7515,1.7515,1.7503,1.7479,1.7479,1.7479,1.7479,1.7479,1.7479,1.7479,1.7479,1.7479,1.7479,1.7479,1.7479,1.7479,1.7479,1.7467,1.7455,1.7455,1.7443,1.743,1.743,1.743,1.743,1.743,1.743,1.743,1.743,1.743,1.743,1.743,1.743,1.7346,1.7105,1.7068,1.6972,1.673,1.6706,1.6706,1.6706,1.6706,1.6706,1.6706,1.6706,1.6682,1.6646,1.6658,1.667,1.667,1.6694,1.6706,1.6706,1.6706,1.6706,1.6706,1.6706,1.6827,1.7068,1.7068,1.7201,0.7841,0.7794,0.778,0.8187,0.8587,0.0,0.0,0.9401,0.9476,0.9605,0.9632,0.0,0.0,0.0,1.0032,1.0243,1.0399,1.0548,1.0697,1.0772,1.0806,1.0806,1.0853,1.0867,1.0812,1.0806,1.0778,1.0724,1.138,1.2692,1.4782,1.5619,1.6851,1.8779,1.8831,1.8758,1.8589,1.8589,1.8589,1.8589,1.8915,1.9072,1.9072,1.9072,1.9072,1.906,1.8903,1.8625,1.8275,1.8106,1.7817,1.7479,1.7479,1.7479,1.7479,1.7479,1.7479,1.7479,1.7479,1.7479,1.7479,1.7479,1.7479,1.7479,1.7479,1.7479,1.7479,1.7479,1.7479,1.7479,1.7479,1.7479,1.7479,1.7479,1.7479,1.7479,1.7479,1.7479,1.7479,1.7479,1.7479,1.7479,1.7479,1.7479,1.7455,1.7346,1.7334,1.7298,1.7201,1.7189,1.7189,1.7189,1.7189,1.7189,1.7189,1.7189,1.7189,1.7189,1.7032,1.6948,1.6948,1.7105,1.7189,1.7189,1.7189,1.7189,1.7189,1.7189,1.7237,1.7334,1.7334,1.7382,0.7801,0.7706,0.7692,0.8085,0.0,0.0,0.9571,0.9788,0.989,1.0141,1.0188,1.0127,0.993,0.0,0.0,0.0,1.0439,1.0602,1.0704,1.0717,1.0717,1.0717,1.0717,1.0717,1.0717,1.0717,1.0717,1.0717,1.138,1.2692,1.4782,1.5619,1.6851,1.8743,1.8807,1.8686,1.842,1.842,1.8372,1.83,1.8662,1.8831,1.8831,1.8831,1.8831,1.8819,1.8638,1.8408,1.8143,1.795,1.772,1.7491,1.7575,1.7551,1.7479,1.7479,1.7479,1.7479,1.7479,1.7479,1.7479,1.7479,1.7479,1.7479,1.7479,1.7479,1.7479,1.7479,1.7479,1.7479,1.7479,1.7479,1.7479,1.7479,1.7479,1.7479,1.7479,1.7479,1.7479,1.7479,1.7479,1.7479,1.7479,1.7479,1.7479,1.7479,1.7479,1.7479,1.7479,1.7479,1.7479,1.7479,1.7479,1.7479,1.7479,1.7479,1.7479,1.7479,1.731,1.7213,1.7213,1.7382,1.7479,1.7479,1.7479,1.7479,1.7479,1.7479,1.7479,1.7479,1.7479,1.7479,0.7848,0.7706,0.774,0.833,0.0,0.0,0.9714,1.0168,1.0324,1.0466,1.0493,1.0405,1.0044,1.029,0.0,1.0304,1.0527,1.0717,1.0717,1.0717,1.0717,1.0717,1.0717,1.0717,1.0717,1.0717,1.0717,1.0717,1.138,1.2692,1.4782,1.5619,1.6926,1.8996,1.9072,1.8951,1.8674,1.8674,1.8541,1.8287,1.8287,1.8287,1.83,1.83,1.83,1.83,1.8287,1.8131,1.7877,1.7877,1.772,1.7503,1.7768,1.7708,1.7479,1.7479,1.7479,1.7479,1.7479,1.7479,1.7479,1.7479,1.7479,1.7479,1.7479,1.7479,1.7479,1.7479,1.7479,1.7479,1.7479,1.7479,1.7479,1.7479,1.7479,1.7479,1.7479,1.7479,1.7479,1.7479,1.7479,1.7479,1.7479,1.7479,1.7479,1.7479,1.7479,1.7479,1.7479,1.7479,1.7479,1.7479,1.7479,1.7479,1.7479,1.7479,1.7479,1.7479,1.7479,1.7479,1.7479,1.7479,1.7479,1.7479,1.7479,1.7479,1.7479,1.7479,1.7479,1.7479,1.7479,1.7479,0.7699,0.7706,0.0,0.8235,0.0,0.0,0.0,1.0093,0.0,0.0,1.0724,1.0595,1.0399,1.0351,0.0,1.0419,1.05,1.0595,1.0704,1.0717,1.0717,1.0717,1.0717,1.0717,1.0717,1.0717,1.0717,1.0717,1.138,1.2636,1.4493,1.5475,1.6776,1.8467,1.871,1.8577,1.8118,1.8118,1.7986,1.772,1.772,1.7925,1.83,1.83,1.83,1.8287,1.8082,1.795,1.7877,1.7877,1.772,1.7503,1.7768,1.7708,1.7479,1.7479,1.7479,1.7479,1.7479,1.7479,1.7479,1.7479,1.7479,1.7479,1.7479,1.7479,1.7479,1.7479,1.7479,1.7479,1.7479,1.7479,1.7479,1.7479,1.7479,1.7479,1.7479,1.7479,1.7479,1.7479,1.7479,1.7479,1.7479,1.7479,1.7479,1.7479,1.7479,1.7479,1.7479,1.7479,1.7479,1.7479,1.7479,1.7479,1.7479,1.7479,1.7479,1.7479,1.7479,1.7479,1.7479,1.7479,1.7479,1.7479,1.7479,1.7479,1.7479,1.7479,1.7479,1.7479,1.7479,1.7479,0.7706,0.7875,0.0,0.8586,0.8913,0.9374,1.0032,0.0,0.0,0.0,1.0806,1.0744,1.0527,1.0473,0.0,1.0487,1.0541,1.0616,1.0711,1.0717,1.0717,1.0717,1.0717,1.0717,1.0717,1.085,1.0916,1.0916,1.1843,1.3135,1.4591,1.5758,1.701,1.8395,1.8601,1.8481,1.8046,1.7925,1.7744,1.7479,1.7479,1.766,1.7974,1.7974,1.7974,1.7962,1.7793,1.772,1.7732,1.795,1.7877,1.766,1.7937,1.7877,1.7624,1.7527,1.7479,1.7479,1.7479,1.7479,1.7479,1.7479,1.7479,1.7479,1.7479,1.7479,1.7479,1.7479,1.7479,1.7479,1.7479,1.7479,1.7479,1.7479,1.7479,1.7479,1.7479,1.7479,1.7479,1.7479,1.7479,1.7479,1.7479,1.7479,1.7479,1.7479,1.7479,1.7479,1.7479,1.7479,1.7479,1.7479,1.7479,1.7479,1.7479,1.7479,1.7479,1.7479,1.7479,1.7479,1.7479,1.7479,1.7479,1.7479,1.7479,1.7479,1.7479,1.7479,1.7479,1.7479,1.7479,1.7479,0.7787,0.8126,0.0,0.9098,0.9422,0.0,1.0561,1.0759,1.086,1.086,0.0,1.0846,1.0561,1.0629,1.0677,1.0534,1.0629,1.0717,1.0717,1.0717,1.0717,1.0717,1.0717,1.0717,1.0717,1.0982,1.124,1.1292,1.2602,1.3873,1.4989,1.6285,1.7468,1.8613,1.8638,1.8517,1.8263,1.7998,1.7744,1.7479,1.7479,1.7479,1.7479,1.7479,1.7479,1.7479,1.7479,1.7479,1.7527,1.807,1.8131,1.7901,1.8179,1.8118,1.7841,1.7575,1.7479,1.7479,1.7479,1.7479,1.7479,1.7479,1.7479,1.7479,1.7479,1.7479,1.7479,1.7479,1.7479,1.7479,1.7479,1.7479,1.7479,1.7479,1.7479,1.7479,1.7479,1.7479,1.7479,1.7479,1.7479,1.7479,1.7479,1.7479,1.7479,1.7479,1.7479,1.7479,1.7479,1.7479,1.7479,1.7479,1.7479,1.7479,1.7479,1.7479,1.7479,1.7479,1.7479,1.7479,1.7479,1.7479,1.7479,1.7479,1.7479,1.7479,1.7479,1.7479,1.7479,1.7479,1.7479,1.7479,0.7611,0.8052,0.0,0.0,0.9734,1.0378,1.0656,1.0744,1.0772,1.0772,1.0772,1.0751,1.0683,1.0697,1.0711,1.0677,1.0697,1.0717,1.0717,1.0717,1.0717,1.0717,1.0717,1.0717,1.0717,1.0982,1.1461,1.211,1.2992,1.4116,1.5545,1.6374,1.714,1.8058,1.8263,1.8251,1.7962,1.7901,1.7744,1.7479,1.7479,1.7479,1.7479,1.7479,1.7479,1.7479,1.7479,1.7479,1.7527,1.807,1.8131,1.7901,1.8179,1.8118,1.7841,1.7575,1.7479,1.7479,1.7479,1.7479,1.7479,1.7479,1.7479,1.7479,1.7479,1.7479,1.7479,1.7479,1.7479,1.7479,1.7479,1.7479,1.7479,1.7479,1.7479,1.7479,1.7479,1.7479,1.7479,1.7479,1.7479,1.7479,1.7479,1.7479,1.7479,1.7479,1.7479,1.7479,1.7479,1.7479,1.7479,1.7479,1.7479,1.7479,1.7479,1.7479,1.7479,1.7479,1.7479,1.7479,1.7479,1.7479,1.7479,1.7479,1.7479,1.7479,1.7479,1.7479,1.7479,1.7479,1.7479,1.7479,0.7428,0.0,0.0,0.951,0.0,1.0622,1.0704,1.0717,1.0717,1.0717,1.0717,1.0717,1.0717,1.0717,1.0717,1.0717,1.0717,1.0717,1.0717,1.0717,1.0717,1.0717,1.0717,1.069,1.0616,1.1068,1.1648,1.2506,1.3499,1.4692,1.5957,1.6775,1.741,1.7877,1.8022,1.8022,1.7877,1.7744,1.7612,1.7479,1.7479,1.7479,1.7479,1.7479,1.7479,1.7479,1.7479,1.7479,1.7515,1.7925,1.801,1.7889,1.8034,1.8082,1.8046,1.7768,1.7672,1.7672,1.7672,1.7587,1.7479,1.7479,1.7479,1.7479,1.7479,1.7479,1.7479,1.7479,1.7479,1.7479,1.7479,1.7479,1.7479,1.7479,1.7479,1.7479,1.7479,1.7479,1.7479,1.7479,1.7479,1.7479,1.7479,1.7479,1.7479,1.7479,1.7479,1.7479,1.7479,1.7479,1.7479,1.7479,1.7479,1.7479,1.7479,1.7479,1.7479,1.7479,1.7479,1.7479,1.7479,1.7479,1.7479,1.7479,1.7479,1.7479,1.7479,1.7479,1.7479,1.7479,1.7479,1.7479,0.7334,0.0,0.8994,1.0025,1.048,0.0,1.0717,1.0717,1.0717,1.0717,1.0717,1.0717,1.0717,1.0717,1.0711,1.0683,1.0683,1.067,1.0649,1.0643,1.0643,1.0643,1.0643,1.0595,1.0466,1.1099,1.1859,1.2812,1.4107,1.532,1.6436,1.7294,1.7792,1.7817,1.7805,1.7805,1.7805,1.7587,1.7479,1.7479,1.7479,1.7479,1.7479,1.7479,1.7479,1.7479,1.7479,1.7479,1.7503,1.7768,1.7877,1.7877,1.7877,1.8046,1.8263,1.7974,1.7877,1.7877,1.7877,1.7696,1.7479,1.7479,1.7479,1.7479,1.7479,1.7479,1.7479,1.7479,1.7479,1.7479,1.7479,1.7479,1.7479,1.7479,1.7479,1.7479,1.7479,1.7479,1.7479,1.7479,1.7479,1.7479,1.7479,1.7479,1.7479,1.7479,1.7479,1.7479,1.7479,1.7479,1.7479,1.7479,1.7479,1.7479,1.7479,1.7479,1.7479,1.7479,1.7479,1.7479,1.7479,1.7479,1.7479,1.7479,1.7479,1.7479,1.7479,1.7479,1.7479,1.7479,1.7479,1.7479,0.0,0.0,0.913,0.0,1.0399,1.0555,0.0,0.0,1.0717,0.0,1.0717,1.0717,1.0717,1.0717,1.0677,1.0548,1.0521,1.048,1.0358,1.0337,1.0337,1.0337,1.0337,1.0331,1.031,1.094,1.1996,1.3594,1.4443,1.5629,1.7256,1.7445,1.7516,1.7539,1.7539,1.7539,1.7539,1.7503,1.7479,1.7479,1.7479,1.7479,1.7479,1.7479,1.7479,1.7479,1.7479,1.7479,1.7503,1.7768,1.7877,1.7877,1.7877,1.8046,1.8263,1.7974,1.7877,1.7877,1.7877,1.7696,1.7479,1.7479,1.7479,1.7479,1.7479,1.7479,1.7479,1.7479,1.7479,1.7479,1.7479,1.7479,1.7479,1.7479,1.7479,1.7479,1.7479,1.7479,1.7479,1.7479,1.7479,1.7479,1.7479,1.7479,1.7479,1.7479,1.7479,1.7479,1.7479,1.7479,1.7479,1.7479,1.7479,1.7479,1.7479,1.7479,1.7479,1.7479,1.7479,1.7479,1.7479,1.7479,1.7479,1.7479,1.7479,1.7479,1.7479,1.7479,1.7479,1.7479,1.7479,1.7479,0.7555,0.8265,0.906,0.0,0.0,0.0,0.0,0.0,1.0473,1.0473,1.0473,1.05,1.0575,1.0595,1.0541,1.0399,1.0371,1.0351,1.029,1.0283,1.0283,1.0283,1.0283,1.0249,1.0161,1.0712,1.1875,1.3625,1.434,1.5568,1.7432,1.7479,1.7479,1.7479,1.7479,1.7479,1.7479,1.7479,1.7479,1.7479,1.7479,1.7479,1.7479,1.7479,1.7479,1.7479,1.7479,1.7479,1.7491,1.7612,1.766,1.766,1.766,1.7913,1.8275,1.8155,1.8106,1.8106,1.8106,1.7829,1.7479,1.7479,1.7479,1.7479,1.7479,1.7479,1.7479,1.7479,1.7479,1.7479,1.7479,1.7479,1.7479,1.7479,1.7479,1.7479,1.7479,1.7479,1.7479,1.7479,1.7479,1.7479,1.7479,1.7479,1.7527,1.7684,1.7696,1.7756,1.7913,1.7937,1.7937,1.7937,1.7793,1.7768,1.7925,1.7793,1.7768,1.7925,1.7937,1.7937,1.7937,1.7937,1.7937,1.7937,1.7636,1.7479,1.7479,1.7479,1.7479,1.7479,1.7479,1.7479,0.7682,0.8217,0.8879,0.953,0.0,0.0,0.0,0.0,0.0,0.0,0.0,1.0304,1.0365,1.0412,1.0392,1.0243,1.0222,1.0209,1.0168,1.0161,1.0161,1.0161,1.0161,1.012,0.9943,1.0547,1.1715,1.3555,1.4272,1.5461,1.742,1.7479,1.7479,1.7479,1.7479,1.7455,1.7382,1.7382,1.7418,1.7479,1.7479,1.7479,1.7479,1.7479,1.7479,1.7479,1.7479,1.7479,1.7479,1.7479,1.7479,1.7479,1.7479,1.7817,1.83,1.83,1.83,1.83,1.83,1.7937,1.7479,1.7479,1.7479,1.7479,1.7479,1.7479,1.7479,1.7479,1.7479,1.7479,1.7479,1.7479,1.7479,1.7479,1.7539,1.7563,1.7491,1.7479,1.7479,1.7479,1.7479,1.7479,1.7479,1.7479,1.7575,1.7829,1.7877,1.7974,1.8263,1.83,1.83,1.83,1.8106,1.8058,1.8275,1.8094,1.807,1.8275,1.83,1.83,1.83,1.83,1.83,1.83,1.7889,1.7684,1.7684,1.7612,1.7575,1.7575,1.7515,1.7479,0.7656,0.7907,0.0,0.9207,0.0,0.0,0.0,0.0,0.0,0.0,0.0,0.0,1.0038,1.0195,1.0243,1.0024,0.9997,0.995,0.9863,0.9842,0.9842,0.9842,0.9842,0.9842,0.9836,1.0436,1.1639,1.3545,1.4272,1.5461,1.742,1.7479,1.7479,1.7479,1.7479,1.7358,1.7117,1.7117,1.7237,1.7479,1.7479,1.7479,1.7479,1.7479,1.7479,1.7479,1.7479,1.7479,1.7479,1.7479,1.7479,1.7479,1.7479,1.7817,1.83,1.83,1.83,1.83,1.83,1.7937,1.7479,1.7479,1.7479,1.7479,1.7479,1.7479,1.7479,1.7479,1.7479,1.7479,1.7479,1.7479,1.7479,1.7479,1.7672,1.7781,1.7539,1.7479,1.7479,1.7479,1.7479,1.7479,1.7479,1.7479,1.7575,1.7829,1.7877,1.7974,1.8263,1.83,1.83,1.83,1.8275,1.8275,1.83,1.8275,1.8275,1.83,1.83,1.83,1.83,1.83,1.83,1.83,1.8263,1.8251,1.8251,1.7986,1.7853,1.7853,1.7599,1.7479,0.75,0.7656,0.0,0.0,0.0,0.0,0.0,0.0,0.0,0.0,0.0,0.0,0.0,0.0,1.008,0.9869,0.9842,0.9883,0.9829,0.9822,0.9822,0.9822,1.0004,1.0126,1.0126,1.1088,1.2354,1.3844,1.4738,1.5876,1.742,1.7479,1.7479,1.7479,1.7322,1.7105,1.6839,1.7008,1.7141,1.7237,1.7406,1.7479,1.7479,1.7479,1.7479,1.7479,1.7479,1.7479,1.7479,1.7479,1.7479,1.7479,1.7479,1.7817,1.83,1.83,1.83,1.83,1.83,1.7937,1.7479,1.7479,1.7479,1.7479,1.7479,1.7479,1.7479,1.7479,1.7479,1.7479,1.7479,1.7612,1.7781,1.7962,1.807,1.8118,1.8022,1.7998,1.7998,1.7998,1.7998,1.7998,1.7998,1.7998,1.8094,1.8348,1.8396,1.8493,1.8758,1.8794,1.8794,1.8794,1.865,1.8613,1.8782,1.8638,1.8613,1.8782,1.8794,1.8794,1.8794,1.8794,1.8794,1.8794,1.8794,1.8625,1.83,1.801,1.7877,1.7865,1.7599,1.7479,0.7711,0.7668,0.0,0.0,0.0,0.0,0.0,0.0,0.0,0.0,0.0,0.0,0.0,0.0,0.0,0.9836,0.9822,0.9822,0.9822,0.9822,0.9822,0.9822,1.0126,1.0422,1.0725,1.1752,1.3015,1.45,1.5332,0.0,1.742,1.7479,1.7443,1.7358,1.7008,1.6791,1.6706,1.6779,1.6911,1.7092,1.7274,1.7394,1.7479,1.7479,1.7479,1.7479,1.7479,1.7479,1.7479,1.7479,1.7479,1.7479,1.7479,1.7817,1.83,1.83,1.83,1.83,1.83,1.7937,1.7479,1.7479,1.7479,1.7479,1.7479,1.7479,1.7479,1.7479,1.7539,1.7612,1.7612,1.7817,1.8082,1.836,1.842,1.8444,1.8541,1.842,1.83,1.83,1.83,1.83,1.83,1.83,1.8384,1.865,1.8686,1.8782,1.9048,1.9072,1.9072,1.9072,1.8915,1.8891,1.906,1.8915,1.8891,1.906,1.9072,1.9072,1.9072,1.9072,1.9072,1.9072,1.9072,1.8903,1.8553,1.8191,1.801,1.801,1.7648,1.7479,0.0,0.0,0.0,0.0,0.0,0.0,0.0,0.0,0.0,0.0,0.0,0.0,0.0,0.0,0.0,0.0,0.9815,0.9822,0.9822,0.9822,0.9822,0.9822,1.0126,1.0664,1.1631,1.2354,1.3555,1.5451,1.5935,1.6537,1.742,1.7479,1.7346,1.708,1.6573,1.6429,1.667,1.6416,1.6549,1.708,1.7092,1.7225,1.7479,1.7479,1.7479,1.7479,1.7479,1.7479,1.7479,1.7479,1.7479,1.7479,1.7479,1.7805,1.8275,1.8287,1.8287,1.8287,1.8287,1.7937,1.7479,1.7479,1.7479,1.7479,1.7479,1.7479,1.7479,1.7491,1.7684,1.7877,1.7889,1.8094,1.8372,1.8638,1.8698,1.877,1.9024,1.8674,1.8312,1.8312,1.8312,1.8312,1.8312,1.8312,1.8408,1.8662,1.8698,1.8794,1.9048,1.9072,1.9072,1.9072,1.9072,1.9072,1.9072,1.9072,1.9072,1.9072,1.9072,1.9072,1.9072,1.9072,1.9072,1.9072,1.9072,1.9072,1.9072,1.8553,1.83,1.8275,1.7732,1.7479,0.8741,0.0,0.0,0.0,0.0,0.0,0.0,0.0,0.0,0.0,0.0,0.0,0.0,0.0,0.0,0.0,0.0,0.9822,0.9822,0.9822,0.9822,0.9822,1.0308,1.1027,1.1993,1.3135,1.4391,0.0,1.6478,1.6961,1.7479,1.7298,1.6996,1.6537,1.6368,1.6235,1.6115,1.6223,1.6453,1.6815,1.6996,1.7225,1.7479,1.7479,1.7479,1.7479,1.7479,1.7479,1.7479,1.7479,1.7479,1.7479,1.7479,1.7696,1.801,1.8215,1.8167,1.8022,1.8227,1.7937,1.7479,1.7479,1.7479,1.7479,1.7479,1.7479,1.7527,1.7708,1.7817,1.7962,1.836,1.8517,1.8638,1.8903,1.8963,1.8988,1.906,1.8963,1.8855,1.8855,1.8855,1.8855,1.8855,1.8855,1.8879,1.8951,1.8963,1.9,1.906,1.9072,1.9072,1.9072,1.9072,1.9072,1.9072,1.9072,1.9072,1.9072,1.9072,1.9072,1.9072,1.9072,1.9072,1.9072,1.9072,1.9072,1.9072,1.8553,1.83,1.8275,1.7732,1.7479,0.9685,0.9321,0.8888,0.867,0.0,0.0,0.8089,0.8178,0.0,0.0,0.0,0.0,0.0,0.0,0.0,0.0,0.0,0.0,0.9713,0.9781,0.9822,0.9822,1.0361,1.1329,1.2706,1.3734,1.4945,1.6389,1.6856,1.7099,1.7165,1.6899,1.661,1.6308,1.6175,1.6042,1.5885,1.6042,1.626,1.6525,1.6682,1.6899,1.7153,1.7153,1.7213,1.7322,1.7322,1.7382,1.7479,1.7479,1.7479,1.7479,1.7479,1.7648,1.7913,1.8191,1.8118,1.7913,1.8191,1.7937,1.7479,1.7479,1.7479,1.7479,1.7479,1.7479,1.7539,1.7793,1.8034,1.8312,1.8734,1.8843,1.8891,1.9036,1.9072,1.9072,1.9072,1.9072,1.9072,1.9072,1.9072,1.9072,1.9072,1.9072,1.9072,1.9072,1.9072,1.9072,1.9072,1.9072,1.9072,1.9072,1.9072,1.9072,1.9072,1.9072,1.9072,1.9072,1.9072,1.9072,1.9072,1.9072,1.9072,1.9072,1.9072,1.8963,1.8746,1.8444,1.8179,1.795,1.7636,1.7479,1.0857,1.0472,1.0008,0.96,0.902,0.0,0.8335,0.8205,0.8212,0.0,0.0,0.0,0.0,0.0,0.0,0.0,0.0,0.0,0.0,0.9739,0.9828,0.9835,1.0432,1.1627,1.348,1.4252,1.5301,1.6954,1.7044,1.6936,1.667,1.6416,1.6272,1.6235,1.6006,1.5885,1.5885,1.5885,1.6018,1.6284,1.6284,1.6429,1.6706,1.6706,1.6839,1.7092,1.7092,1.7237,1.7479,1.7479,1.7479,1.7479,1.7479,1.7624,1.7865,1.8179,1.8094,1.7877,1.8191,1.7937,1.7479,1.7479,1.7479,1.7479,1.7479,1.7479,1.7539,1.7841,1.8287,1.8746,1.9012,1.9072,1.9072,1.9072,1.9072,1.9072,1.9072,1.9072,1.9072,1.9072,1.9072,1.9072,1.9072,1.9072,1.9072,1.9072,1.9072,1.9072,1.9072,1.9072,1.9072,1.9072,1.9072,1.9072,1.9072,1.9072,1.9072,1.9072,1.9072,1.9072,1.9072,1.9072,1.9072,1.9072,1.9072,1.8819,1.83,1.8263,1.7986,1.7479,1.7479,1.7479,1.1313,1.1132,1.0834,1.0694,1.0089,0.0,0.9495,0.8981,0.8578,0.0,0.0,0.0,0.0,0.0,0.0,0.0,0.0,0.0,0.0,0.0,1.0106,0.9813,1.074,1.2018,1.3394,1.4266,1.5341,1.6666,1.6779,1.6658,1.638,1.6308,1.6187,1.597,1.5922,1.5885,1.5885,1.5885,1.603,1.6308,1.6284,1.6429,1.6706,1.6706,1.6839,1.7092,1.7092,1.7237,1.7479,1.7479,1.7479,1.7479,1.7479,1.7515,1.7624,1.8106,1.7986,1.7624,1.8118,1.7937,1.7479,1.7479,1.7479,1.7479,1.7479,1.7479,1.7587,1.807,1.8444,1.8746,1.9012,1.9072,1.9072,1.9072,1.9072,1.9072,1.9072,1.9072,1.9072,1.9072,1.9072,1.9072,1.9072,1.9072,1.9072,1.9072,1.9072,1.9072,1.9072,1.9072,1.9072,1.9072,1.9072,1.9072,1.9072,1.9072,1.9072,1.9072,1.9072,1.9072,1.9072,1.9072,1.9072,1.9072,1.9072,1.8819,1.83,1.807,1.7793,1.7479,1.7479,1.7479,1.2403,1.231,1.1979,1.1527,1.0924,0.0,0.0,0.9074,0.8862,0.9068,0.9167,0.0,0.0,0.0,0.0,0.0,0.0,0.0,0.0,0.0,0.0,1.0459,1.1273,1.2422,1.4019,1.471,1.5446,1.6446,1.6368,1.6235,1.6091,1.6091,1.603,1.5897,1.5885,1.5885,1.5885,1.5885,1.5958,1.6103,1.6091,1.6163,1.6296,1.6296,1.6441,1.6682,1.6682,1.6911,1.7286,1.7286,1.737,1.7479,1.7479,1.7479,1.7527,1.7937,1.7829,1.7539,1.795,1.7817,1.7479,1.7479,1.7479,1.7479,1.7479,1.7575,1.7756,1.8179,1.8481,1.8746,1.9012,1.9072,1.9072,1.9072,1.9072,1.9072,1.9072,1.9072,1.9072,1.9072,1.9072,1.9072,1.9072,1.9072,1.9072,1.9072,1.9072,1.9072,1.9072,1.9072,1.9072,1.9072,1.9072,1.9072,1.9072,1.9072,1.9072,1.9072,1.9072,1.9072,1.9072,1.9072,1.9072,1.9072,1.8951,1.8686,1.83,1.801,1.7744,1.7479,1.7479,1.7479,1.3595,1.3466,1.3012,1.2139,1.1577,1.087,0.0,0.0,0.0,0.9511,0.0,0.0,0.0,0.0,0.0,0.0,0.0,0.0,0.0,0.0,0.0,0.0,1.1746,1.2824,1.4497,1.5066,1.5519,1.6025,1.591,1.5813,1.5813,1.5861,1.5885,1.5885,1.5885,1.5885,1.5885,1.5885,1.5885,1.5885,1.5885,1.5885,1.5885,1.5885,1.603,1.6284,1.6284,1.6585,1.7092,1.7092,1.7249,1.7479,1.7479,1.7479,1.7515,1.7781,1.7708,1.7527,1.7781,1.7696,1.7479,1.7479,1.7479,1.7479,1.7479,1.7624,1.7853,1.8131,1.836,1.8589,1.8855,1.8927,1.8927,1.8927,1.8927,1.8927,1.8927,1.8927,1.8939,1.8988,1.9,1.9012,1.906,1.9072,1.9072,1.9072,1.9072,1.9072,1.9072,1.9072,1.9072,1.9072,1.9072,1.9072,1.9072,1.9072,1.9072,1.9072,1.9072,1.9072,1.9072,1.9072,1.9072,1.9072,1.8867,1.8638,1.8372,1.8143,1.7841,1.7479,1.7479,1.7479,0.0,0.0,0.0,0.0,1.1979,1.1446,1.0674,0.0,1.0401,1.0657,0.0,0.0,0.0,0.0,0.0,0.0,0.0,0.0,0.0,0.0,0.0,0.0,1.2216,1.3237,1.4186,1.5001,1.5419,1.5258,1.5427,1.5547,1.5547,1.5765,1.5885,1.5885,1.5885,1.5885,1.5885,1.5885,1.5885,1.5885,1.5885,1.5885,1.5885,1.5885,1.603,1.6284,1.6284,1.6585,1.7092,1.7092,1.7249,1.7479,1.7479,1.7479,1.7515,1.7781,1.7708,1.7527,1.7781,1.7696,1.7479,1.7479,1.7479,1.7479,1.7479,1.7503,1.7587,1.7853,1.7937,1.8034,1.8312,1.8384,1.8384,1.8384,1.8384,1.8384,1.8384,1.8384,1.8444,1.8686,1.8734,1.8807,1.9036,1.9072,1.9072,1.9072,1.9072,1.9072,1.9072,1.9072,1.9072,1.9072,1.9072,1.9072,1.9072,1.9072,1.9072,1.9072,1.9072,1.9072,1.9072,1.9072,1.9072,1.9072,1.9048,1.8903,1.8638,1.8601,1.8215,1.7479,1.7479,1.7479,0.0,0.0,0.0,0.0,0.0,0.0,1.1209,1.1075,1.1201,0.0,0.0,0.0,0.0,0.0,0.0,0.0,1.1477,0.0,0.0,0.0,0.0,0.0,0.0,0.0,1.4422,1.4795,1.4972,1.4871,1.4935,1.5105,1.5475,1.5741,1.5885,1.5885,1.5885,1.5885,1.5885,1.5885,1.5885,1.5885,1.6057,1.6111,1.6164,1.6311,1.6427,1.6526,1.6526,1.6654,1.6845,1.6845,1.7045,1.7249,1.7249,1.7346,1.7491,1.7612,1.7575,1.7503,1.7612,1.7575,1.7479,1.7479,1.7479,1.7479,1.7479,1.7479,1.7539,1.7793,1.7877,1.7937,1.8215,1.83,1.8336,1.8481,1.8517,1.8565,1.871,1.8746,1.8782,1.8891,1.8915,1.8951,1.906,1.9072,1.9072,1.9072,1.9072,1.9072,1.9072,1.9072,1.9072,1.9072,1.9072,1.9072,1.9072,1.9072,1.9072,1.9072,1.9072,1.9072,1.9072,1.9072,1.9072,1.9072,1.9072,1.8951,1.8686,1.8686,1.8348,1.7708,1.7708,1.7624,1.5274,0.0,0.0,0.0,0.0,0.0,0.0,0.0,0.0,0.0,0.0,0.0,0.0,0.0,0.0,0.0,0.0,1.1627,0.0,0.0,0.0,0.0,0.0,0.0,0.0,1.4532,1.4593,1.4582,1.4618,1.4814,1.5354,1.5644,1.5813,1.5885,1.5885,1.5885,1.5885,1.5885,1.5939,1.5992,1.6217,1.6324,1.643,1.663,1.6683,1.6683,1.6683,1.6779,1.6954,1.6832,1.6999,1.7317,1.7259,1.7368,1.7667,1.7667,1.7667,1.7667,1.7713,1.7772,1.7772,1.7772,1.7772,1.7772,1.7772,1.7772,1.7821,1.8005,1.8066,1.8056,1.8203,1.8204,1.8264,1.8458,1.8456,1.8541,1.8807,1.8855,1.8879,1.8951,1.8963,1.8988,1.906,1.9072,1.9072,1.9072,1.9072,1.9072,1.9072,1.9072,1.9072,1.9072,1.9072,1.9072,1.9072,1.9072,1.9072,1.9072,1.9072,1.9072,1.9072,1.9072,1.9072,1.9072,1.9072,1.8976,1.8794,1.8794,1.8553,1.8094,1.7937,1.7732,0.0,0.0,0.0,1.3826,0.0,0.0,0.0,0.0,1.2291,0.0,0.0,0.0,0.0,0.0,1.2974,1.2385,0.0,0.0,0.0,0.0,0.0,0.0,0.0,0.0,0.0,1.4309,1.4481,0.0,1.4444,1.4728,1.5089,1.5366,1.5632,1.5885,1.5885,1.5885,1.5885,1.5885,1.6057,1.6271,1.6324,1.643,1.6683,1.6683,1.6683,1.6683,1.6683,1.7054,1.752,1.7229,1.7452,1.796,1.7596,1.7713,1.7972,1.7972,1.7972,1.8031,1.8311,1.8357,1.8357,1.8357,1.8357,1.8357,1.8357,1.8357,1.8369,1.8369,1.8369,1.8323,1.8043,1.7997,1.8,1.7961,1.7961,1.7974,1.8263,1.8324,1.8396,1.865,1.8698,1.8782,1.9036,1.9072,1.9072,1.9072,1.9072,1.9072,1.9072,1.9072,1.9072,1.9072,1.9072,1.9072,1.9072,1.9072,1.9072,1.9072,1.9072,1.9072,1.9072,1.9072,1.9072,1.9072,1.9072,1.9072,1.906,1.906,1.8927,1.865,1.8118,1.7732,0.0,0.0,1.5137,1.4643,0.0,0.0,0.0,0.0,0.0,0.0,0.0,0.0,0.0,0.0,1.3748,1.2797,1.2382,0.0,0.0,0.0,0.0,0.0,0.0,0.0,0.0,0.0,0.0,0.0,1.3977,0.0,1.5052,1.5354,1.562,1.5885,1.5885,1.5885,1.5885,1.6057,1.6217,1.6324,1.6696,1.6961,1.7067,1.7213,1.7318,1.7318,1.7318,1.7381,1.7582,1.7473,1.7639,1.7975,1.786,1.8031,1.8252,1.8089,1.8077,1.8311,1.8369,1.8415,1.8415,1.8415,1.8415,1.8415,1.8415,1.8415,1.8415,1.8415,1.8415,1.8357,1.8311,1.8135,1.8084,1.8336,1.8264,1.8275,1.871,1.8807,1.8843,1.8927,1.8939,1.8976,1.906,1.9072,1.9072,1.9072,1.9072,1.9072,1.9072,1.9072,1.9072,1.9072,1.9072,1.9072,1.9072,1.9072,1.9072,1.9072,1.9072,1.9072,1.9072,1.9072,1.9072,1.9072,1.9072,1.9072,1.9072,1.9072,1.8939,1.8674,1.8312,1.801,1.6192,1.5925,0.0,1.5337,1.483,0.0,1.3986,0.0,1.4269,0.0,0.0,0.0,0.0,0.0,0.0,0.0,0.0,0.0,0.0,1.0995,0.0,0.0,0.0,0.0,0.0,0.0,1.348,1.3812,1.3774,0.0,0.0,1.5127,1.539,1.5741,1.5837,1.5951,1.6045,1.6217,1.643,1.6643,1.7014,1.7226,1.7331,1.7529,1.7582,1.7595,1.7702,1.7809,1.7937,1.7919,1.8065,1.832,1.8205,1.832,1.8532,1.8369,1.8486,1.8777,1.8777,1.8777,1.8777,1.8777,1.8777,1.8777,1.8777,1.8777,1.8777,1.8777,1.8777,1.8719,1.859,1.8428,1.8366,1.8518,1.8447,1.8484,1.8882,1.8939,1.8963,1.906,1.9072,1.9072,1.9072,1.9072,1.9072,1.9072,1.9072,1.9072,1.9072,1.9072,1.9072,1.9072,1.9072,1.9072,1.9072,1.9072,1.9072,1.9072,1.9072,1.9072,1.9072,1.9072,1.9072,1.9072,1.9072,1.9072,1.9072,1.9072,1.8988,1.8819,1.8456,1.8191]}]]